| time (UTC) | temp F | wind direction | speed MPH | gust MPH | rain 1hr in | rain 24hr in | rain mn in | humidity % | barometer mb |
| 20260902223055 | 94 | 135 | 4.0 | 14.0 | 0.00 | 0.00 | 0.00 | 62 | 1009.3 |
| 20260902222953 | 94 | 149 | 5.0 | 14.0 | 0.00 | 0.00 | 0.00 | 62 | 1009.3 |
| 20260902222854 | 94 | 128 | 6.0 | 14.0 | 0.00 | 0.00 | 0.00 | 61 | 1009.3 |
| 20260902222756 | 94 | 147 | 5.0 | 14.0 | 0.00 | 0.00 | 0.00 | 61 | 1009.3 |
| 20260902222653 | 94 | 149 | 5.0 | 14.0 | 0.00 | 0.00 | 0.00 | 61 | 1009.2 |
| 20260902222554 | 94 | 207 | 6.0 | 14.0 | 0.00 | 0.00 | 0.00 | 61 | 1009.2 |
| 20260902222455 | 94 | 137 | 5.0 | 14.0 | 0.00 | 0.00 | 0.00 | 61 | 1009.3 |
| 20260902222355 | 94 | 82 | 6.0 | 14.0 | 0.00 | 0.00 | 0.00 | 61 | 1009.3 |
| 20260902222253 | 94 | 133 | 6.0 | 14.0 | 0.00 | 0.00 | 0.00 | 61 | 1009.2 |
| 20260902222155 | 94 | 255 | 5.0 | 12.0 | 0.00 | 0.00 | 0.00 | 62 | 1009.4 |
| 20260902222055 | 94 | 128 | 4.0 | 13.0 | 0.00 | 0.00 | 0.00 | 62 | 1009.3 |
| 20260902221954 | 94 | 120 | 4.0 | 13.0 | 0.00 | 0.00 | 0.00 | 61 | 1009.3 |
| 20260902221854 | 94 | 120 | 5.0 | 13.0 | 0.00 | 0.00 | 0.00 | 61 | 1009.4 |
| 20260902221754 | 94 | 141 | 6.0 | 13.0 | 0.00 | 0.00 | 0.00 | 61 | 1009.4 |
| 20260902221654 | 94 | 235 | 5.0 | 13.0 | 0.00 | 0.00 | 0.00 | 61 | 1009.4 |
| 20260902221554 | 94 | 123 | 3.0 | 14.0 | 0.00 | 0.00 | 0.00 | 61 | 1009.4 |
| 20260902221454 | 94 | 157 | 6.0 | 14.0 | 0.00 | 0.00 | 0.00 | 61 | 1009.4 |
| 20260902221355 | 94 | 151 | 6.0 | 14.0 | 0.00 | 0.00 | 0.00 | 61 | 1009.3 |
| 20260902221254 | 94 | 99 | 6.0 | 14.0 | 0.00 | 0.00 | 0.00 | 61 | 1009.3 |
| 20260902221154 | 94 | 154 | 7.0 | 15.0 | 0.00 | 0.00 | 0.00 | 60 | 1009.4 |
| 20260902221056 | 94 | 148 | 6.0 | 15.0 | 0.00 | 0.01 | 0.00 | 61 | 1009.4 |
| 20260902220953 | 94 | 135 | 5.0 | 15.0 | 0.00 | 0.01 | 0.00 | 61 | 1009.4 |
| 20260902220854 | 94 | 121 | 6.0 | 15.0 | 0.00 | 0.01 | 0.00 | 61 | 1009.3 |
| 20260902220753 | 94 | 83 | 9.0 | 15.0 | 0.00 | 0.01 | 0.00 | 60 | 1009.4 |
| 20260902220653 | 94 | 140 | 7.0 | 15.0 | 0.00 | 0.01 | 0.00 | 60 | 1009.4 |
| 20260902220554 | 94 | 121 | 5.0 | 15.0 | 0.00 | 0.01 | 0.00 | 61 | 1009.3 |
| 20260902220453 | 94 | 142 | 6.0 | 15.0 | 0.00 | 0.01 | 0.00 | 61 | 1009.4 |
| 20260902220354 | 94 | 185 | 8.0 | 15.0 | 0.00 | 0.01 | 0.00 | 60 | 1009.3 |
| 20260902220254 | 94 | 176 | 7.0 | 15.0 | 0.00 | 0.01 | 0.00 | 60 | 1009.4 |
| 20260902220153 | 94 | 212 | 6.0 | 15.0 | 0.00 | 0.01 | 0.00 | 60 | 1009.4 |
| 20260902220053 | 94 | 92 | 5.0 | 15.0 | 0.00 | 0.01 | 0.00 | 60 | 1009.4 |
| 20260902215954 | 94 | 172 | 7.0 | 15.0 | 0.00 | 0.01 | 0.00 | 60 | 1009.4 |
| 20260902215854 | 94 | 147 | 8.0 | 15.0 | 0.00 | 0.01 | 0.00 | 60 | 1009.4 |
| 20260902215753 | 94 | 135 | 6.0 | 14.0 | 0.00 | 0.01 | 0.00 | 60 | 1009.4 |
| 20260902215654 | 94 | 169 | 6.0 | 14.0 | 0.00 | 0.01 | 0.00 | 61 | 1009.5 |
| 20260902215554 | 94 | 140 | 6.0 | 14.0 | 0.00 | 0.01 | 0.00 | 61 | 1009.4 |
| 20260902215453 | 94 | 92 | 6.0 | 14.0 | 0.00 | 0.01 | 0.00 | 61 | 1009.4 |
| 20260902215354 | 94 | 120 | 6.0 | 14.0 | 0.00 | 0.01 | 0.00 | 61 | 1009.5 |
| 20260902215254 | 94 | 147 | 7.0 | 14.0 | 0.00 | 0.01 | 0.00 | 61 | 1009.4 |
| 20260902215153 | 94 | 168 | 8.0 | 14.0 | 0.00 | 0.01 | 0.00 | 60 | 1009.4 |
| 20260902215053 | 95 | 172 | 7.0 | 14.0 | 0.00 | 0.01 | 0.00 | 61 | 1009.6 |
| 20260902214955 | 95 | 144 | 6.0 | 14.0 | 0.00 | 0.01 | 0.00 | 61 | 1009.5 |
| 20260902214853 | 94 | 259 | 5.0 | 14.0 | 0.00 | 0.01 | 0.00 | 61 | 1009.6 |
| 20260902214752 | 95 | 141 | 7.0 | 14.0 | 0.00 | 0.01 | 0.00 | 60 | 1009.6 |
| 20260902214654 | 95 | 125 | 7.0 | 14.0 | 0.00 | 0.01 | 0.00 | 60 | 1009.4 |
| 20260902214553 | 95 | 200 | 5.0 | 13.0 | 0.00 | 0.01 | 0.00 | 60 | 1009.4 |
| 20260902214453 | 95 | 173 | 5.0 | 13.0 | 0.00 | 0.01 | 0.00 | 60 | 1009.5 |
| 20260902214353 | 95 | 164 | 7.0 | 13.0 | 0.00 | 0.01 | 0.00 | 60 | 1009.4 |
| 20260902214255 | 95 | 124 | 8.0 | 13.0 | 0.00 | 0.01 | 0.00 | 60 | 1009.4 |
| 20260902214153 | 95 | 171 | 7.0 | 13.0 | 0.00 | 0.01 | 0.00 | 60 | 1009.5 |
| 20260902214053 | 95 | 169 | 5.0 | 14.0 | 0.00 | 0.01 | 0.00 | 61 | 1009.4 |
| 20260902213954 | 95 | 190 | 4.0 | 15.0 | 0.00 | 0.01 | 0.00 | 61 | 1009.4 |
| 20260902213854 | 95 | 175 | 6.0 | 15.0 | 0.00 | 0.01 | 0.00 | 61 | 1009.4 |
| 20260902213754 | 95 | 144 | 6.0 | 15.0 | 0.00 | 0.01 | 0.00 | 61 | 1009.5 |
| 20260902213652 | 95 | 145 | 5.0 | 15.0 | 0.00 | 0.01 | 0.00 | 61 | 1009.4 |
| 20260902213553 | 95 | 226 | 5.0 | 15.0 | 0.00 | 0.01 | 0.00 | 61 | 1009.5 |
| 20260902213454 | 95 | 124 | 4.0 | 15.0 | 0.00 | 0.01 | 0.00 | 61 | 1009.5 |
| 20260902213353 | 95 | 159 | 4.0 | 15.0 | 0.00 | 0.01 | 0.00 | 61 | 1009.5 |
| 20260902213253 | 95 | 193 | 7.0 | 15.0 | 0.00 | 0.01 | 0.00 | 60 | 1009.5 |
| 20260902213154 | 95 | 171 | 9.0 | 15.0 | 0.00 | 0.01 | 0.00 | 60 | 1009.5 |
| 20260902213052 | 95 | 142 | 6.0 | 15.0 | 0.00 | 0.01 | 0.00 | 60 | 1009.5 |
| 20260902212953 | 95 | 92 | 6.0 | 12.0 | 0.00 | 0.01 | 0.00 | 60 | 1009.5 |
| 20260902212853 | 95 | 168 | 5.0 | 12.0 | 0.00 | 0.01 | 0.00 | 60 | 1009.5 |
| 20260902212752 | 96 | 85 | 5.0 | 12.0 | 0.00 | 0.01 | 0.00 | 60 | 1009.5 |
| 20260902212652 | 95 | 166 | 6.0 | 12.0 | 0.00 | 0.01 | 0.00 | 60 | 1009.5 |
| 20260902212553 | 96 | 151 | 5.0 | 13.0 | 0.00 | 0.01 | 0.00 | 60 | 1009.5 |
| 20260902212453 | 96 | 193 | 4.0 | 13.0 | 0.00 | 0.01 | 0.00 | 60 | 1009.6 |
| 20260902212353 | 96 | 83 | 4.0 | 13.0 | 0.00 | 0.01 | 0.00 | 60 | 1009.6 |
| 20260902212253 | 96 | 80 | 6.0 | 13.0 | 0.00 | 0.01 | 0.00 | 60 | 1009.6 |
| 20260902212153 | 96 | 138 | 6.0 | 13.0 | 0.00 | 0.01 | 0.00 | 61 | 1009.6 |
| 20260902212052 | 96 | 110 | 6.0 | 13.0 | 0.00 | 0.01 | 0.00 | 60 | 1009.6 |
| 20260902211952 | 96 | 147 | 6.0 | 13.0 | 0.00 | 0.01 | 0.00 | 60 | 1009.5 |
| 20260902211853 | 96 | 149 | 6.0 | 13.0 | 0.00 | 0.01 | 0.00 | 60 | 1009.6 |
| 20260902211753 | 96 | 192 | 7.0 | 13.0 | 0.00 | 0.01 | 0.00 | 60 | 1009.6 |
| 20260902211652 | 96 | 137 | 6.0 | 13.0 | 0.00 | 0.01 | 0.00 | 60 | 1009.6 |
| 20260902211552 | 96 | 216 | 5.0 | 11.0 | 0.00 | 0.01 | 0.00 | 60 | 1009.6 |
| 20260902211454 | 96 | 197 | 5.0 | 11.0 | 0.00 | 0.01 | 0.00 | 60 | 1009.6 |
| 20260902211352 | 96 | 123 | 6.0 | 11.0 | 0.00 | 0.01 | 0.00 | 59 | 1009.6 |
| 20260902211252 | 96 | 120 | 6.0 | 11.0 | 0.00 | 0.01 | 0.00 | 59 | 1009.8 |
| 20260902211154 | 96 | 155 | 5.0 | 11.0 | 0.00 | 0.01 | 0.00 | 59 | 1009.7 |
| 20260902211053 | 96 | 209 | 5.0 | 12.0 | 0.00 | 0.01 | 0.00 | 59 | 1009.8 |
| 20260902210953 | 96 | 212 | 3.0 | 12.0 | 0.00 | 0.01 | 0.00 | 60 | 1009.8 |
| 20260902210854 | 96 | 188 | 3.0 | 12.0 | 0.00 | 0.01 | 0.00 | 60 | 1009.8 |
| 20260902210753 | 96 | 152 | 4.0 | 12.0 | 0.00 | 0.01 | 0.00 | 60 | 1009.8 |
| 20260902210654 | 96 | 230 | 4.0 | 12.0 | 0.00 | 0.01 | 0.00 | 60 | 1009.8 |
| 20260902210551 | 96 | 106 | 4.0 | 12.0 | 0.00 | 0.01 | 0.00 | 60 | 1009.8 |
| 20260902210453 | 96 | 113 | 6.0 | 12.0 | 0.00 | 0.01 | 0.00 | 60 | 1009.8 |
| 20260902210353 | 96 | 195 | 6.0 | 12.0 | 0.00 | 0.01 | 0.00 | 60 | 1009.8 |
| 20260902210253 | 96 | 94 | 6.0 | 12.0 | 0.00 | 0.01 | 0.00 | 60 | 1009.8 |
| 20260902210154 | 96 | 154 | 6.0 | 12.0 | 0.00 | 0.01 | 0.00 | 60 | 1009.8 |
| 20260902210053 | 95 | 61 | 6.0 | 13.0 | 0.00 | 0.01 | 0.00 | 61 | 1009.7 |
| 20260902205951 | 96 | 130 | 6.0 | 13.0 | 0.00 | 0.01 | 0.00 | 60 | 1009.7 |
| 20260902205851 | 96 | 149 | 5.0 | 13.0 | 0.00 | 0.01 | 0.00 | 60 | 1009.8 |
| 20260902205752 | 96 | 157 | 7.0 | 13.0 | 0.00 | 0.01 | 0.00 | 60 | 1009.8 |
| 20260902205653 | 96 | 103 | 7.0 | 13.0 | 0.00 | 0.01 | 0.00 | 61 | 1009.7 |
| 20260902205552 | 95 | 69 | 6.0 | 13.0 | 0.00 | 0.01 | 0.00 | 60 | 1009.7 |
| 20260902205453 | 95 | 145 | 6.0 | 13.0 | 0.00 | 0.01 | 0.00 | 60 | 1009.7 |
| 20260902205352 | 95 | 114 | 7.0 | 13.0 | 0.00 | 0.01 | 0.00 | 60 | 1009.7 |
| 20260902205251 | 95 | 176 | 7.0 | 13.0 | 0.00 | 0.01 | 0.00 | 60 | 1009.7 |
| 20260902205151 | 95 | 145 | 7.0 | 13.0 | 0.00 | 0.01 | 0.00 | 60 | 1009.6 |
| 20260902205053 | 95 | 121 | 6.0 | 13.0 | 0.00 | 0.01 | 0.00 | 60 | 1009.6 |
| 20260902204952 | 95 | 197 | 6.0 | 12.0 | 0.00 | 0.03 | 0.00 | 60 | 1009.6 |
| 20260902204852 | 95 | 149 | 6.0 | 12.0 | 0.00 | 0.03 | 0.00 | 60 | 1009.6 |
| 20260902204751 | 95 | 161 | 5.0 | 12.0 | 0.00 | 0.03 | 0.00 | 61 | 1009.7 |
| 20260902204652 | 95 | 86 | 5.0 | 12.0 | 0.00 | 0.03 | 0.00 | 60 | 1009.6 |
| 20260902204551 | 95 | 121 | 6.0 | 12.0 | 0.00 | 0.03 | 0.00 | 61 | 1009.7 |
| 20260902204451 | 95 | 48 | 6.0 | 12.0 | 0.00 | 0.03 | 0.00 | 60 | 1009.7 |
| 20260902204352 | 95 | 164 | 6.0 | 12.0 | 0.00 | 0.03 | 0.00 | 60 | 1009.8 |
| 20260902204251 | 95 | 213 | 5.0 | 12.0 | 0.00 | 0.03 | 0.00 | 60 | 1009.8 |
| 20260902204152 | 95 | 179 | 6.0 | 12.0 | 0.00 | 0.03 | 0.00 | 59 | 1009.7 |
| 20260902204053 | 95 | 97 | 6.0 | 12.0 | 0.00 | 0.03 | 0.00 | 59 | 1009.7 |
| 20260902203953 | 96 | 172 | 6.0 | 12.0 | 0.00 | 0.03 | 0.00 | 59 | 1009.9 |
| 20260902203852 | 96 | 172 | 7.0 | 12.0 | 0.00 | 0.03 | 0.00 | 58 | 1009.8 |
| 20260902203752 | 96 | 206 | 6.0 | 12.0 | 0.00 | 0.03 | 0.00 | 57 | 1009.8 |
| 20260902203652 | 96 | 169 | 5.0 | 12.0 | 0.00 | 0.04 | 0.00 | 57 | 1009.9 |
| 20260902203551 | 96 | 169 | 5.0 | 12.0 | 0.00 | 0.04 | 0.00 | 57 | 1009.9 |
| 20260902203451 | 96 | 192 | 6.0 | 12.0 | 0.00 | 0.04 | 0.00 | 57 | 1009.9 |
| 20260902203353 | 96 | 192 | 6.0 | 12.0 | 0.00 | 0.04 | 0.00 | 57 | 1010.0 |
| 20260902203252 | 96 | 219 | 6.0 | 12.0 | 0.00 | 0.04 | 0.00 | 56 | 1010.0 |
| 20260902203151 | 96 | 193 | 5.0 | 12.0 | 0.00 | 0.05 | 0.00 | 56 | 1010.0 |
| 20260902203051 | 96 | 121 | 6.0 | 12.0 | 0.00 | 0.05 | 0.00 | 57 | 1010.1 |
| 20260902202953 | 96 | 189 | 6.0 | 12.0 | 0.00 | 0.05 | 0.00 | 57 | 1010.1 |
| 20260902202851 | 96 | 196 | 6.0 | 13.0 | 0.00 | 0.05 | 0.00 | 57 | 1010.1 |
| 20260902202752 | 96 | 175 | 6.0 | 14.0 | 0.00 | 0.05 | 0.00 | 57 | 1010.1 |
| 20260902202652 | 96 | 203 | 5.0 | 14.0 | 0.00 | 0.05 | 0.00 | 57 | 1010.1 |
| 20260902202552 | 96 | 110 | 5.0 | 14.0 | 0.00 | 0.06 | 0.00 | 57 | 1010.1 |
| 20260902202451 | 96 | 224 | 5.0 | 14.0 | 0.00 | 0.06 | 0.00 | 57 | 1010.1 |
| 20260902202351 | 96 | 234 | 6.0 | 14.0 | 0.00 | 0.06 | 0.00 | 56 | 1010.2 |
| 20260902202253 | 96 | 231 | 5.0 | 14.0 | 0.00 | 0.06 | 0.00 | 56 | 1010.1 |
| 20260902202151 | 96 | 209 | 6.0 | 14.0 | 0.00 | 0.06 | 0.00 | 56 | 1010.1 |
| 20260902202051 | 96 | 180 | 9.0 | 14.0 | 0.00 | 0.06 | 0.00 | 56 | 1010.2 |
| 20260902201952 | 97 | 212 | 9.0 | 15.0 | 0.00 | 0.06 | 0.00 | 56 | 1010.2 |
| 20260902201851 | 97 | 186 | 7.0 | 15.0 | 0.00 | 0.06 | 0.00 | 57 | 1010.2 |
| 20260902201752 | 97 | 171 | 4.0 | 15.0 | 0.00 | 0.06 | 0.00 | 57 | 1010.1 |
| 20260902201652 | 97 | 237 | 6.0 | 15.0 | 0.00 | 0.06 | 0.00 | 57 | 1010.1 |
| 20260902201553 | 97 | 224 | 7.0 | 15.0 | 0.00 | 0.06 | 0.00 | 56 | 1010.0 |
| 20260902201451 | 97 | 214 | 6.0 | 15.0 | 0.00 | 0.06 | 0.00 | 56 | 1010.2 |
| 20260902201352 | 97 | 192 | 5.0 | 15.0 | 0.00 | 0.06 | 0.00 | 55 | 1010.1 |
| 20260902201251 | 97 | 259 | 6.0 | 15.0 | 0.00 | 0.06 | 0.00 | 56 | 1010.1 |
| 20260902201150 | 97 | 185 | 8.0 | 16.0 | 0.00 | 0.06 | 0.00 | 55 | 1010.1 |
| 20260902201051 | 97 | 162 | 8.0 | 17.0 | 0.00 | 0.06 | 0.00 | 56 | 1010.1 |
| 20260902200951 | 97 | 125 | 6.0 | 17.0 | 0.00 | 0.06 | 0.00 | 56 | 1010.1 |
| 20260902200852 | 97 | 204 | 6.0 | 17.0 | 0.00 | 0.06 | 0.00 | 55 | 1010.1 |
| 20260902200750 | 98 | 182 | 6.0 | 17.0 | 0.00 | 0.06 | 0.00 | 55 | 1010.1 |
| 20260902200650 | 98 | 190 | 6.0 | 17.0 | 0.00 | 0.06 | 0.00 | 55 | 1010.1 |
| 20260902200553 | 98 | 71 | 6.0 | 17.0 | 0.00 | 0.06 | 0.00 | 55 | 1010.2 |
| 20260902200451 | 97 | 104 | 6.0 | 17.0 | 0.00 | 0.06 | 0.00 | 56 | 1010.1 |
| 20260902200350 | 97 | 189 | 9.0 | 17.0 | 0.00 | 0.06 | 0.00 | 57 | 1010.1 |
| 20260902200251 | 97 | 207 | 12.0 | 17.0 | 0.00 | 0.06 | 0.00 | 56 | 1010.2 |
| 20260902200151 | 97 | 255 | 11.0 | 17.0 | 0.00 | 0.06 | 0.00 | 55 | 1010.2 |
| 20260902200050 | 98 | 261 | 9.0 | 14.0 | 0.00 | 0.06 | 0.00 | 56 | 1010.2 |
| 20260902195950 | 98 | 199 | 8.0 | 14.0 | 0.00 | 0.06 | 0.00 | 55 | 1010.3 |
| 20260902195851 | 98 | 245 | 7.0 | 13.0 | 0.00 | 0.06 | 0.00 | 56 | 1010.2 |
| 20260902195750 | 98 | 213 | 6.0 | 13.0 | 0.00 | 0.06 | 0.00 | 57 | 1010.3 |
| 20260902195651 | 97 | 165 | 5.0 | 13.0 | 0.00 | 0.06 | 0.00 | 57 | 1010.4 |
| 20260902195550 | 97 | 196 | 5.0 | 13.0 | 0.00 | 0.06 | 0.00 | 58 | 1010.3 |
| 20260902195451 | 96 | 219 | 6.0 | 13.0 | 0.00 | 0.06 | 0.00 | 58 | 1010.4 |
| 20260902195351 | 96 | 178 | 6.0 | 13.0 | 0.00 | 0.06 | 0.00 | 58 | 1010.4 |
| 20260902195251 | 96 | 161 | 6.0 | 13.0 | 0.00 | 0.06 | 0.00 | 59 | 1010.5 |
| 20260902195151 | 95 | 134 | 7.0 | 13.0 | 0.00 | 0.06 | 0.00 | 58 | 1010.5 |
| 20260902195051 | 95 | 172 | 7.0 | 13.0 | 0.00 | 0.06 | 0.00 | 59 | 1010.5 |
| 20260902194951 | 95 | 157 | 6.0 | 14.0 | 0.00 | 0.06 | 0.00 | 58 | 1010.5 |
| 20260902194852 | 95 | 164 | 5.0 | 14.0 | 0.00 | 0.06 | 0.00 | 58 | 1010.5 |
| 20260902194751 | 95 | 210 | 7.0 | 14.0 | 0.00 | 0.06 | 0.00 | 57 | 1010.6 |
| 20260902194650 | 95 | 219 | 8.0 | 14.0 | 0.00 | 0.06 | 0.00 | 57 | 1010.6 |
| 20260902194550 | 95 | 237 | 7.0 | 14.0 | 0.00 | 0.06 | 0.00 | 58 | 1010.6 |
| 20260902194451 | 96 | 214 | 7.0 | 14.0 | 0.00 | 0.06 | 0.00 | 58 | 1010.6 |
| 20260902194350 | 96 | 219 | 7.0 | 14.0 | 0.00 | 0.06 | 0.00 | 57 | 1010.6 |
| 20260902194251 | 96 | 233 | 8.0 | 14.0 | 0.00 | 0.06 | 0.00 | 58 | 1010.7 |
| 20260902194152 | 96 | 234 | 8.0 | 14.0 | 0.00 | 0.06 | 0.00 | 58 | 1010.8 |
| 20260902194050 | 96 | 230 | 8.0 | 14.0 | 0.00 | 0.06 | 0.00 | 58 | 1010.7 |
| 20260902193950 | 96 | 244 | 8.0 | 13.0 | 0.00 | 0.06 | 0.00 | 57 | 1010.7 |
| 20260902193850 | 96 | 233 | 7.0 | 13.0 | 0.00 | 0.06 | 0.00 | 57 | 1010.7 |
| 20260902193752 | 96 | 216 | 6.0 | 13.0 | 0.00 | 0.06 | 0.00 | 56 | 1010.7 |
| 20260902193650 | 97 | 203 | 7.0 | 13.0 | 0.00 | 0.06 | 0.00 | 56 | 1010.7 |
| 20260902193550 | 97 | 248 | 9.0 | 13.0 | 0.00 | 0.06 | 0.00 | 55 | 1010.8 |
| 20260902193450 | 98 | 255 | 9.0 | 13.0 | 0.00 | 0.06 | 0.00 | 55 | 1010.8 |
| 20260902193350 | 98 | 255 | 8.0 | 13.0 | 0.00 | 0.06 | 0.00 | 55 | 1010.8 |
| 20260902193251 | 98 | 226 | 6.0 | 13.0 | 0.00 | 0.06 | 0.00 | 56 | 1010.8 |
| 20260902193152 | 97 | 189 | 5.0 | 13.0 | 0.00 | 0.06 | 0.00 | 57 | 1010.8 |
| 20260902193052 | 97 | 209 | 5.0 | 13.0 | 0.00 | 0.06 | 0.00 | 57 | 1010.9 |
| 20260902192951 | 96 | 261 | 8.0 | 13.0 | 0.00 | 0.06 | 0.00 | 59 | 1010.9 |
| 20260902192850 | 96 | 261 | 8.0 | 13.0 | 0.00 | 0.06 | 0.00 | 59 | 1011.0 |
| 20260902192751 | 96 | 261 | 8.0 | 13.0 | 0.00 | 0.06 | 0.00 | 59 | 1010.9 |
| 20260902192650 | 96 | 261 | 8.0 | 13.0 | 0.00 | 0.06 | 0.00 | 59 | 1011.0 |
| 20260902192550 | 96 | 247 | 8.0 | 12.0 | 0.00 | 0.06 | 0.00 | 59 | 1011.0 |
| 20260902192450 | 95 | 257 | 7.0 | 12.0 | 0.00 | 0.06 | 0.00 | 59 | 1011.1 |
| 20260902192351 | 95 | 227 | 8.0 | 12.0 | 0.00 | 0.06 | 0.00 | 59 | 1011.0 |
| 20260902192250 | 95 | 234 | 7.0 | 12.0 | 0.00 | 0.06 | 0.00 | 59 | 1011.0 |
| 20260902192149 | 95 | 196 | 6.0 | 13.0 | 0.00 | 0.06 | 0.00 | 60 | 1011.0 |
| 20260902192050 | 95 | 250 | 5.0 | 14.0 | 0.00 | 0.06 | 0.00 | 60 | 1011.0 |
| 20260902191949 | 95 | 237 | 5.0 | 14.0 | 0.00 | 0.06 | 0.00 | 60 | 1011.0 |
| 20260902191850 | 95 | 210 | 6.0 | 19.0 | 0.00 | 0.06 | 0.00 | 61 | 1011.0 |
| 20260902191749 | 94 | 135 | 6.0 | 19.0 | 0.00 | 0.06 | 0.00 | 61 | 1011.0 |
| 20260902191650 | 94 | 248 | 6.0 | 19.0 | 0.00 | 0.06 | 0.00 | 61 | 1011.2 |
| 20260902191550 | 94 | 254 | 8.0 | 19.0 | 0.00 | 0.06 | 0.00 | 61 | 1011.2 |
| 20260902191449 | 94 | 234 | 8.0 | 19.0 | 0.00 | 0.06 | 0.00 | 62 | 1011.1 |
| 20260902191351 | 94 | 237 | 8.0 | 19.0 | 0.00 | 0.06 | 0.00 | 62 | 1011.2 |
| 20260902191250 | 94 | 248 | 10.0 | 19.0 | 0.00 | 0.06 | 0.00 | 62 | 1011.1 |
| 20260902191149 | 94 | 203 | 11.0 | 19.0 | 0.00 | 0.06 | 0.00 | 62 | 1011.2 |
| 20260902191050 | 94 | 233 | 11.0 | 19.0 | 0.00 | 0.06 | 0.00 | 62 | 1011.1 |
| 20260902190949 | 94 | 254 | 9.0 | 19.0 | 0.00 | 0.06 | 0.00 | 62 | 1011.1 |
| 20260902190849 | 94 | 250 | 6.0 | 13.0 | 0.00 | 0.06 | 0.00 | 62 | 1011.1 |
| 20260902190749 | 94 | 262 | 7.0 | 13.0 | 0.00 | 0.06 | 0.00 | 62 | 1011.2 |
| 20260902190651 | 94 | 286 | 7.0 | 13.0 | 0.00 | 0.06 | 0.00 | 62 | 1011.1 |
| 20260902190549 | 94 | 262 | 7.0 | 13.0 | 0.00 | 0.06 | 0.00 | 62 | 1011.1 |
| 20260902190449 | 94 | 243 | 6.0 | 12.0 | 0.00 | 0.06 | 0.00 | 62 | 1011.2 |
| 20260902190351 | 94 | 240 | 5.0 | 12.0 | 0.00 | 0.06 | 0.00 | 63 | 1011.2 |
| 20260902190249 | 93 | 217 | 6.0 | 12.0 | 0.00 | 0.06 | 0.00 | 63 | 1011.1 |
| 20260902190150 | 93 | 237 | 7.0 | 12.0 | 0.00 | 0.06 | 0.00 | 63 | 1011.2 |
| 20260902190050 | 93 | 243 | 7.0 | 12.0 | 0.00 | 0.06 | 0.00 | 63 | 1011.1 |
| 20260902185951 | 93 | 228 | 8.0 | 14.0 | 0.00 | 0.06 | 0.00 | 63 | 1011.1 |
| 20260902185849 | 93 | 213 | 7.0 | 14.0 | 0.00 | 0.06 | 0.00 | 63 | 1011.1 |
| 20260902185749 | 94 | 238 | 7.0 | 14.0 | 0.00 | 0.06 | 0.00 | 63 | 1011.1 |
| 20260902185651 | 94 | 241 | 7.0 | 14.0 | 0.00 | 0.06 | 0.00 | 63 | 1011.2 |
| 20260902185548 | 94 | 238 | 6.0 | 14.0 | 0.00 | 0.06 | 0.00 | 64 | 1011.2 |
| 20260902185449 | 93 | 223 | 6.0 | 14.0 | 0.00 | 0.06 | 0.00 | 64 | 1011.2 |
| 20260902185349 | 93 | 227 | 6.0 | 14.0 | 0.00 | 0.06 | 0.00 | 64 | 1011.1 |
| 20260902185251 | 93 | 247 | 7.0 | 14.0 | 0.00 | 0.06 | 0.00 | 64 | 1011.2 |
| 20260902185149 | 93 | 244 | 9.0 | 14.0 | 0.00 | 0.06 | 0.00 | 64 | 1011.2 |
| 20260902185049 | 93 | 238 | 10.0 | 14.0 | 0.00 | 0.06 | 0.00 | 64 | 1011.3 |
| 20260902184950 | 93 | 234 | 8.0 | 13.0 | 0.00 | 0.06 | 0.00 | 63 | 1011.2 |
| 20260902184849 | 94 | 261 | 7.0 | 13.0 | 0.00 | 0.06 | 0.00 | 64 | 1011.3 |
| 20260902184749 | 93 | 248 | 7.0 | 13.0 | 0.00 | 0.06 | 0.00 | 64 | 1011.3 |
| 20260902184649 | 93 | 238 | 8.0 | 13.0 | 0.00 | 0.06 | 0.00 | 64 | 1011.4 |
| 20260902184550 | 93 | 227 | 9.0 | 12.0 | 0.00 | 0.06 | 0.00 | 64 | 1011.4 |
| 20260902184448 | 93 | 220 | 8.0 | 12.0 | 0.00 | 0.06 | 0.00 | 64 | 1011.3 |
| 20260902184348 | 93 | 248 | 7.0 | 12.0 | 0.00 | 0.06 | 0.00 | 64 | 1011.4 |
| 20260902184250 | 93 | 228 | 7.0 | 12.0 | 0.00 | 0.06 | 0.00 | 64 | 1011.3 |
| 20260902184148 | 93 | 244 | 7.0 | 12.0 | 0.00 | 0.06 | 0.00 | 64 | 1011.4 |
| 20260902184048 | 93 | 213 | 7.0 | 12.0 | 0.00 | 0.06 | 0.00 | 64 | 1011.4 |
| 20260902183948 | 93 | 237 | 7.0 | 12.0 | 0.00 | 0.06 | 0.00 | 65 | 1011.4 |
| 20260902183849 | 93 | 250 | 6.0 | 13.0 | 0.00 | 0.06 | 0.00 | 65 | 1011.5 |
| 20260902183748 | 93 | 217 | 6.0 | 13.0 | 0.00 | 0.06 | 0.00 | 66 | 1011.5 |
| 20260902183649 | 93 | 217 | 5.0 | 13.0 | 0.00 | 0.06 | 0.00 | 66 | 1011.6 |
| 20260902183550 | 92 | 210 | 6.0 | 13.0 | 0.00 | 0.06 | 0.00 | 66 | 1011.6 |
| 20260902183448 | 92 | 209 | 6.0 | 13.0 | 0.00 | 0.06 | 0.00 | 66 | 1011.6 |
| 20260902183348 | 92 | 243 | 7.0 | 13.0 | 0.00 | 0.06 | 0.00 | 66 | 1011.5 |
| 20260902183248 | 92 | 251 | 6.0 | 13.0 | 0.00 | 0.06 | 0.00 | 66 | 1011.6 |
| 20260902183149 | 92 | 228 | 6.0 | 13.0 | 0.00 | 0.06 | 0.00 | 67 | 1011.6 |
| 20260902183048 | 92 | 237 | 8.0 | 13.0 | 0.00 | 0.06 | 0.00 | 66 | 1011.6 |
| 20260902182949 | 92 | 230 | 8.0 | 14.0 | 0.00 | 0.06 | 0.00 | 66 | 1011.6 |
| 20260902182849 | 92 | 214 | 6.0 | 14.0 | 0.00 | 0.06 | 0.00 | 67 | 1011.7 |
| 20260902182749 | 92 | 245 | 7.0 | 14.0 | 0.00 | 0.06 | 0.00 | 67 | 1011.6 |
| 20260902182648 | 92 | 238 | 7.0 | 14.0 | 0.00 | 0.06 | 0.00 | 67 | 1011.7 |
| 20260902182548 | 92 | 243 | 6.0 | 14.0 | 0.00 | 0.06 | 0.00 | 67 | 1011.8 |
| 20260902182451 | 91 | 233 | 6.0 | 14.0 | 0.00 | 0.06 | 0.00 | 67 | 1011.7 |
| 20260902182348 | 91 | 228 | 7.0 | 14.0 | 0.00 | 0.06 | 0.00 | 67 | 1011.7 |
| 20260902182249 | 91 | 271 | 8.0 | 14.0 | 0.00 | 0.06 | 0.00 | 66 | 1011.8 |
| 20260902182149 | 91 | 233 | 9.0 | 14.0 | 0.00 | 0.06 | 0.00 | 66 | 1011.8 |
| 20260902182048 | 91 | 240 | 8.0 | 14.0 | 0.00 | 0.06 | 0.00 | 66 | 1011.9 |
| 20260902181948 | 91 | 269 | 6.0 | 12.0 | 0.00 | 0.06 | 0.00 | 67 | 1011.8 |
| 20260902181848 | 92 | 306 | 6.0 | 12.0 | 0.00 | 0.06 | 0.00 | 67 | 1011.9 |
| 20260902181749 | 92 | 310 | 6.0 | 12.0 | 0.00 | 0.06 | 0.00 | 67 | 1011.8 |
| 20260902181648 | 91 | 271 | 6.0 | 12.0 | 0.00 | 0.06 | 0.00 | 68 | 1012.0 |
| 20260902181548 | 91 | 233 | 7.0 | 12.0 | 0.00 | 0.06 | 0.00 | 68 | 1011.8 |
| 20260902181450 | 91 | 178 | 8.0 | 12.0 | 0.00 | 0.06 | 0.00 | 69 | 1012.0 |
| 20260902181349 | 91 | 192 | 7.0 | 14.0 | 0.00 | 0.06 | 0.00 | 69 | 1012.0 |
| 20260902181249 | 91 | 257 | 6.0 | 14.0 | 0.00 | 0.06 | 0.00 | 69 | 1012.0 |
| 20260902181148 | 91 | 209 | 7.0 | 14.0 | 0.00 | 0.06 | 0.00 | 69 | 1012.1 |
| 20260902181049 | 91 | 240 | 7.0 | 14.0 | 0.00 | 0.06 | 0.00 | 69 | 1012.1 |
| 20260902180948 | 91 | 238 | 6.0 | 14.0 | 0.00 | 0.06 | 0.00 | 68 | 1012.1 |
| 20260902180847 | 91 | 245 | 6.0 | 14.0 | 0.00 | 0.06 | 0.00 | 68 | 1012.1 |
| 20260902180749 | 91 | 288 | 6.0 | 14.0 | 0.00 | 0.06 | 0.00 | 68 | 1012.2 |
| 20260902180649 | 91 | 261 | 7.0 | 14.0 | 0.00 | 0.06 | 0.00 | 68 | 1012.2 |
| 20260902180549 | 91 | 244 | 9.0 | 14.0 | 0.00 | 0.06 | 0.00 | 69 | 1012.3 |
| 20260902180449 | 91 | 238 | 10.0 | 14.0 | 0.00 | 0.06 | 0.00 | 68 | 1012.2 |
| 20260902180348 | 91 | 227 | 10.0 | 14.0 | 0.00 | 0.06 | 0.00 | 68 | 1012.3 |
| 20260902180248 | 91 | 234 | 9.0 | 13.0 | 0.00 | 0.06 | 0.00 | 68 | 1012.3 |
| 20260902180147 | 91 | 212 | 9.0 | 13.0 | 0.00 | 0.06 | 0.00 | 68 | 1012.3 |
| 20260902180051 | 91 | 227 | 8.0 | 13.0 | 0.00 | 0.06 | 0.00 | 68 | 1012.3 |
| 20260902175947 | 91 | 269 | 7.0 | 13.0 | 0.00 | 0.06 | 0.00 | 68 | 1012.3 |
| 20260902175847 | 91 | 223 | 7.0 | 13.0 | 0.00 | 0.06 | 0.00 | 68 | 1012.4 |
| 20260902175749 | 91 | 278 | 6.0 | 13.0 | 0.00 | 0.06 | 0.00 | 68 | 1012.4 |
| 20260902175649 | 91 | 257 | 6.0 | 13.0 | 0.00 | 0.06 | 0.00 | 68 | 1012.5 |
| 20260902175548 | 91 | 233 | 8.0 | 13.0 | 0.00 | 0.06 | 0.00 | 68 | 1012.5 |
| 20260902175447 | 91 | 206 | 9.0 | 13.0 | 0.00 | 0.06 | 0.00 | 68 | 1012.4 |
| 20260902175348 | 91 | 226 | 9.0 | 13.0 | 0.00 | 0.06 | 0.00 | 68 | 1012.5 |
| 20260902175247 | 90 | 243 | 8.0 | 12.0 | 0.00 | 0.06 | 0.00 | 68 | 1012.5 |
| 20260902175147 | 90 | 227 | 8.0 | 12.0 | 0.00 | 0.06 | 0.00 | 68 | 1012.5 |
| 20260902175047 | 91 | 271 | 8.0 | 13.0 | 0.00 | 0.06 | 0.00 | 69 | 1012.6 |
| 20260902174948 | 91 | 265 | 7.0 | 13.0 | 0.00 | 0.06 | 0.00 | 69 | 1012.6 |
| 20260902174848 | 91 | 302 | 6.0 | 13.0 | 0.00 | 0.06 | 0.00 | 69 | 1012.6 |
| 20260902174747 | 91 | 272 | 7.0 | 13.0 | 0.00 | 0.06 | 0.00 | 69 | 1012.5 |
| 20260902174648 | 91 | 261 | 9.0 | 13.0 | 0.00 | 0.06 | 0.00 | 68 | 1012.6 |
| 20260902174547 | 91 | 240 | 9.0 | 13.0 | 0.00 | 0.06 | 0.00 | 68 | 1012.6 |
| 20260902174447 | 91 | 262 | 7.0 | 15.0 | 0.00 | 0.06 | 0.00 | 69 | 1012.7 |
| 20260902174348 | 91 | 238 | 6.0 | 15.0 | 0.00 | 0.06 | 0.00 | 69 | 1012.7 |
| 20260902174248 | 91 | 213 | 7.0 | 15.0 | 0.00 | 0.06 | 0.00 | 69 | 1012.7 |
| 20260902174147 | 91 | 269 | 8.0 | 15.0 | 0.00 | 0.06 | 0.00 | 69 | 1012.7 |
| 20260902174047 | 91 | 235 | 7.0 | 15.0 | 0.00 | 0.06 | 0.00 | 69 | 1012.7 |
| 20260902173947 | 90 | 285 | 8.0 | 15.0 | 0.00 | 0.06 | 0.00 | 70 | 1012.7 |
| 20260902173847 | 90 | 243 | 9.0 | 15.0 | 0.00 | 0.06 | 0.00 | 70 | 1012.7 |
| 20260902173747 | 90 | 226 | 9.0 | 15.0 | 0.00 | 0.06 | 0.00 | 70 | 1012.7 |
| 20260902173648 | 90 | 235 | 10.0 | 15.0 | 0.00 | 0.06 | 0.00 | 69 | 1012.8 |
| 20260902173548 | 90 | 258 | 11.0 | 15.0 | 0.00 | 0.06 | 0.00 | 69 | 1012.8 |
| 20260902173448 | 90 | 245 | 9.0 | 16.0 | 0.00 | 0.06 | 0.00 | 69 | 1012.8 |
| 20260902173348 | 90 | 195 | 8.0 | 16.0 | 0.00 | 0.06 | 0.00 | 70 | 1012.8 |
| 20260902173248 | 90 | 254 | 6.0 | 16.0 | 0.00 | 0.06 | 0.00 | 70 | 1012.8 |
| 20260902173147 | 90 | 234 | 7.0 | 16.0 | 0.00 | 0.06 | 0.00 | 70 | 1012.8 |
| 20260902173047 | 90 | 224 | 8.0 | 16.0 | 0.00 | 0.06 | 0.00 | 70 | 1012.9 |
| 20260902172949 | 90 | 231 | 9.0 | 17.0 | 0.00 | 0.06 | 0.00 | 70 | 1012.8 |
| 20260902172848 | 90 | 199 | 10.0 | 17.0 | 0.00 | 0.06 | 0.00 | 70 | 1012.9 |
| 20260902172747 | 90 | 247 | 10.0 | 17.0 | 0.00 | 0.06 | 0.00 | 70 | 1012.8 |
| 20260902172647 | 89 | 231 | 11.0 | 17.0 | 0.00 | 0.06 | 0.00 | 71 | 1012.8 |
| 20260902172549 | 89 | 219 | 8.0 | 17.0 | 0.00 | 0.06 | 0.00 | 71 | 1012.9 |
| 20260902172447 | 89 | 235 | 8.0 | 17.0 | 0.00 | 0.06 | 0.00 | 71 | 1012.9 |
| 20260902172347 | 89 | 231 | 9.0 | 17.0 | 0.00 | 0.06 | 0.00 | 71 | 1013.0 |
| 20260902172248 | 89 | 274 | 11.0 | 17.0 | 0.00 | 0.06 | 0.00 | 72 | 1012.9 |
| 20260902172147 | 89 | 252 | 12.0 | 17.0 | 0.00 | 0.06 | 0.00 | 71 | 1012.9 |
| 20260902172047 | 89 | 214 | 13.0 | 17.0 | 0.00 | 0.06 | 0.00 | 71 | 1013.0 |
| 20260902171949 | 89 | 240 | 12.0 | 17.0 | 0.00 | 0.06 | 0.00 | 71 | 1013.0 |
| 20260902171847 | 89 | 233 | 12.0 | 17.0 | 0.00 | 0.06 | 0.00 | 71 | 1013.0 |
| 20260902171747 | 89 | 212 | 11.0 | 17.0 | 0.00 | 0.06 | 0.00 | 72 | 1013.1 |
| 20260902171648 | 89 | 250 | 11.0 | 17.0 | 0.00 | 0.06 | 0.00 | 72 | 1013.0 |
| 20260902171549 | 89 | 240 | 11.0 | 17.0 | 0.00 | 0.06 | 0.00 | 72 | 1013.0 |
| 20260902171448 | 89 | 206 | 9.0 | 17.0 | 0.00 | 0.06 | 0.00 | 73 | 1013.0 |
| 20260902171347 | 89 | 243 | 9.0 | 14.0 | 0.00 | 0.06 | 0.00 | 73 | 1013.1 |
| 20260902171247 | 89 | 219 | 10.0 | 14.0 | 0.00 | 0.06 | 0.00 | 74 | 1013.2 |
| 20260902171147 | 89 | 169 | 9.0 | 12.0 | 0.00 | 0.06 | 0.00 | 75 | 1013.2 |
| 20260902171046 | 89 | 250 | 9.0 | 14.0 | 0.00 | 0.06 | 0.00 | 75 | 1013.2 |
| 20260902170946 | 89 | 227 | 7.0 | 14.0 | 0.00 | 0.06 | 0.00 | 75 | 1013.2 |
| 20260902170847 | 88 | 272 | 6.0 | 14.0 | 0.00 | 0.06 | 0.00 | 75 | 1013.2 |
| 20260902170747 | 88 | 193 | 8.0 | 14.0 | 0.00 | 0.06 | 0.00 | 75 | 1013.2 |
| 20260902170646 | 88 | 243 | 7.0 | 14.0 | 0.00 | 0.06 | 0.00 | 75 | 1013.1 |
| 20260902170546 | 88 | 247 | 6.0 | 14.0 | 0.00 | 0.06 | 0.00 | 76 | 1013.1 |
| 20260902170448 | 88 | 237 | 6.0 | 14.0 | 0.00 | 0.06 | 0.00 | 76 | 1013.2 |
| 20260902170346 | 88 | 240 | 6.0 | 14.0 | 0.00 | 0.06 | 0.00 | 76 | 1013.3 |
| 20260902170246 | 88 | 298 | 7.0 | 14.0 | 0.00 | 0.06 | 0.00 | 76 | 1013.2 |
| 20260902170148 | 88 | 290 | 8.0 | 14.0 | 0.00 | 0.06 | 0.00 | 76 | 1013.2 |
| 20260902170047 | 88 | 231 | 7.0 | 15.0 | 0.00 | 0.06 | 0.00 | 76 | 1013.3 |
| 20260902165946 | 88 | 250 | 6.0 | 15.0 | 0.00 | 0.06 | 0.00 | 76 | 1013.3 |
| 20260902165847 | 88 | 257 | 6.0 | 15.0 | 0.00 | 0.06 | 0.00 | 76 | 1013.3 |
| 20260902165747 | 88 | 262 | 6.0 | 15.0 | 0.00 | 0.06 | 0.00 | 76 | 1013.3 |
| 20260902165649 | 88 | 320 | 7.0 | 15.0 | 0.00 | 0.06 | 0.00 | 76 | 1013.3 |
| 20260902165546 | 88 | 288 | 7.0 | 15.0 | 0.00 | 0.06 | 0.00 | 76 | 1013.4 |
| 20260902165447 | 88 | 298 | 6.0 | 15.0 | 0.00 | 0.06 | 0.00 | 77 | 1013.4 |
| 20260902165346 | 88 | 286 | 6.0 | 15.0 | 0.00 | 0.06 | 0.00 | 77 | 1013.4 |
| 20260902165246 | 88 | 296 | 7.0 | 15.0 | 0.00 | 0.06 | 0.00 | 76 | 1013.3 |
| 20260902165147 | 88 | 299 | 7.0 | 15.0 | 0.00 | 0.06 | 0.00 | 77 | 1013.3 |
| 20260902165047 | 88 | 278 | 8.0 | 13.0 | 0.00 | 0.06 | 0.00 | 76 | 1013.3 |
| 20260902164946 | 88 | 257 | 9.0 | 14.0 | 0.00 | 0.06 | 0.00 | 77 | 1013.4 |
| 20260902164846 | 88 | 255 | 7.0 | 14.0 | 0.00 | 0.06 | 0.00 | 77 | 1013.3 |
| 20260902164749 | 88 | 204 | 5.0 | 14.0 | 0.00 | 0.06 | 0.00 | 77 | 1013.4 |
| 20260902164646 | 88 | 264 | 5.0 | 14.0 | 0.00 | 0.06 | 0.00 | 77 | 1013.3 |
| 20260902164545 | 88 | 240 | 7.0 | 14.0 | 0.00 | 0.06 | 0.00 | 78 | 1013.4 |
| 20260902164447 | 88 | 233 | 8.0 | 14.0 | 0.00 | 0.06 | 0.00 | 78 | 1013.3 |
| 20260902164345 | 87 | 247 | 9.0 | 14.0 | 0.00 | 0.06 | 0.00 | 77 | 1013.4 |
| 20260902164246 | 87 | 234 | 8.0 | 14.0 | 0.00 | 0.06 | 0.00 | 78 | 1013.4 |
| 20260902164146 | 87 | 281 | 9.0 | 14.0 | 0.00 | 0.06 | 0.00 | 78 | 1013.4 |
| 20260902164047 | 87 | 209 | 11.0 | 14.0 | 0.00 | 0.06 | 0.00 | 78 | 1013.4 |
| 20260902163947 | 87 | 230 | 10.0 | 14.0 | 0.00 | 0.06 | 0.00 | 78 | 1013.4 |
| 20260902163846 | 87 | 275 | 7.0 | 13.0 | 0.00 | 0.06 | 0.00 | 78 | 1013.5 |
| 20260902163747 | 87 | 250 | 5.0 | 13.0 | 0.00 | 0.06 | 0.00 | 79 | 1013.5 |
| 20260902163646 | 87 | 274 | 6.0 | 13.0 | 0.00 | 0.06 | 0.00 | 79 | 1013.4 |
| 20260902163548 | 87 | 268 | 7.0 | 13.0 | 0.00 | 0.06 | 0.00 | 79 | 1013.4 |
| 20260902163448 | 87 | 324 | 6.0 | 13.0 | 0.00 | 0.06 | 0.00 | 79 | 1013.4 |
| 20260902163347 | 87 | 238 | 6.0 | 13.0 | 0.00 | 0.06 | 0.00 | 79 | 1013.5 |
| 20260902163245 | 87 | 257 | 8.0 | 13.0 | 0.00 | 0.06 | 0.00 | 79 | 1013.5 |
| 20260902163146 | 87 | 286 | 6.0 | 13.0 | 0.00 | 0.06 | 0.00 | 79 | 1013.4 |
| 20260902163047 | 87 | 237 | 5.0 | 13.0 | 0.00 | 0.06 | 0.00 | 79 | 1013.5 |
| 20260902162947 | 87 | 290 | 6.0 | 14.0 | 0.00 | 0.06 | 0.00 | 79 | 1013.5 |
| 20260902162846 | 87 | 344 | 7.0 | 14.0 | 0.00 | 0.06 | 0.00 | 79 | 1013.4 |
| 20260902162747 | 87 | 272 | 9.0 | 14.0 | 0.00 | 0.06 | 0.00 | 79 | 1013.5 |
| 20260902162647 | 87 | 251 | 10.0 | 14.0 | 0.00 | 0.06 | 0.00 | 79 | 1013.6 |
| 20260902162546 | 87 | 251 | 10.0 | 14.0 | 0.00 | 0.06 | 0.00 | 79 | 1013.5 |
| 20260902162447 | 87 | 251 | 10.0 | 14.0 | 0.00 | 0.06 | 0.00 | 79 | 1013.5 |
| 20260902162347 | 87 | 251 | 10.0 | 14.0 | 0.00 | 0.06 | 0.00 | 79 | 1013.5 |
| 20260902162246 | 87 | 251 | 10.0 | 14.0 | 0.00 | 0.06 | 0.00 | 79 | 1013.5 |
| 20260902162133 | 87 | 238 | 10.0 | 14.0 | 0.00 | 0.06 | 0.00 | 79 | 1013.5 |
| 20260902162032 | 87 | 296 | 7.0 | 14.0 | 0.00 | 0.06 | 0.00 | 79 | 1013.5 |
| 20260902161931 | 87 | 314 | 8.0 | 14.0 | 0.00 | 0.06 | 0.00 | 79 | 1013.5 |
| 20260902161831 | 87 | 262 | 9.0 | 14.0 | 0.00 | 0.06 | 0.00 | 79 | 1013.4 |
| 20260902161732 | 87 | 254 | 9.0 | 15.0 | 0.00 | 0.06 | 0.00 | 79 | 1013.4 |
| 20260902161631 | 87 | 278 | 9.0 | 15.0 | 0.00 | 0.06 | 0.00 | 79 | 1013.5 |
| 20260902161532 | 87 | 248 | 8.0 | 15.0 | 0.00 | 0.06 | 0.00 | 79 | 1013.5 |
| 20260902161431 | 87 | 283 | 8.0 | 15.0 | 0.00 | 0.06 | 0.00 | 79 | 1013.4 |
| 20260902161331 | 87 | 209 | 9.0 | 15.0 | 0.00 | 0.06 | 0.00 | 79 | 1013.5 |
| 20260902161232 | 87 | 243 | 8.0 | 15.0 | 0.00 | 0.06 | 0.00 | 79 | 1013.5 |
| 20260902161132 | 87 | 247 | 7.0 | 15.0 | 0.00 | 0.06 | 0.00 | 79 | 1013.4 |
| 20260902161032 | 87 | 300 | 9.0 | 16.0 | 0.00 | 0.06 | 0.00 | 79 | 1013.5 |
| 20260902160931 | 87 | 258 | 9.0 | 16.0 | 0.00 | 0.06 | 0.00 | 79 | 1013.5 |
| 20260902160831 | 87 | 231 | 8.0 | 16.0 | 0.00 | 0.06 | 0.00 | 79 | 1013.5 |
| 20260902160732 | 87 | 281 | 7.0 | 16.0 | 0.00 | 0.06 | 0.00 | 79 | 1013.5 |
| 20260902160632 | 87 | 285 | 7.0 | 16.0 | 0.00 | 0.06 | 0.00 | 80 | 1013.5 |
| 20260902160533 | 87 | 231 | 7.0 | 16.0 | 0.00 | 0.06 | 0.00 | 80 | 1013.5 |
| 20260902160432 | 87 | 247 | 8.0 | 16.0 | 0.00 | 0.06 | 0.00 | 80 | 1013.5 |
| 20260902160332 | 87 | 326 | 8.0 | 16.0 | 0.00 | 0.06 | 0.00 | 80 | 1013.5 |
| 20260902160231 | 87 | 234 | 9.0 | 16.0 | 0.00 | 0.06 | 0.00 | 80 | 1013.4 |
| 20260902160132 | 87 | 252 | 10.0 | 16.0 | 0.00 | 0.06 | 0.00 | 80 | 1013.5 |
| 20260902160032 | 87 | 264 | 9.0 | 14.0 | 0.00 | 0.06 | 0.00 | 80 | 1013.4 |
| 20260902155932 | 87 | 241 | 9.0 | 14.0 | 0.00 | 0.06 | 0.00 | 80 | 1013.4 |
| 20260902155831 | 87 | 269 | 9.0 | 14.0 | 0.00 | 0.06 | 0.00 | 80 | 1013.4 |
| 20260902155730 | 87 | 286 | 9.0 | 14.0 | 0.00 | 0.06 | 0.00 | 80 | 1013.4 |
| 20260902155633 | 87 | 241 | 8.0 | 14.0 | 0.00 | 0.06 | 0.00 | 80 | 1013.5 |
| 20260902155531 | 87 | 268 | 8.0 | 14.0 | 0.00 | 0.06 | 0.00 | 80 | 1013.4 |
| 20260902155431 | 87 | 305 | 7.0 | 14.0 | 0.00 | 0.06 | 0.00 | 81 | 1013.4 |
| 20260902155332 | 87 | 279 | 7.0 | 13.0 | 0.00 | 0.06 | 0.00 | 81 | 1013.3 |
| 20260902155231 | 86 | 299 | 9.0 | 13.0 | 0.00 | 0.06 | 0.00 | 81 | 1013.4 |
| 20260902155131 | 87 | 281 | 6.0 | 13.0 | 0.00 | 0.06 | 0.00 | 81 | 1013.3 |
| 20260902155031 | 87 | 250 | 7.0 | 13.0 | 0.00 | 0.06 | 0.00 | 81 | 1013.3 |
| 20260902154931 | 87 | 276 | 9.0 | 13.0 | 0.00 | 0.06 | 0.00 | 81 | 1013.3 |
| 20260902154832 | 87 | 324 | 8.0 | 12.0 | 0.00 | 0.06 | 0.00 | 81 | 1013.3 |
| 20260902154730 | 87 | 243 | 6.0 | 12.0 | 0.00 | 0.06 | 0.00 | 81 | 1013.3 |
| 20260902154632 | 87 | 247 | 6.0 | 12.0 | 0.00 | 0.06 | 0.00 | 81 | 1013.2 |
| 20260902154532 | 87 | 245 | 5.0 | 12.0 | 0.00 | 0.06 | 0.00 | 82 | 1013.3 |
| 20260902154432 | 86 | 189 | 6.0 | 15.0 | 0.00 | 0.06 | 0.00 | 82 | 1013.3 |
| 20260902154334 | 86 | 203 | 7.0 | 16.0 | 0.00 | 0.06 | 0.00 | 82 | 1013.3 |
| 20260902154232 | 86 | 171 | 7.0 | 16.0 | 0.00 | 0.06 | 0.00 | 82 | 1013.3 |
| 20260902154130 | 86 | 206 | 7.0 | 20.0 | 0.00 | 0.06 | 0.00 | 82 | 1013.3 |
| 20260902154031 | 86 | 203 | 7.0 | 20.0 | 0.00 | 0.06 | 0.00 | 82 | 1013.3 |
| 20260902153932 | 86 | 209 | 6.0 | 20.0 | 0.00 | 0.06 | 0.00 | 82 | 1013.2 |
| 20260902153832 | 86 | 214 | 6.0 | 20.0 | 0.00 | 0.06 | 0.00 | 82 | 1013.3 |
| 20260902153731 | 86 | 245 | 6.0 | 20.0 | 0.00 | 0.06 | 0.00 | 82 | 1013.2 |
| 20260902153632 | 86 | 202 | 9.0 | 20.0 | 0.00 | 0.06 | 0.00 | 82 | 1013.3 |
| 20260902153532 | 85 | 200 | 11.0 | 20.0 | 0.00 | 0.06 | 0.00 | 82 | 1013.3 |
| 20260902153432 | 86 | 213 | 13.0 | 20.0 | 0.00 | 0.06 | 0.00 | 82 | 1013.3 |
| 20260902153331 | 86 | 203 | 12.0 | 20.0 | 0.00 | 0.06 | 0.00 | 82 | 1013.4 |
| 20260902153232 | 86 | 183 | 11.0 | 20.0 | 0.00 | 0.06 | 0.00 | 82 | 1013.3 |
| 20260902153131 | 86 | 169 | 11.0 | 16.0 | 0.00 | 0.06 | 0.00 | 82 | 1013.3 |
| 20260902153031 | 86 | 159 | 10.0 | 16.0 | 0.00 | 0.06 | 0.00 | 82 | 1013.2 |
| 20260902152932 | 86 | 125 | 9.0 | 16.0 | 0.00 | 0.06 | 0.00 | 82 | 1013.3 |
| 20260902152831 | 85 | 145 | 7.0 | 14.0 | 0.00 | 0.06 | 0.00 | 83 | 1013.3 |
| 20260902152731 | 85 | 178 | 5.0 | 14.0 | 0.00 | 0.06 | 0.00 | 82 | 1013.3 |
| 20260902152633 | 85 | 189 | 6.0 | 14.0 | 0.00 | 0.06 | 0.00 | 82 | 1013.2 |
| 20260902152526 | 85 | 188 | 6.0 | 14.0 | 0.00 | 0.06 | 0.00 | 83 | 1013.4 |
| 20260902152424 | 85 | 142 | 6.0 | 15.0 | 0.00 | 0.06 | 0.00 | 83 | 1013.2 |
| 20260902152324 | 85 | 178 | 7.0 | 15.0 | 0.00 | 0.06 | 0.00 | 83 | 1013.3 |
| 20260902152221 | 85 | 173 | 6.0 | 15.0 | 0.00 | 0.06 | 0.00 | 84 | 1013.3 |
| 20260902152121 | 85 | 172 | 7.0 | 15.0 | 0.00 | 0.06 | 0.00 | 84 | 1013.2 |
| 20260902152018 | 85 | 154 | 9.0 | 15.0 | 0.00 | 0.06 | 0.00 | 84 | 1013.2 |
| 20260902151918 | 85 | 168 | 9.0 | 17.0 | 0.00 | 0.06 | 0.00 | 84 | 1013.2 |
| 20260902151815 | 85 | 155 | 8.0 | 18.0 | 0.00 | 0.06 | 0.00 | 84 | 1013.3 |
| 20260902151714 | 85 | 152 | 9.0 | 19.0 | 0.00 | 0.06 | 0.00 | 84 | 1013.2 |
| 20260902151609 | 85 | 161 | 9.0 | 19.0 | 0.00 | 0.06 | 0.00 | 84 | 1013.2 |
| 20260902151509 | 85 | 168 | 9.0 | 19.0 | 0.00 | 0.06 | 0.00 | 84 | 1013.3 |
| 20260902151406 | 85 | 173 | 9.0 | 19.0 | 0.00 | 0.06 | 0.00 | 84 | 1013.3 |
| 20260902151305 | 85 | 149 | 5.0 | 19.0 | 0.00 | 0.06 | 0.00 | 84 | 1013.2 |
| 20260902151205 | 85 | 179 | 10.0 | 19.0 | 0.00 | 0.06 | 0.00 | 84 | 1013.3 |
| 20260902151103 | 85 | 179 | 10.0 | 19.0 | 0.00 | 0.06 | 0.00 | 84 | 1013.3 |
| 20260902150959 | 85 | 0 | 12.0 | 19.0 | 0.00 | 0.06 | 0.00 | 84 | 1013.3 |
| 20260902150857 | 85 | 224 | 11.0 | 19.0 | 0.00 | 0.06 | 0.00 | 85 | 1013.2 |
| 20260902150757 | 85 | 219 | 9.0 | 16.0 | 0.00 | 0.06 | 0.00 | 85 | 1013.2 |
| 20260902150654 | 85 | 224 | 7.0 | 17.0 | 0.00 | 0.06 | 0.00 | 85 | 1013.3 |
| 20260902150552 | 85 | 293 | 8.0 | 17.0 | 0.00 | 0.06 | 0.00 | 85 | 1013.3 |
| 20260902150453 | 85 | 299 | 10.0 | 17.0 | 0.00 | 0.06 | 0.00 | 86 | 1013.2 |
| 20260902150348 | 85 | 272 | 11.0 | 17.0 | 0.00 | 0.06 | 0.00 | 85 | 1013.2 |
| 20260902150247 | 85 | 238 | 11.0 | 17.0 | 0.00 | 0.06 | 0.00 | 86 | 1013.3 |
| 20260902150146 | 85 | 237 | 10.0 | 17.0 | 0.00 | 0.06 | 0.00 | 86 | 1013.2 |
| 20260902150048 | 85 | 224 | 11.0 | 17.0 | 0.00 | 0.06 | 0.00 | 86 | 1013.2 |
| 20260902145944 | 85 | 235 | 10.0 | 17.0 | 0.00 | 0.06 | 0.00 | 86 | 1013.2 |
| 20260902145843 | 84 | 250 | 11.0 | 17.0 | 0.00 | 0.06 | 0.00 | 86 | 1013.2 |
| 20260902145743 | 84 | 235 | 11.0 | 17.0 | 0.00 | 0.06 | 0.00 | 86 | 1013.1 |
| 20260902145645 | 84 | 224 | 8.0 | 16.0 | 0.00 | 0.06 | 0.00 | 86 | 1013.2 |
| 20260902145543 | 84 | 259 | 8.0 | 16.0 | 0.00 | 0.06 | 0.00 | 86 | 1013.1 |
| 20260902145444 | 84 | 248 | 10.0 | 16.0 | 0.00 | 0.06 | 0.00 | 86 | 1013.3 |
| 20260902145345 | 84 | 278 | 9.0 | 16.0 | 0.00 | 0.06 | 0.00 | 86 | 1013.2 |
| 20260902145243 | 84 | 251 | 7.0 | 16.0 | 0.00 | 0.06 | 0.00 | 86 | 1013.2 |
| 20260902145143 | 84 | 227 | 7.0 | 15.0 | 0.00 | 0.06 | 0.00 | 87 | 1013.1 |
| 20260902145043 | 84 | 259 | 8.0 | 15.0 | 0.00 | 0.06 | 0.00 | 87 | 1013.1 |
| 20260902144945 | 84 | 255 | 8.0 | 15.0 | 0.00 | 0.06 | 0.00 | 87 | 1013.1 |
| 20260902144844 | 84 | 227 | 9.0 | 15.0 | 0.00 | 0.06 | 0.00 | 87 | 1013.1 |
| 20260902144743 | 84 | 202 | 9.0 | 15.0 | 0.00 | 0.06 | 0.00 | 87 | 1013.2 |
| 20260902144644 | 84 | 212 | 7.0 | 14.0 | 0.00 | 0.06 | 0.00 | 87 | 1013.1 |
| 20260902144544 | 84 | 272 | 7.0 | 14.0 | 0.00 | 0.06 | 0.00 | 87 | 1013.1 |
| 20260902144443 | 84 | 261 | 7.0 | 13.0 | 0.00 | 0.06 | 0.00 | 87 | 1013.2 |
| 20260902144343 | 84 | 262 | 8.0 | 13.0 | 0.00 | 0.06 | 0.00 | 88 | 1013.2 |
| 20260902144246 | 84 | 251 | 9.0 | 13.0 | 0.00 | 0.06 | 0.00 | 87 | 1013.2 |
| 20260902144143 | 84 | 264 | 6.0 | 11.0 | 0.00 | 0.06 | 0.00 | 88 | 1013.2 |
| 20260902144043 | 84 | 255 | 4.0 | 11.0 | 0.00 | 0.06 | 0.00 | 88 | 1013.2 |
| 20260902143945 | 84 | 235 | 5.0 | 11.0 | 0.00 | 0.06 | 0.00 | 88 | 1013.2 |
| 20260902143843 | 83 | 279 | 6.0 | 11.0 | 0.00 | 0.06 | 0.00 | 88 | 1013.2 |
| 20260902143745 | 83 | 265 | 6.0 | 11.0 | 0.00 | 0.06 | 0.00 | 88 | 1013.2 |
| 20260902143645 | 83 | 235 | 7.0 | 11.0 | 0.00 | 0.06 | 0.00 | 88 | 1013.2 |
| 20260902143543 | 83 | 217 | 7.0 | 11.0 | 0.00 | 0.06 | 0.00 | 88 | 1013.2 |
| 20260902143444 | 83 | 235 | 6.0 | 11.0 | 0.00 | 0.06 | 0.00 | 88 | 1013.2 |
| 20260902143343 | 83 | 296 | 6.0 | 13.0 | 0.00 | 0.06 | 0.00 | 88 | 1013.3 |
| 20260902143244 | 83 | 244 | 5.0 | 13.0 | 0.00 | 0.06 | 0.00 | 88 | 1013.1 |
| 20260902143144 | 83 | 288 | 5.0 | 13.0 | 0.00 | 0.06 | 0.00 | 89 | 1013.1 |
| 20260902143044 | 83 | 213 | 6.0 | 13.0 | 0.00 | 0.06 | 0.00 | 89 | 1013.1 |
| 20260902142943 | 83 | 255 | 6.0 | 13.0 | 0.00 | 0.06 | 0.00 | 89 | 1013.1 |
| 20260902142844 | 83 | 212 | 6.0 | 13.0 | 0.00 | 0.06 | 0.00 | 89 | 1013.1 |
| 20260902142743 | 83 | 250 | 6.0 | 13.0 | 0.00 | 0.06 | 0.00 | 89 | 1013.1 |
| 20260902142645 | 83 | 247 | 7.0 | 13.0 | 0.00 | 0.06 | 0.00 | 89 | 1013.1 |
| 20260902142544 | 83 | 247 | 7.0 | 13.0 | 0.00 | 0.06 | 0.00 | 89 | 1013.2 |
| 20260902142443 | 83 | 238 | 7.0 | 13.0 | 0.00 | 0.06 | 0.00 | 89 | 1013.1 |
| 20260902142343 | 83 | 188 | 7.0 | 13.0 | 0.00 | 0.06 | 0.00 | 89 | 1013.2 |
| 20260902142244 | 83 | 262 | 6.0 | 13.0 | 0.00 | 0.06 | 0.00 | 89 | 1013.1 |
| 20260902142143 | 83 | 278 | 6.0 | 13.0 | 0.00 | 0.06 | 0.00 | 89 | 1013.2 |
| 20260902142043 | 83 | 254 | 6.0 | 13.0 | 0.00 | 0.06 | 0.00 | 89 | 1013.1 |
| 20260902141942 | 83 | 251 | 7.0 | 13.0 | 0.00 | 0.06 | 0.00 | 89 | 1013.1 |
| 20260902141845 | 83 | 259 | 7.0 | 13.0 | 0.00 | 0.06 | 0.00 | 89 | 1013.1 |
| 20260902141744 | 83 | 223 | 8.0 | 13.0 | 0.00 | 0.06 | 0.00 | 89 | 1013.1 |
| 20260902141643 | 83 | 221 | 7.0 | 13.0 | 0.00 | 0.06 | 0.00 | 89 | 1013.2 |
| 20260902141543 | 83 | 207 | 6.0 | 13.0 | 0.00 | 0.06 | 0.00 | 89 | 1013.1 |
| 20260902141443 | 83 | 223 | 6.0 | 13.0 | 0.00 | 0.06 | 0.00 | 89 | 1013.2 |
| 20260902141343 | 83 | 227 | 5.0 | 13.0 | 0.00 | 0.06 | 0.00 | 89 | 1013.2 |
| 20260902141242 | 83 | 255 | 6.0 | 13.0 | 0.00 | 0.06 | 0.00 | 89 | 1013.0 |
| 20260902141143 | 83 | 272 | 6.0 | 14.0 | 0.00 | 0.06 | 0.00 | 89 | 1013.1 |
| 20260902141042 | 83 | 252 | 7.0 | 14.0 | 0.00 | 0.06 | 0.00 | 89 | 1013.2 |
| 20260902140942 | 83 | 237 | 8.0 | 14.0 | 0.00 | 0.06 | 0.00 | 89 | 1013.1 |
| 20260902140845 | 83 | 252 | 9.0 | 14.0 | 0.00 | 0.06 | 0.00 | 89 | 1013.0 |
| 20260902140743 | 83 | 221 | 8.0 | 14.0 | 0.00 | 0.06 | 0.00 | 89 | 1013.1 |
| 20260902140644 | 83 | 221 | 7.0 | 14.0 | 0.00 | 0.06 | 0.00 | 89 | 1013.1 |
| 20260902140543 | 83 | 247 | 7.0 | 14.0 | 0.00 | 0.06 | 0.00 | 89 | 1013.0 |
| 20260902140443 | 83 | 241 | 7.0 | 14.0 | 0.00 | 0.06 | 0.00 | 89 | 1013.1 |
| 20260902140343 | 83 | 243 | 9.0 | 14.0 | 0.00 | 0.06 | 0.00 | 89 | 1013.0 |
| 20260902140244 | 83 | 299 | 10.0 | 14.0 | 0.00 | 0.06 | 0.00 | 89 | 1013.1 |
| 20260902140144 | 83 | 210 | 9.0 | 14.0 | 0.00 | 0.06 | 0.00 | 89 | 1013.0 |
| 20260902140042 | 83 | 269 | 8.0 | 14.0 | 0.00 | 0.06 | 0.00 | 89 | 1013.1 |
| 20260902135942 | 83 | 247 | 6.0 | 14.0 | 0.00 | 0.06 | 0.00 | 89 | 1013.1 |
| 20260902135842 | 83 | 228 | 7.0 | 14.0 | 0.00 | 0.06 | 0.00 | 89 | 1013.1 |
| 20260902135744 | 83 | 219 | 8.0 | 14.0 | 0.00 | 0.06 | 0.00 | 89 | 1013.0 |
| 20260902135643 | 83 | 238 | 8.0 | 14.0 | 0.00 | 0.06 | 0.00 | 89 | 1013.0 |
| 20260902135542 | 83 | 288 | 7.0 | 12.0 | 0.00 | 0.06 | 0.00 | 89 | 1013.1 |
| 20260902135443 | 83 | 227 | 6.0 | 12.0 | 0.00 | 0.06 | 0.00 | 89 | 1013.1 |
| 20260902135345 | 83 | 259 | 6.0 | 12.0 | 0.00 | 0.06 | 0.00 | 89 | 1013.1 |
| 20260902135242 | 83 | 226 | 6.0 | 12.0 | 0.00 | 0.06 | 0.00 | 90 | 1013.1 |
| 20260902135142 | 83 | 283 | 5.0 | 12.0 | 0.00 | 0.06 | 0.00 | 90 | 1013.0 |
| 20260902135044 | 83 | 279 | 6.0 | 12.0 | 0.00 | 0.06 | 0.00 | 90 | 1013.0 |
| 20260902134942 | 82 | 240 | 7.0 | 12.0 | 0.00 | 0.06 | 0.00 | 90 | 1013.0 |
| 20260902134842 | 82 | 240 | 7.0 | 12.0 | 0.00 | 0.06 | 0.00 | 90 | 1013.1 |
| 20260902134744 | 82 | 238 | 7.0 | 12.0 | 0.00 | 0.06 | 0.00 | 90 | 1013.0 |
| 20260902134641 | 82 | 230 | 7.0 | 12.0 | 0.00 | 0.06 | 0.00 | 90 | 1013.0 |
| 20260902134543 | 82 | 268 | 7.0 | 12.0 | 0.00 | 0.06 | 0.00 | 90 | 1013.0 |
| 20260902134443 | 82 | 245 | 7.0 | 12.0 | 0.00 | 0.06 | 0.00 | 90 | 1013.0 |
| 20260902134343 | 82 | 235 | 7.0 | 12.0 | 0.00 | 0.06 | 0.00 | 90 | 1013.0 |
| 20260902134242 | 82 | 293 | 7.0 | 12.0 | 0.00 | 0.06 | 0.00 | 90 | 1013.0 |
| 20260902134141 | 82 | 309 | 7.0 | 12.0 | 0.00 | 0.06 | 0.00 | 90 | 1013.0 |
| 20260902134043 | 82 | 244 | 7.0 | 13.0 | 0.00 | 0.06 | 0.00 | 90 | 1013.0 |
| 20260902133942 | 82 | 227 | 8.0 | 13.0 | 0.00 | 0.06 | 0.00 | 90 | 1013.0 |
| 20260902133842 | 82 | 231 | 6.0 | 15.0 | 0.00 | 0.06 | 0.00 | 90 | 1013.0 |
| 20260902133743 | 82 | 228 | 6.0 | 15.0 | 0.00 | 0.06 | 0.00 | 90 | 1013.0 |
| 20260902133642 | 82 | 281 | 6.0 | 15.0 | 0.00 | 0.06 | 0.00 | 90 | 1013.1 |
| 20260902133541 | 82 | 237 | 6.0 | 15.0 | 0.00 | 0.06 | 0.00 | 90 | 1013.0 |
| 20260902133442 | 82 | 237 | 6.0 | 15.0 | 0.00 | 0.06 | 0.00 | 91 | 1013.1 |
| 20260902133342 | 82 | 235 | 6.0 | 15.0 | 0.00 | 0.06 | 0.00 | 91 | 1013.1 |
| 20260902133243 | 82 | 264 | 7.0 | 15.0 | 0.00 | 0.06 | 0.00 | 90 | 1013.1 |
| 20260902133142 | 82 | 285 | 9.0 | 15.0 | 0.00 | 0.06 | 0.00 | 90 | 1013.0 |
| 20260902133042 | 82 | 268 | 10.0 | 15.0 | 0.00 | 0.06 | 0.00 | 90 | 1013.0 |
| 20260902132943 | 82 | 203 | 8.0 | 15.0 | 0.00 | 0.06 | 0.00 | 91 | 1013.0 |
| 20260902132841 | 82 | 262 | 7.0 | 11.0 | 0.00 | 0.06 | 0.00 | 91 | 1013.0 |
| 20260902132741 | 82 | 266 | 6.0 | 11.0 | 0.00 | 0.06 | 0.00 | 91 | 1013.0 |
| 20260902132643 | 82 | 234 | 6.0 | 11.0 | 0.00 | 0.06 | 0.00 | 91 | 1012.9 |
| 20260902132541 | 82 | 207 | 7.0 | 11.0 | 0.00 | 0.06 | 0.00 | 91 | 1012.9 |
| 20260902132441 | 82 | 224 | 7.0 | 11.0 | 0.00 | 0.06 | 0.00 | 91 | 1012.9 |
| 20260902132342 | 82 | 231 | 7.0 | 11.0 | 0.00 | 0.06 | 0.00 | 91 | 1012.9 |
| 20260902132242 | 82 | 188 | 7.0 | 11.0 | 0.00 | 0.06 | 0.00 | 91 | 1012.8 |
| 20260902132141 | 82 | 244 | 7.0 | 11.0 | 0.00 | 0.06 | 0.00 | 91 | 1012.9 |
| 20260902132041 | 82 | 210 | 6.0 | 11.0 | 0.00 | 0.06 | 0.00 | 91 | 1012.8 |
| 20260902131942 | 82 | 247 | 6.0 | 11.0 | 0.00 | 0.06 | 0.00 | 91 | 1012.8 |
| 20260902131841 | 82 | 223 | 7.0 | 11.0 | 0.00 | 0.06 | 0.00 | 91 | 1012.8 |
| 20260902131741 | 82 | 240 | 6.0 | 11.0 | 0.00 | 0.06 | 0.00 | 91 | 1012.8 |
| 20260902131641 | 82 | 245 | 6.0 | 11.0 | 0.00 | 0.06 | 0.00 | 91 | 1012.8 |
| 20260902131541 | 82 | 219 | 6.0 | 14.0 | 0.00 | 0.06 | 0.00 | 91 | 1012.8 |
| 20260902131441 | 82 | 219 | 7.0 | 14.0 | 0.00 | 0.06 | 0.00 | 91 | 1012.8 |
| 20260902131341 | 82 | 235 | 7.0 | 14.0 | 0.00 | 0.06 | 0.00 | 91 | 1012.8 |
| 20260902131242 | 82 | 219 | 6.0 | 14.0 | 0.00 | 0.06 | 0.00 | 91 | 1012.8 |
| 20260902131141 | 82 | 244 | 7.0 | 14.0 | 0.00 | 0.06 | 0.00 | 91 | 1012.8 |
| 20260902131041 | 82 | 216 | 7.0 | 14.0 | 0.00 | 0.06 | 0.00 | 91 | 1012.7 |
| 20260902130942 | 82 | 238 | 7.0 | 14.0 | 0.00 | 0.06 | 0.00 | 91 | 1012.7 |
| 20260902130842 | 82 | 234 | 6.0 | 14.0 | 0.00 | 0.06 | 0.00 | 91 | 1012.7 |
| 20260902130741 | 82 | 247 | 8.0 | 14.0 | 0.00 | 0.06 | 0.00 | 91 | 1012.6 |
| 20260902130641 | 82 | 228 | 9.0 | 14.0 | 0.00 | 0.06 | 0.00 | 91 | 1012.6 |
| 20260902130543 | 82 | 248 | 8.0 | 13.0 | 0.00 | 0.06 | 0.00 | 91 | 1012.7 |
| 20260902130440 | 82 | 234 | 7.0 | 12.0 | 0.00 | 0.06 | 0.00 | 91 | 1012.7 |
| 20260902130341 | 82 | 234 | 6.0 | 12.0 | 0.00 | 0.06 | 0.00 | 91 | 1012.7 |
| 20260902130243 | 82 | 255 | 6.0 | 10.0 | 0.00 | 0.06 | 0.00 | 91 | 1012.7 |
| 20260902130141 | 82 | 219 | 5.0 | 10.0 | 0.00 | 0.06 | 0.00 | 91 | 1012.7 |
| 20260902130041 | 82 | 282 | 6.0 | 10.0 | 0.00 | 0.06 | 0.00 | 91 | 1012.7 |
| 20260902125941 | 82 | 224 | 6.0 | 10.0 | 0.00 | 0.06 | 0.00 | 91 | 1012.7 |
| 20260902125843 | 82 | 243 | 7.0 | 12.0 | 0.00 | 0.06 | 0.00 | 91 | 1012.7 |
| 20260902125742 | 82 | 238 | 7.0 | 13.0 | 0.00 | 0.06 | 0.00 | 91 | 1012.7 |
| 20260902125641 | 82 | 258 | 7.0 | 13.0 | 0.00 | 0.06 | 0.00 | 91 | 1012.8 |
| 20260902125542 | 82 | 231 | 7.0 | 13.0 | 0.00 | 0.06 | 0.00 | 91 | 1012.7 |
| 20260902125441 | 82 | 258 | 6.0 | 13.0 | 0.00 | 0.06 | 0.00 | 91 | 1012.7 |
| 20260902125341 | 82 | 266 | 6.0 | 13.0 | 0.00 | 0.06 | 0.00 | 92 | 1012.7 |
| 20260902125242 | 82 | 230 | 5.0 | 13.0 | 0.00 | 0.06 | 0.00 | 91 | 1012.7 |
| 20260902125142 | 82 | 276 | 6.0 | 13.0 | 0.00 | 0.06 | 0.00 | 92 | 1012.7 |
| 20260902125041 | 82 | 213 | 8.0 | 13.0 | 0.00 | 0.06 | 0.00 | 91 | 1012.7 |
| 20260902124939 | 82 | 223 | 9.0 | 13.0 | 0.00 | 0.06 | 0.00 | 91 | 1012.6 |
| 20260902124839 | 82 | 227 | 8.0 | 14.0 | 0.00 | 0.06 | 0.00 | 91 | 1012.5 |
| 20260902124736 | 82 | 220 | 7.0 | 14.0 | 0.00 | 0.06 | 0.00 | 91 | 1012.5 |
| 20260902124635 | 82 | 268 | 8.0 | 14.0 | 0.00 | 0.06 | 0.00 | 91 | 1012.5 |
| 20260902124533 | 82 | 240 | 7.0 | 14.0 | 0.00 | 0.06 | 0.00 | 91 | 1012.4 |
| 20260902124431 | 82 | 243 | 7.0 | 14.0 | 0.00 | 0.06 | 0.00 | 91 | 1012.5 |
| 20260902124331 | 82 | 230 | 8.0 | 15.0 | 0.00 | 0.06 | 0.00 | 91 | 1012.5 |
| 20260902124231 | 82 | 261 | 9.0 | 15.0 | 0.00 | 0.06 | 0.00 | 91 | 1012.4 |
| 20260902124128 | 82 | 247 | 8.0 | 15.0 | 0.00 | 0.06 | 0.00 | 91 | 1012.4 |
| 20260902124026 | 82 | 257 | 9.0 | 15.0 | 0.00 | 0.06 | 0.00 | 91 | 1012.5 |
| 20260902123925 | 82 | 271 | 9.0 | 15.0 | 0.00 | 0.06 | 0.00 | 91 | 1012.4 |
| 20260902123823 | 82 | 278 | 9.0 | 15.0 | 0.00 | 0.06 | 0.00 | 91 | 1012.5 |
| 20260902123722 | 82 | 220 | 9.0 | 15.0 | 0.00 | 0.06 | 0.00 | 91 | 1012.4 |
| 20260902123620 | 82 | 235 | 10.0 | 15.0 | 0.00 | 0.06 | 0.00 | 91 | 1012.4 |
| 20260902123518 | 82 | 214 | 11.0 | 15.0 | 0.00 | 0.06 | 0.00 | 91 | 1012.4 |
| 20260902123417 | 82 | 248 | 9.0 | 15.0 | 0.00 | 0.06 | 0.00 | 91 | 1012.4 |
| 20260902123315 | 82 | 234 | 9.0 | 15.0 | 0.00 | 0.06 | 0.00 | 91 | 1012.4 |
| 20260902123215 | 82 | 233 | 9.0 | 15.0 | 0.00 | 0.06 | 0.00 | 91 | 1012.4 |
| 20260902123113 | 82 | 244 | 9.0 | 15.0 | 0.00 | 0.06 | 0.00 | 91 | 1012.4 |
| 20260902123011 | 82 | 234 | 9.0 | 15.0 | 0.00 | 0.06 | 0.00 | 91 | 1012.4 |
| 20260902122909 | 82 | 257 | 8.0 | 14.0 | 0.00 | 0.06 | 0.00 | 91 | 1012.4 |
| 20260902122808 | 82 | 231 | 8.0 | 14.0 | 0.00 | 0.06 | 0.00 | 91 | 1012.3 |
| 20260902122707 | 82 | 288 | 7.0 | 14.0 | 0.00 | 0.06 | 0.00 | 91 | 1012.3 |
| 20260902122605 | 82 | 290 | 7.0 | 14.0 | 0.00 | 0.06 | 0.00 | 91 | 1012.2 |
| 20260902122503 | 82 | 264 | 8.0 | 14.0 | 0.00 | 0.06 | 0.00 | 91 | 1012.1 |
| 20260902122403 | 82 | 244 | 7.0 | 14.0 | 0.00 | 0.06 | 0.00 | 91 | 1012.1 |
| 20260902122305 | 82 | 248 | 6.0 | 14.0 | 0.00 | 0.06 | 0.00 | 91 | 1012.0 |
| 20260902122202 | 82 | 264 | 6.0 | 14.0 | 0.00 | 0.06 | 0.00 | 91 | 1012.0 |
| 20260902122102 | 82 | 288 | 6.0 | 14.0 | 0.00 | 0.06 | 0.00 | 91 | 1012.0 |
| 20260902122002 | 82 | 230 | 7.0 | 14.0 | 0.00 | 0.06 | 0.00 | 91 | 1011.9 |
| 20260902121903 | 82 | 227 | 8.0 | 14.0 | 0.00 | 0.06 | 0.00 | 91 | 1011.9 |
| 20260902121802 | 82 | 233 | 9.0 | 14.0 | 0.00 | 0.06 | 0.00 | 91 | 1011.8 |
| 20260902121702 | 82 | 247 | 9.0 | 14.0 | 0.00 | 0.06 | 0.00 | 91 | 1011.8 |
| 20260902121602 | 82 | 248 | 8.0 | 14.0 | 0.00 | 0.06 | 0.00 | 91 | 1011.7 |
| 20260902121504 | 81 | 233 | 8.0 | 14.0 | 0.00 | 0.06 | 0.00 | 91 | 1011.7 |
| 20260902121403 | 81 | 282 | 9.0 | 14.0 | 0.00 | 0.06 | 0.00 | 91 | 1011.7 |
| 20260902121302 | 81 | 251 | 8.0 | 13.0 | 0.00 | 0.06 | 0.00 | 91 | 1011.6 |
| 20260902121204 | 81 | 250 | 7.0 | 13.0 | 0.00 | 0.06 | 0.00 | 91 | 1011.5 |
| 20260902121103 | 82 | 245 | 7.0 | 13.0 | 0.00 | 0.06 | 0.00 | 91 | 1011.5 |
| 20260902121004 | 81 | 255 | 9.0 | 13.0 | 0.00 | 0.06 | 0.00 | 91 | 1011.4 |
| 20260902120904 | 81 | 234 | 9.0 | 13.0 | 0.00 | 0.06 | 0.00 | 91 | 1011.5 |
| 20260902120803 | 81 | 220 | 8.0 | 16.0 | 0.00 | 0.06 | 0.00 | 91 | 1011.4 |
| 20260902120702 | 81 | 248 | 7.0 | 16.0 | 0.00 | 0.06 | 0.00 | 91 | 1011.3 |
| 20260902120602 | 81 | 223 | 8.0 | 17.0 | 0.00 | 0.06 | 0.00 | 91 | 1011.4 |
| 20260902120504 | 81 | 233 | 8.0 | 17.0 | 0.00 | 0.06 | 0.00 | 91 | 1011.3 |
| 20260902120402 | 81 | 258 | 8.0 | 17.0 | 0.00 | 0.06 | 0.00 | 91 | 1011.3 |
| 20260902120302 | 81 | 250 | 8.0 | 17.0 | 0.00 | 0.06 | 0.00 | 91 | 1011.3 |
| 20260902120203 | 81 | 219 | 9.0 | 17.0 | 0.00 | 0.06 | 0.00 | 91 | 1011.3 |
| 20260902120002 | 81 | 252 | 11.0 | 17.0 | 0.00 | 0.06 | 0.00 | 91 | 1011.3 |
| 20260902115902 | 81 | 214 | 11.0 | 17.0 | 0.00 | 0.06 | 0.00 | 91 | 1011.2 |
| 20260902115804 | 81 | 219 | 11.0 | 17.0 | 0.00 | 0.06 | 0.00 | 91 | 1011.3 |
| 20260902115703 | 81 | 255 | 11.0 | 17.0 | 0.00 | 0.06 | 0.00 | 91 | 1011.3 |
| 20260902115602 | 81 | 233 | 11.0 | 16.0 | 0.00 | 0.06 | 0.00 | 91 | 1011.2 |
| 20260902115503 | 81 | 230 | 11.0 | 16.0 | 0.00 | 0.06 | 0.00 | 91 | 1011.3 |
| 20260902115402 | 81 | 217 | 11.0 | 16.0 | 0.00 | 0.06 | 0.00 | 91 | 1011.3 |
| 20260902115306 | 81 | 224 | 10.0 | 14.0 | 0.00 | 0.06 | 0.00 | 91 | 1011.2 |
| 20260902115202 | 81 | 223 | 9.0 | 13.0 | 0.00 | 0.06 | 0.00 | 91 | 1011.2 |
| 20260902115103 | 81 | 224 | 10.0 | 13.0 | 0.00 | 0.06 | 0.00 | 91 | 1011.2 |
| 20260902115002 | 81 | 241 | 10.0 | 13.0 | 0.00 | 0.06 | 0.00 | 91 | 1011.3 |
| 20260902114902 | 81 | 199 | 8.0 | 14.0 | 0.00 | 0.06 | 0.00 | 91 | 1011.3 |
| 20260902114804 | 81 | 226 | 7.0 | 14.0 | 0.00 | 0.06 | 0.00 | 91 | 1011.3 |
| 20260902114703 | 81 | 247 | 8.0 | 14.0 | 0.00 | 0.06 | 0.00 | 91 | 1011.3 |
| 20260902114603 | 81 | 252 | 8.0 | 14.0 | 0.00 | 0.06 | 0.00 | 91 | 1011.3 |
| 20260902114503 | 81 | 230 | 8.0 | 14.0 | 0.00 | 0.06 | 0.00 | 91 | 1011.3 |
| 20260902114402 | 81 | 216 | 9.0 | 14.0 | 0.00 | 0.06 | 0.00 | 91 | 1011.3 |
| 20260902114302 | 81 | 234 | 8.0 | 14.0 | 0.00 | 0.06 | 0.00 | 91 | 1011.3 |
| 20260902114202 | 81 | 271 | 8.0 | 14.0 | 0.00 | 0.06 | 0.00 | 91 | 1011.2 |
| 20260902114104 | 82 | 238 | 9.0 | 14.0 | 0.00 | 0.06 | 0.00 | 91 | 1011.3 |
| 20260902114002 | 82 | 255 | 10.0 | 14.0 | 0.00 | 0.06 | 0.00 | 91 | 1011.2 |
| 20260902113902 | 81 | 233 | 8.0 | 14.0 | 0.00 | 0.06 | 0.00 | 91 | 1011.2 |
| 20260902113803 | 82 | 233 | 7.0 | 12.0 | 0.00 | 0.06 | 0.00 | 91 | 1011.3 |
| 20260902113702 | 82 | 237 | 7.0 | 14.0 | 0.00 | 0.06 | 0.00 | 91 | 1011.3 |
| 20260902113602 | 82 | 262 | 8.0 | 14.0 | 0.00 | 0.06 | 0.00 | 91 | 1011.4 |
| 20260902113503 | 81 | 234 | 8.0 | 14.0 | 0.00 | 0.06 | 0.00 | 91 | 1011.4 |
| 20260902113403 | 82 | 220 | 8.0 | 14.0 | 0.00 | 0.06 | 0.00 | 91 | 1011.3 |
| 20260902113303 | 82 | 258 | 8.0 | 15.0 | 0.00 | 0.06 | 0.00 | 91 | 1011.4 |
| 20260902113202 | 82 | 238 | 6.0 | 15.0 | 0.00 | 0.06 | 0.00 | 91 | 1011.3 |
| 20260902113104 | 82 | 250 | 7.0 | 15.0 | 0.00 | 0.06 | 0.00 | 91 | 1011.3 |
| 20260902113003 | 82 | 241 | 7.0 | 16.0 | 0.00 | 0.06 | 0.00 | 91 | 1011.4 |
| 20260902112903 | 82 | 261 | 8.0 | 16.0 | 0.00 | 0.06 | 0.00 | 91 | 1011.3 |
| 20260902112803 | 82 | 248 | 9.0 | 16.0 | 0.00 | 0.06 | 0.00 | 91 | 1011.4 |
| 20260902112703 | 82 | 238 | 9.0 | 16.0 | 0.00 | 0.06 | 0.00 | 91 | 1011.3 |
| 20260902112602 | 82 | 259 | 10.0 | 16.0 | 0.00 | 0.06 | 0.00 | 90 | 1011.3 |
| 20260902112502 | 82 | 228 | 10.0 | 16.0 | 0.00 | 0.06 | 0.00 | 90 | 1011.4 |
| 20260902112403 | 82 | 247 | 9.0 | 16.0 | 0.00 | 0.06 | 0.00 | 90 | 1011.3 |
| 20260902112305 | 82 | 224 | 9.0 | 16.0 | 0.00 | 0.06 | 0.00 | 90 | 1011.3 |
| 20260902112201 | 82 | 240 | 9.0 | 16.0 | 0.00 | 0.06 | 0.00 | 90 | 1011.3 |
| 20260902112103 | 82 | 212 | 10.0 | 16.0 | 0.00 | 0.06 | 0.00 | 90 | 1011.3 |
| 20260902112004 | 82 | 238 | 10.0 | 15.0 | 0.00 | 0.06 | 0.00 | 90 | 1011.3 |
| 20260902111902 | 82 | 248 | 8.0 | 15.0 | 0.00 | 0.06 | 0.00 | 90 | 1011.3 |
| 20260902111801 | 82 | 230 | 8.0 | 15.0 | 0.00 | 0.06 | 0.00 | 90 | 1011.3 |
| 20260902111703 | 82 | 234 | 9.0 | 15.0 | 0.00 | 0.06 | 0.00 | 90 | 1011.3 |
| 20260902111602 | 82 | 213 | 9.0 | 15.0 | 0.00 | 0.06 | 0.00 | 90 | 1011.3 |
| 20260902111502 | 82 | 235 | 10.0 | 14.0 | 0.00 | 0.06 | 0.00 | 90 | 1011.3 |
| 20260902111403 | 82 | 214 | 10.0 | 14.0 | 0.00 | 0.06 | 0.00 | 90 | 1011.3 |
| 20260902111303 | 82 | 217 | 9.0 | 12.0 | 0.00 | 0.06 | 0.00 | 90 | 1011.3 |
| 20260902111201 | 82 | 244 | 9.0 | 12.0 | 0.00 | 0.06 | 0.00 | 90 | 1011.3 |
| 20260902111103 | 82 | 228 | 9.0 | 12.0 | 0.00 | 0.06 | 0.00 | 90 | 1011.2 |
| 20260902111003 | 82 | 243 | 8.0 | 12.0 | 0.00 | 0.06 | 0.00 | 90 | 1011.2 |
| 20260902110902 | 82 | 234 | 8.0 | 14.0 | 0.00 | 0.06 | 0.00 | 90 | 1011.2 |
| 20260902110802 | 82 | 241 | 7.0 | 14.0 | 0.00 | 0.06 | 0.00 | 90 | 1011.3 |
| 20260902110703 | 82 | 226 | 8.0 | 14.0 | 0.00 | 0.06 | 0.00 | 90 | 1011.2 |
| 20260902110602 | 82 | 261 | 8.0 | 14.0 | 0.00 | 0.06 | 0.00 | 90 | 1011.2 |
| 20260902110502 | 82 | 244 | 8.0 | 14.0 | 0.00 | 0.06 | 0.00 | 90 | 1011.1 |
| 20260902110403 | 82 | 258 | 8.0 | 14.0 | 0.00 | 0.06 | 0.00 | 90 | 1011.1 |
| 20260902110301 | 82 | 223 | 7.0 | 14.0 | 0.00 | 0.06 | 0.00 | 90 | 1011.2 |
| 20260902110203 | 82 | 206 | 8.0 | 16.0 | 0.00 | 0.06 | 0.00 | 90 | 1011.2 |
| 20260902110005 | 82 | 235 | 9.0 | 16.0 | 0.00 | 0.06 | 0.00 | 90 | 1011.1 |
| 20260902105902 | 82 | 237 | 7.0 | 16.0 | 0.00 | 0.06 | 0.00 | 90 | 1011.2 |
| 20260902105802 | 82 | 233 | 7.0 | 16.0 | 0.00 | 0.06 | 0.00 | 90 | 1011.2 |
| 20260902105703 | 82 | 240 | 7.0 | 16.0 | 0.00 | 0.06 | 0.00 | 90 | 1011.2 |
| 20260902105602 | 82 | 258 | 9.0 | 16.0 | 0.00 | 0.06 | 0.00 | 90 | 1011.1 |
| 20260902105503 | 82 | 213 | 9.0 | 16.0 | 0.00 | 0.06 | 0.00 | 90 | 1011.2 |
| 20260902105402 | 82 | 216 | 10.0 | 19.0 | 0.00 | 0.06 | 0.00 | 90 | 1011.2 |
| 20260902105306 | 82 | 219 | 11.0 | 20.0 | 0.00 | 0.06 | 0.00 | 90 | 1011.2 |
| 20260902105202 | 82 | 233 | 11.0 | 20.0 | 0.00 | 0.06 | 0.00 | 90 | 1011.2 |
| 20260902105101 | 82 | 237 | 10.0 | 20.0 | 0.00 | 0.06 | 0.00 | 90 | 1011.2 |
| 20260902104958 | 82 | 230 | 9.0 | 20.0 | 0.00 | 0.06 | 0.00 | 90 | 1011.2 |
| 20260902104857 | 82 | 213 | 7.0 | 20.0 | 0.00 | 0.06 | 0.00 | 90 | 1011.2 |
| 20260902104756 | 82 | 200 | 7.0 | 20.0 | 0.00 | 0.06 | 0.00 | 90 | 1011.2 |
| 20260902104655 | 82 | 255 | 9.0 | 20.0 | 0.00 | 0.06 | 0.00 | 90 | 1011.2 |
| 20260902104552 | 82 | 237 | 11.0 | 20.0 | 0.00 | 0.06 | 0.00 | 90 | 1011.2 |
| 20260902104452 | 82 | 243 | 12.0 | 20.0 | 0.00 | 0.06 | 0.00 | 90 | 1011.3 |
| 20260902104349 | 82 | 243 | 11.0 | 17.0 | 0.00 | 0.06 | 0.00 | 90 | 1011.2 |
| 20260902104248 | 82 | 244 | 9.0 | 15.0 | 0.00 | 0.06 | 0.00 | 90 | 1011.3 |
| 20260902104147 | 82 | 199 | 10.0 | 17.0 | 0.00 | 0.06 | 0.00 | 90 | 1011.3 |
| 20260902104045 | 82 | 248 | 10.0 | 17.0 | 0.00 | 0.06 | 0.00 | 90 | 1011.2 |
| 20260902103943 | 82 | 233 | 9.0 | 17.0 | 0.00 | 0.06 | 0.00 | 90 | 1011.3 |
| 20260902103842 | 82 | 254 | 9.0 | 17.0 | 0.00 | 0.06 | 0.00 | 90 | 1011.2 |
| 20260902103740 | 82 | 245 | 9.0 | 17.0 | 0.00 | 0.06 | 0.00 | 90 | 1011.3 |
| 20260902103640 | 82 | 238 | 9.0 | 17.0 | 0.00 | 0.06 | 0.00 | 90 | 1011.2 |
| 20260902103537 | 82 | 230 | 9.0 | 17.0 | 0.00 | 0.06 | 0.00 | 90 | 1011.2 |
| 20260902103437 | 82 | 240 | 8.0 | 17.0 | 0.00 | 0.06 | 0.00 | 90 | 1011.3 |
| 20260902103337 | 82 | 234 | 10.0 | 17.0 | 0.00 | 0.06 | 0.00 | 90 | 1011.3 |
| 20260902103239 | 82 | 254 | 10.0 | 17.0 | 0.00 | 0.06 | 0.00 | 90 | 1011.3 |
| 20260902103139 | 82 | 251 | 9.0 | 15.0 | 0.00 | 0.06 | 0.00 | 89 | 1011.3 |
| 20260902103038 | 82 | 227 | 8.0 | 15.0 | 0.00 | 0.06 | 0.00 | 89 | 1011.4 |
| 20260902102939 | 82 | 247 | 8.0 | 15.0 | 0.00 | 0.06 | 0.00 | 89 | 1011.3 |
| 20260902102837 | 82 | 240 | 9.0 | 15.0 | 0.00 | 0.06 | 0.00 | 89 | 1011.3 |
| 20260902102737 | 82 | 221 | 10.0 | 15.0 | 0.00 | 0.06 | 0.00 | 89 | 1011.3 |
| 20260902102637 | 82 | 228 | 9.0 | 15.0 | 0.00 | 0.06 | 0.00 | 89 | 1011.3 |
| 20260902102538 | 82 | 216 | 9.0 | 15.0 | 0.00 | 0.06 | 0.00 | 89 | 1011.2 |
| 20260902102438 | 82 | 238 | 10.0 | 15.0 | 0.00 | 0.06 | 0.00 | 89 | 1011.3 |
| 20260902102338 | 82 | 248 | 10.0 | 15.0 | 0.00 | 0.06 | 0.00 | 89 | 1011.3 |
| 20260902102238 | 82 | 243 | 9.0 | 15.0 | 0.00 | 0.06 | 0.00 | 89 | 1011.4 |
| 20260902102137 | 82 | 223 | 7.0 | 15.0 | 0.00 | 0.06 | 0.00 | 89 | 1011.4 |
| 20260902102037 | 82 | 271 | 7.0 | 15.0 | 0.00 | 0.06 | 0.00 | 89 | 1011.4 |
| 20260902101938 | 82 | 241 | 9.0 | 15.0 | 0.00 | 0.06 | 0.00 | 89 | 1011.3 |
| 20260902101837 | 82 | 226 | 10.0 | 15.0 | 0.00 | 0.06 | 0.00 | 89 | 1011.4 |
| 20260902101737 | 82 | 281 | 9.0 | 14.0 | 0.00 | 0.06 | 0.00 | 89 | 1011.4 |
| 20260902101637 | 82 | 247 | 9.0 | 15.0 | 0.00 | 0.06 | 0.00 | 89 | 1011.4 |
| 20260902101538 | 82 | 254 | 10.0 | 15.0 | 0.00 | 0.06 | 0.00 | 89 | 1011.5 |
| 20260902101437 | 82 | 255 | 9.0 | 15.0 | 0.00 | 0.06 | 0.00 | 89 | 1011.4 |
| 20260902101337 | 82 | 245 | 8.0 | 15.0 | 0.00 | 0.06 | 0.00 | 89 | 1011.4 |
| 20260902101238 | 82 | 254 | 8.0 | 15.0 | 0.00 | 0.06 | 0.00 | 89 | 1011.4 |
| 20260902101138 | 82 | 248 | 9.0 | 15.0 | 0.00 | 0.06 | 0.00 | 89 | 1011.3 |
| 20260902101039 | 82 | 257 | 10.0 | 15.0 | 0.00 | 0.06 | 0.00 | 89 | 1011.4 |
| 20260902100938 | 82 | 285 | 10.0 | 15.0 | 0.00 | 0.06 | 0.00 | 89 | 1011.4 |
| 20260902100840 | 82 | 223 | 10.0 | 15.0 | 0.00 | 0.06 | 0.00 | 89 | 1011.3 |
| 20260902100740 | 82 | 233 | 9.0 | 15.0 | 0.00 | 0.06 | 0.00 | 89 | 1011.4 |
| 20260902100637 | 82 | 258 | 9.0 | 15.0 | 0.00 | 0.06 | 0.00 | 89 | 1011.3 |
| 20260902100538 | 82 | 279 | 10.0 | 15.0 | 0.00 | 0.06 | 0.00 | 89 | 1011.3 |
| 20260902100437 | 82 | 255 | 9.0 | 15.0 | 0.00 | 0.06 | 0.00 | 89 | 1011.4 |
| 20260902100338 | 82 | 219 | 8.0 | 17.0 | 0.00 | 0.06 | 0.00 | 89 | 1011.3 |
| 20260902100239 | 82 | 224 | 9.0 | 17.0 | 0.00 | 0.06 | 0.00 | 89 | 1011.3 |
| 20260902100139 | 82 | 271 | 9.0 | 17.0 | 0.00 | 0.06 | 0.00 | 89 | 1011.3 |
| 20260902100038 | 82 | 223 | 8.0 | 17.0 | 0.00 | 0.06 | 0.00 | 89 | 1011.3 |
| 20260902095936 | 82 | 261 | 7.0 | 17.0 | 0.00 | 0.06 | 0.00 | 89 | 1011.3 |
| 20260902095838 | 82 | 247 | 7.0 | 17.0 | 0.00 | 0.06 | 0.00 | 89 | 1011.3 |
| 20260902095737 | 82 | 235 | 8.0 | 17.0 | 0.00 | 0.06 | 0.00 | 89 | 1011.3 |
| 20260902095637 | 82 | 288 | 10.0 | 17.0 | 0.00 | 0.06 | 0.00 | 89 | 1011.3 |
| 20260902095538 | 82 | 234 | 12.0 | 17.0 | 0.00 | 0.06 | 0.00 | 89 | 1011.3 |
| 20260902095437 | 82 | 217 | 10.0 | 17.0 | 0.00 | 0.06 | 0.00 | 89 | 1011.3 |
| 20260902095336 | 82 | 226 | 9.0 | 17.0 | 0.00 | 0.06 | 0.00 | 89 | 1011.4 |
| 20260902095238 | 82 | 245 | 11.0 | 17.0 | 0.00 | 0.06 | 0.00 | 89 | 1011.3 |
| 20260902095137 | 82 | 219 | 9.0 | 15.0 | 0.00 | 0.06 | 0.00 | 89 | 1011.3 |
| 20260902095036 | 82 | 231 | 10.0 | 15.0 | 0.00 | 0.06 | 0.00 | 89 | 1011.3 |
| 20260902094936 | 82 | 200 | 10.0 | 15.0 | 0.00 | 0.06 | 0.00 | 89 | 1011.3 |
| 20260902094837 | 82 | 243 | 8.0 | 15.0 | 0.00 | 0.06 | 0.00 | 89 | 1011.2 |
| 20260902094737 | 82 | 252 | 8.0 | 15.0 | 0.00 | 0.06 | 0.00 | 89 | 1011.2 |
| 20260902094636 | 82 | 271 | 9.0 | 15.0 | 0.00 | 0.06 | 0.00 | 89 | 1011.3 |
| 20260902094537 | 82 | 216 | 10.0 | 15.0 | 0.00 | 0.06 | 0.00 | 89 | 1011.2 |
| 20260902094438 | 82 | 223 | 10.0 | 15.0 | 0.00 | 0.06 | 0.00 | 89 | 1011.2 |
| 20260902094336 | 82 | 254 | 9.0 | 16.0 | 0.00 | 0.06 | 0.00 | 89 | 1011.2 |
| 20260902094236 | 82 | 264 | 9.0 | 16.0 | 0.00 | 0.06 | 0.00 | 89 | 1011.2 |
| 20260902094138 | 82 | 250 | 11.0 | 17.0 | 0.00 | 0.06 | 0.00 | 89 | 1011.1 |
| 20260902094038 | 82 | 217 | 11.0 | 17.0 | 0.00 | 0.06 | 0.00 | 89 | 1011.1 |
| 20260902093938 | 82 | 262 | 10.0 | 18.0 | 0.00 | 0.06 | 0.00 | 89 | 1011.2 |
| 20260902093836 | 82 | 195 | 9.0 | 18.0 | 0.00 | 0.06 | 0.00 | 89 | 1011.2 |
| 20260902093737 | 82 | 209 | 9.0 | 18.0 | 0.00 | 0.06 | 0.00 | 89 | 1011.2 |
| 20260902093637 | 82 | 226 | 9.0 | 18.0 | 0.00 | 0.06 | 0.00 | 89 | 1011.1 |
| 20260902093538 | 82 | 264 | 9.0 | 18.0 | 0.00 | 0.06 | 0.00 | 88 | 1011.2 |
| 20260902093437 | 82 | 298 | 10.0 | 18.0 | 0.00 | 0.06 | 0.00 | 88 | 1011.1 |
| 20260902093337 | 82 | 221 | 11.0 | 18.0 | 0.00 | 0.06 | 0.00 | 88 | 1011.1 |
| 20260902093237 | 82 | 220 | 10.0 | 18.0 | 0.00 | 0.06 | 0.00 | 88 | 1011.1 |
| 20260902093137 | 82 | 193 | 10.0 | 18.0 | 0.00 | 0.06 | 0.00 | 88 | 1011.1 |
| 20260902093038 | 82 | 255 | 11.0 | 18.0 | 0.00 | 0.06 | 0.00 | 88 | 1011.1 |
| 20260902092938 | 82 | 240 | 10.0 | 18.0 | 0.00 | 0.06 | 0.00 | 88 | 1011.2 |
| 20260902092836 | 82 | 245 | 10.0 | 15.0 | 0.00 | 0.06 | 0.00 | 88 | 1011.2 |
| 20260902092738 | 82 | 272 | 9.0 | 15.0 | 0.00 | 0.06 | 0.00 | 88 | 1011.2 |
| 20260902092636 | 82 | 265 | 9.0 | 15.0 | 0.00 | 0.06 | 0.00 | 88 | 1011.2 |
| 20260902092536 | 82 | 269 | 9.0 | 15.0 | 0.00 | 0.06 | 0.00 | 88 | 1011.2 |
| 20260902092435 | 82 | 235 | 10.0 | 15.0 | 0.00 | 0.06 | 0.00 | 88 | 1011.2 |
| 20260902092337 | 82 | 248 | 10.0 | 17.0 | 0.00 | 0.06 | 0.00 | 88 | 1011.3 |
| 20260902092237 | 82 | 216 | 10.0 | 17.0 | 0.00 | 0.06 | 0.00 | 88 | 1011.2 |
| 20260902092136 | 82 | 238 | 10.0 | 17.0 | 0.00 | 0.06 | 0.00 | 88 | 1011.3 |
| 20260902092039 | 82 | 217 | 9.0 | 17.0 | 0.00 | 0.06 | 0.00 | 88 | 1011.2 |
| 20260902091935 | 82 | 223 | 10.0 | 17.0 | 0.00 | 0.06 | 0.00 | 88 | 1011.1 |
| 20260902091836 | 82 | 252 | 10.0 | 17.0 | 0.00 | 0.06 | 0.00 | 88 | 1011.1 |
| 20260902091738 | 82 | 186 | 11.0 | 17.0 | 0.00 | 0.06 | 0.00 | 88 | 1011.1 |
| 20260902091638 | 82 | 217 | 11.0 | 17.0 | 0.00 | 0.06 | 0.00 | 88 | 1011.1 |
| 20260902091536 | 82 | 237 | 11.0 | 17.0 | 0.00 | 0.06 | 0.00 | 88 | 1011.1 |
| 20260902091436 | 82 | 248 | 11.0 | 17.0 | 0.00 | 0.06 | 0.00 | 88 | 1011.1 |
| 20260902091338 | 82 | 224 | 10.0 | 16.0 | 0.00 | 0.06 | 0.00 | 88 | 1011.1 |
| 20260902091236 | 82 | 230 | 11.0 | 16.0 | 0.00 | 0.06 | 0.00 | 87 | 1011.1 |
| 20260902091136 | 82 | 238 | 12.0 | 16.0 | 0.00 | 0.06 | 0.00 | 87 | 1011.1 |
| 20260902091038 | 82 | 237 | 11.0 | 16.0 | 0.00 | 0.06 | 0.00 | 87 | 1011.1 |
| 20260902090936 | 82 | 220 | 10.0 | 16.0 | 0.00 | 0.06 | 0.00 | 87 | 1011.0 |
| 20260902090835 | 82 | 248 | 11.0 | 16.0 | 0.00 | 0.06 | 0.00 | 87 | 1011.2 |
| 20260902090735 | 82 | 245 | 10.0 | 15.0 | 0.00 | 0.06 | 0.00 | 87 | 1011.1 |
| 20260902090636 | 82 | 226 | 9.0 | 16.0 | 0.00 | 0.06 | 0.00 | 87 | 1011.1 |
| 20260902090536 | 82 | 241 | 10.0 | 17.0 | 0.00 | 0.06 | 0.00 | 87 | 1011.0 |
| 20260902090435 | 82 | 219 | 10.0 | 17.0 | 0.00 | 0.06 | 0.00 | 87 | 1011.1 |
| 20260902090335 | 82 | 244 | 10.0 | 17.0 | 0.00 | 0.06 | 0.00 | 87 | 1011.1 |
| 20260902090236 | 82 | 259 | 10.0 | 17.0 | 0.00 | 0.06 | 0.00 | 87 | 1011.1 |
| 20260902090136 | 82 | 250 | 9.0 | 17.0 | 0.00 | 0.06 | 0.00 | 87 | 1011.1 |
| 20260902090037 | 82 | 261 | 10.0 | 17.0 | 0.00 | 0.06 | 0.00 | 87 | 1011.1 |
| 20260902085936 | 82 | 283 | 10.0 | 17.0 | 0.00 | 0.06 | 0.00 | 87 | 1011.1 |
| 20260902085835 | 82 | 228 | 11.0 | 17.0 | 0.00 | 0.06 | 0.00 | 87 | 1011.1 |
| 20260902085735 | 82 | 231 | 11.0 | 17.0 | 0.00 | 0.06 | 0.00 | 87 | 1011.1 |
| 20260902085635 | 82 | 237 | 10.0 | 17.0 | 0.00 | 0.06 | 0.00 | 87 | 1011.1 |
| 20260902085536 | 82 | 238 | 10.0 | 17.0 | 0.00 | 0.06 | 0.00 | 87 | 1011.1 |
| 20260902085434 | 82 | 264 | 11.0 | 17.0 | 0.00 | 0.06 | 0.00 | 87 | 1011.1 |
| 20260902085332 | 82 | 216 | 11.0 | 17.0 | 0.00 | 0.06 | 0.00 | 87 | 1011.1 |
| 20260902085234 | 82 | 224 | 9.0 | 17.0 | 0.00 | 0.06 | 0.00 | 87 | 1011.1 |
| 20260902085130 | 82 | 243 | 11.0 | 17.0 | 0.00 | 0.06 | 0.00 | 87 | 1011.0 |
| 20260902085031 | 82 | 224 | 11.0 | 17.0 | 0.00 | 0.06 | 0.00 | 87 | 1011.0 |
| 20260902084933 | 82 | 214 | 11.0 | 16.0 | 0.00 | 0.06 | 0.00 | 87 | 1011.0 |
| 20260902084832 | 82 | 224 | 11.0 | 16.0 | 0.00 | 0.06 | 0.00 | 87 | 1011.1 |
| 20260902084731 | 82 | 223 | 11.0 | 16.0 | 0.00 | 0.06 | 0.00 | 87 | 1011.1 |
| 20260902084632 | 82 | 226 | 11.0 | 16.0 | 0.00 | 0.06 | 0.00 | 87 | 1011.1 |
| 20260902084532 | 82 | 221 | 11.0 | 16.0 | 0.00 | 0.06 | 0.00 | 86 | 1011.0 |
| 20260902084431 | 82 | 230 | 10.0 | 16.0 | 0.00 | 0.06 | 0.00 | 87 | 1011.1 |
| 20260902084331 | 82 | 234 | 10.0 | 16.0 | 0.00 | 0.06 | 0.00 | 86 | 1011.1 |
| 20260902084232 | 82 | 275 | 10.0 | 16.0 | 0.00 | 0.06 | 0.00 | 86 | 1011.0 |
| 20260902084132 | 82 | 244 | 9.0 | 16.0 | 0.00 | 0.06 | 0.00 | 86 | 1011.0 |
| 20260902084032 | 82 | 180 | 9.0 | 16.0 | 0.00 | 0.06 | 0.00 | 86 | 1011.1 |
| 20260902083932 | 82 | 269 | 9.0 | 16.0 | 0.00 | 0.06 | 0.00 | 86 | 1011.1 |
| 20260902083830 | 82 | 231 | 9.0 | 16.0 | 0.00 | 0.06 | 0.00 | 86 | 1011.1 |
| 20260902083730 | 82 | 235 | 10.0 | 16.0 | 0.00 | 0.06 | 0.00 | 86 | 1011.1 |
| 20260902083631 | 82 | 250 | 11.0 | 16.0 | 0.00 | 0.06 | 0.00 | 86 | 1011.0 |
| 20260902083531 | 82 | 247 | 11.0 | 16.0 | 0.00 | 0.06 | 0.00 | 86 | 1011.1 |
| 20260902083432 | 82 | 264 | 10.0 | 16.0 | 0.00 | 0.06 | 0.00 | 86 | 1011.1 |
| 20260902083330 | 82 | 250 | 9.0 | 15.0 | 0.00 | 0.06 | 0.00 | 86 | 1011.1 |
| 20260902083232 | 82 | 221 | 8.0 | 15.0 | 0.00 | 0.06 | 0.00 | 86 | 1011.1 |
| 20260902083132 | 82 | 240 | 8.0 | 15.0 | 0.00 | 0.06 | 0.00 | 86 | 1011.1 |
| 20260902083032 | 82 | 241 | 9.0 | 15.0 | 0.00 | 0.06 | 0.00 | 86 | 1011.2 |
| 20260902082932 | 82 | 212 | 10.0 | 14.0 | 0.00 | 0.06 | 0.00 | 86 | 1011.2 |
| 20260902082832 | 82 | 241 | 11.0 | 14.0 | 0.00 | 0.06 | 0.00 | 86 | 1011.2 |
| 20260902082732 | 82 | 227 | 9.0 | 14.0 | 0.00 | 0.06 | 0.00 | 86 | 1011.2 |
| 20260902082631 | 82 | 202 | 10.0 | 15.0 | 0.00 | 0.06 | 0.00 | 86 | 1011.3 |
| 20260902082532 | 82 | 245 | 9.0 | 15.0 | 0.00 | 0.06 | 0.00 | 86 | 1011.2 |
| 20260902082433 | 82 | 224 | 8.0 | 15.0 | 0.00 | 0.06 | 0.00 | 86 | 1011.2 |
| 20260902082331 | 82 | 250 | 8.0 | 15.0 | 0.00 | 0.06 | 0.00 | 86 | 1011.1 |
| 20260902082232 | 82 | 244 | 8.0 | 15.0 | 0.00 | 0.06 | 0.00 | 86 | 1011.1 |
| 20260902082131 | 82 | 235 | 8.0 | 15.0 | 0.00 | 0.06 | 0.00 | 86 | 1011.1 |
| 20260902082031 | 82 | 261 | 9.0 | 15.0 | 0.00 | 0.06 | 0.00 | 86 | 1011.1 |
| 20260902081933 | 82 | 251 | 9.0 | 15.0 | 0.00 | 0.06 | 0.00 | 86 | 1011.1 |
| 20260902081832 | 82 | 241 | 10.0 | 15.0 | 0.00 | 0.06 | 0.00 | 86 | 1011.1 |
| 20260902081732 | 82 | 226 | 10.0 | 15.0 | 0.00 | 0.06 | 0.00 | 86 | 1011.1 |
| 20260902081631 | 82 | 228 | 9.0 | 15.0 | 0.00 | 0.06 | 0.00 | 86 | 1011.2 |
| 20260902081532 | 82 | 238 | 9.0 | 15.0 | 0.00 | 0.06 | 0.00 | 85 | 1011.2 |
| 20260902081431 | 82 | 230 | 10.0 | 15.0 | 0.00 | 0.06 | 0.00 | 85 | 1011.1 |
| 20260902081331 | 82 | 243 | 11.0 | 15.0 | 0.00 | 0.06 | 0.00 | 85 | 1011.1 |
| 20260902081232 | 82 | 235 | 11.0 | 14.0 | 0.00 | 0.06 | 0.00 | 85 | 1011.2 |
| 20260902081132 | 82 | 234 | 10.0 | 14.0 | 0.00 | 0.06 | 0.00 | 85 | 1011.2 |
| 20260902081030 | 82 | 230 | 9.0 | 14.0 | 0.00 | 0.06 | 0.00 | 85 | 1011.1 |
| 20260902080931 | 82 | 247 | 8.0 | 13.0 | 0.00 | 0.06 | 0.00 | 85 | 1011.2 |
| 20260902080833 | 82 | 233 | 7.0 | 13.0 | 0.00 | 0.06 | 0.00 | 85 | 1011.1 |
| 20260902080732 | 82 | 254 | 8.0 | 13.0 | 0.00 | 0.06 | 0.00 | 85 | 1011.1 |
| 20260902080632 | 82 | 228 | 8.0 | 13.0 | 0.00 | 0.06 | 0.00 | 85 | 1011.2 |
| 20260902080533 | 82 | 217 | 7.0 | 13.0 | 0.00 | 0.06 | 0.00 | 85 | 1011.2 |
| 20260902080432 | 82 | 207 | 8.0 | 13.0 | 0.00 | 0.06 | 0.00 | 85 | 1011.2 |
| 20260902080331 | 82 | 254 | 9.0 | 13.0 | 0.00 | 0.06 | 0.00 | 85 | 1011.2 |
| 20260902080231 | 82 | 221 | 9.0 | 13.0 | 0.00 | 0.06 | 0.00 | 85 | 1011.2 |
| 20260902080131 | 81 | 217 | 9.0 | 12.0 | 0.00 | 0.06 | 0.00 | 85 | 1011.2 |
| 20260902080032 | 82 | 220 | 8.0 | 12.0 | 0.00 | 0.06 | 0.00 | 84 | 1011.2 |
| 20260902075932 | 81 | 221 | 8.0 | 11.0 | 0.00 | 0.06 | 0.00 | 84 | 1011.2 |
| 20260902075832 | 81 | 235 | 7.0 | 11.0 | 0.00 | 0.06 | 0.00 | 84 | 1011.2 |
| 20260902075731 | 81 | 244 | 7.0 | 11.0 | 0.00 | 0.06 | 0.00 | 84 | 1011.2 |
| 20260902075631 | 81 | 245 | 6.0 | 11.0 | 0.00 | 0.06 | 0.00 | 84 | 1011.2 |
| 20260902075533 | 81 | 224 | 6.0 | 11.0 | 0.00 | 0.06 | 0.00 | 83 | 1011.2 |
| 20260902075431 | 81 | 262 | 7.0 | 11.0 | 0.00 | 0.06 | 0.00 | 83 | 1011.2 |
| 20260902075332 | 81 | 252 | 7.0 | 11.0 | 0.00 | 0.06 | 0.00 | 83 | 1011.2 |
| 20260902075230 | 81 | 238 | 7.0 | 11.0 | 0.00 | 0.06 | 0.00 | 83 | 1011.2 |
| 20260902075131 | 81 | 244 | 7.0 | 11.0 | 0.00 | 0.06 | 0.00 | 83 | 1011.1 |
| 20260902075031 | 81 | 244 | 7.0 | 11.0 | 0.00 | 0.06 | 0.00 | 83 | 1011.2 |
| 20260902074932 | 81 | 227 | 7.0 | 11.0 | 0.00 | 0.06 | 0.00 | 83 | 1011.1 |
| 20260902074832 | 82 | 243 | 6.0 | 11.0 | 0.00 | 0.06 | 0.00 | 82 | 1011.2 |
| 20260902074732 | 82 | 234 | 6.0 | 12.0 | 0.00 | 0.06 | 0.00 | 82 | 1011.2 |
| 20260902074632 | 82 | 238 | 6.0 | 12.0 | 0.00 | 0.06 | 0.00 | 82 | 1011.2 |
| 20260902074531 | 82 | 226 | 6.0 | 12.0 | 0.00 | 0.06 | 0.00 | 82 | 1011.3 |
| 20260902074432 | 82 | 244 | 6.0 | 12.0 | 0.00 | 0.06 | 0.00 | 82 | 1011.2 |
| 20260902074334 | 82 | 258 | 7.0 | 12.0 | 0.00 | 0.06 | 0.00 | 82 | 1011.3 |
| 20260902074230 | 82 | 255 | 7.0 | 12.0 | 0.00 | 0.06 | 0.00 | 82 | 1011.2 |
| 20260902074131 | 82 | 227 | 6.0 | 12.0 | 0.00 | 0.06 | 0.00 | 81 | 1011.2 |
| 20260902074031 | 82 | 259 | 7.0 | 12.0 | 0.00 | 0.06 | 0.00 | 81 | 1011.4 |
| 20260902073931 | 82 | 243 | 7.0 | 12.0 | 0.00 | 0.06 | 0.00 | 81 | 1011.3 |
| 20260902073833 | 82 | 251 | 7.0 | 12.0 | 0.00 | 0.06 | 0.00 | 81 | 1011.3 |
| 20260902073732 | 82 | 223 | 6.0 | 11.0 | 0.00 | 0.06 | 0.00 | 81 | 1011.3 |
| 20260902073631 | 82 | 217 | 6.0 | 11.0 | 0.00 | 0.06 | 0.00 | 81 | 1011.3 |
| 20260902073531 | 82 | 244 | 6.0 | 11.0 | 0.00 | 0.06 | 0.00 | 81 | 1011.3 |
| 20260902073432 | 82 | 251 | 7.0 | 11.0 | 0.00 | 0.06 | 0.00 | 81 | 1011.4 |
| 20260902073331 | 82 | 217 | 7.0 | 11.0 | 0.00 | 0.06 | 0.00 | 80 | 1011.4 |
| 20260902073231 | 82 | 219 | 7.0 | 11.0 | 0.00 | 0.06 | 0.00 | 80 | 1011.3 |
| 20260902073134 | 82 | 264 | 7.0 | 11.0 | 0.00 | 0.06 | 0.00 | 80 | 1011.3 |
| 20260902073031 | 82 | 235 | 6.0 | 11.0 | 0.00 | 0.06 | 0.00 | 80 | 1011.4 |
| 20260902072931 | 82 | 206 | 7.0 | 11.0 | 0.00 | 0.06 | 0.00 | 80 | 1011.4 |
| 20260902072832 | 82 | 206 | 7.0 | 11.0 | 0.00 | 0.06 | 0.00 | 80 | 1011.4 |
| 20260902072733 | 82 | 241 | 7.0 | 11.0 | 0.00 | 0.06 | 0.00 | 81 | 1011.4 |
| 20260902072631 | 82 | 257 | 7.0 | 11.0 | 0.00 | 0.06 | 0.00 | 81 | 1011.5 |
| 20260902072531 | 82 | 228 | 6.0 | 11.0 | 0.00 | 0.06 | 0.00 | 81 | 1011.5 |
| 20260902072433 | 82 | 230 | 6.0 | 11.0 | 0.00 | 0.06 | 0.00 | 81 | 1011.4 |
| 20260902072331 | 82 | 243 | 6.0 | 11.0 | 0.00 | 0.06 | 0.00 | 81 | 1011.5 |
| 20260902072230 | 82 | 210 | 6.0 | 11.0 | 0.00 | 0.06 | 0.00 | 81 | 1011.4 |
| 20260902072131 | 82 | 251 | 6.0 | 11.0 | 0.00 | 0.06 | 0.00 | 81 | 1011.5 |
| 20260902072032 | 82 | 241 | 6.0 | 11.0 | 0.00 | 0.06 | 0.00 | 81 | 1011.5 |
| 20260902071931 | 82 | 230 | 6.0 | 12.0 | 0.00 | 0.06 | 0.00 | 81 | 1011.5 |
| 20260902071832 | 82 | 217 | 7.0 | 12.0 | 0.00 | 0.06 | 0.00 | 81 | 1011.4 |
| 20260902071732 | 82 | 261 | 7.0 | 12.0 | 0.00 | 0.06 | 0.00 | 81 | 1011.5 |
| 20260902071631 | 82 | 213 | 7.0 | 12.0 | 0.00 | 0.06 | 0.00 | 81 | 1011.5 |
| 20260902071531 | 82 | 241 | 6.0 | 12.0 | 0.00 | 0.06 | 0.00 | 81 | 1011.5 |
| 20260902071432 | 82 | 257 | 7.0 | 12.0 | 0.00 | 0.06 | 0.00 | 82 | 1011.5 |
| 20260902071332 | 82 | 245 | 6.0 | 12.0 | 0.00 | 0.06 | 0.00 | 82 | 1011.6 |
| 20260902071232 | 82 | 231 | 7.0 | 12.0 | 0.00 | 0.06 | 0.00 | 82 | 1011.5 |
| 20260902071131 | 82 | 265 | 7.0 | 12.0 | 0.00 | 0.06 | 0.00 | 82 | 1011.5 |
| 20260902071033 | 82 | 245 | 8.0 | 12.0 | 0.00 | 0.06 | 0.00 | 82 | 1011.5 |
| 20260902070931 | 82 | 213 | 7.0 | 12.0 | 0.00 | 0.06 | 0.00 | 82 | 1011.6 |
| 20260902070831 | 82 | 292 | 6.0 | 11.0 | 0.00 | 0.06 | 0.00 | 82 | 1011.4 |
| 20260902070731 | 82 | 243 | 6.0 | 11.0 | 0.00 | 0.06 | 0.00 | 82 | 1011.5 |
| 20260902070630 | 82 | 244 | 6.0 | 11.0 | 0.00 | 0.06 | 0.00 | 82 | 1011.5 |
| 20260902070530 | 82 | 258 | 7.0 | 11.0 | 0.00 | 0.06 | 0.00 | 82 | 1011.5 |
| 20260902070431 | 82 | 264 | 7.0 | 11.0 | 0.00 | 0.06 | 0.00 | 82 | 1011.5 |
| 20260902070336 | 82 | 227 | 7.0 | 11.0 | 0.00 | 0.06 | 0.00 | 82 | 1011.5 |
| 20260902070234 | 82 | 223 | 7.0 | 11.0 | 0.00 | 0.06 | 0.00 | 82 | 1011.4 |
| 20260902070132 | 82 | 217 | 7.0 | 11.0 | 0.00 | 0.06 | 0.00 | 82 | 1011.5 |
| 20260902070032 | 81 | 244 | 6.0 | 7.0 | 0.00 | 0.06 | 0.00 | 82 | 1011.5 |
| 20260902065931 | 81 | 217 | 6.0 | 7.0 | 0.00 | 0.06 | 0.00 | 82 | 1011.4 |
| 20260902065831 | 81 | 237 | 5.0 | 7.0 | 0.00 | 0.06 | 0.00 | 82 | 1011.4 |
| 20260902065732 | 81 | 238 | 4.0 | 7.0 | 0.00 | 0.06 | 0.00 | 82 | 1011.4 |
| 20260902065633 | 81 | 227 | 4.0 | 9.0 | 0.00 | 0.06 | 0.00 | 82 | 1011.4 |
| 20260902065532 | 81 | 275 | 4.0 | 9.0 | 0.00 | 0.06 | 0.00 | 82 | 1011.4 |
| 20260902065431 | 81 | 247 | 4.0 | 9.0 | 0.00 | 0.06 | 0.00 | 82 | 1011.4 |
| 20260902065333 | 81 | 251 | 3.0 | 9.0 | 0.00 | 0.06 | 0.00 | 82 | 1011.4 |
| 20260902065231 | 81 | 252 | 3.0 | 9.0 | 0.00 | 0.06 | 0.00 | 82 | 1011.4 |
| 20260902065133 | 82 | 223 | 3.0 | 9.0 | 0.00 | 0.06 | 0.00 | 82 | 1011.5 |
| 20260902065032 | 82 | 268 | 4.0 | 9.0 | 0.00 | 0.06 | 0.00 | 82 | 1011.5 |
| 20260902064932 | 82 | 234 | 5.0 | 9.0 | 0.00 | 0.06 | 0.00 | 82 | 1011.4 |
| 20260902064830 | 82 | 230 | 5.0 | 9.0 | 0.00 | 0.06 | 0.00 | 82 | 1011.4 |
| 20260902064730 | 82 | 231 | 4.0 | 9.0 | 0.00 | 0.06 | 0.00 | 82 | 1011.4 |
| 20260902064628 | 82 | 227 | 4.0 | 9.0 | 0.00 | 0.06 | 0.00 | 82 | 1011.3 |
| 20260902064526 | 82 | 265 | 4.0 | 9.0 | 0.00 | 0.06 | 0.00 | 82 | 1011.4 |
| 20260902064425 | 82 | 237 | 5.0 | 9.0 | 0.00 | 0.06 | 0.00 | 81 | 1011.4 |
| 20260902064325 | 82 | 265 | 5.0 | 9.0 | 0.00 | 0.06 | 0.00 | 81 | 1011.5 |
| 20260902064222 | 82 | 262 | 5.0 | 9.0 | 0.00 | 0.06 | 0.00 | 81 | 1011.5 |
| 20260902064120 | 82 | 258 | 6.0 | 9.0 | 0.00 | 0.06 | 0.00 | 81 | 1011.5 |
| 20260902064018 | 82 | 248 | 5.0 | 9.0 | 0.00 | 0.06 | 0.00 | 81 | 1011.5 |
| 20260902063919 | 82 | 257 | 5.0 | 9.0 | 0.00 | 0.06 | 0.00 | 81 | 1011.5 |
| 20260902063816 | 82 | 243 | 5.0 | 9.0 | 0.00 | 0.06 | 0.00 | 81 | 1011.6 |
| 20260902063716 | 82 | 233 | 5.0 | 9.0 | 0.00 | 0.06 | 0.00 | 81 | 1011.5 |
| 20260902063613 | 82 | 235 | 6.0 | 9.0 | 0.00 | 0.06 | 0.00 | 81 | 1011.5 |
| 20260902063513 | 82 | 238 | 6.0 | 9.0 | 0.00 | 0.06 | 0.00 | 81 | 1011.5 |
| 20260902063409 | 82 | 241 | 6.0 | 9.0 | 0.00 | 0.06 | 0.00 | 81 | 1011.4 |
| 20260902063307 | 82 | 240 | 6.0 | 7.0 | 0.00 | 0.06 | 0.00 | 81 | 1011.4 |
| 20260902063205 | 82 | 237 | 6.0 | 7.0 | 0.00 | 0.06 | 0.00 | 81 | 1011.5 |
| 20260902063103 | 82 | 235 | 6.0 | 7.0 | 0.00 | 0.06 | 0.00 | 81 | 1011.5 |
| 20260902063003 | 82 | 235 | 5.0 | 6.0 | 0.00 | 0.06 | 0.00 | 81 | 1011.4 |
| 20260902062904 | 82 | 252 | 4.0 | 6.0 | 0.00 | 0.06 | 0.00 | 81 | 1011.5 |
| 20260902062802 | 82 | 248 | 4.0 | 6.0 | 0.00 | 0.06 | 0.00 | 81 | 1011.5 |
| 20260902062703 | 82 | 292 | 5.0 | 6.0 | 0.00 | 0.06 | 0.00 | 81 | 1011.4 |
| 20260902062602 | 82 | 237 | 4.0 | 7.0 | 0.00 | 0.06 | 0.00 | 81 | 1011.5 |
| 20260902062503 | 82 | 275 | 4.0 | 7.0 | 0.00 | 0.06 | 0.00 | 81 | 1011.5 |
| 20260902062404 | 82 | 220 | 4.0 | 7.0 | 0.00 | 0.06 | 0.00 | 81 | 1011.5 |
| 20260902062305 | 82 | 207 | 3.0 | 7.0 | 0.00 | 0.06 | 0.00 | 81 | 1011.5 |
| 20260902062202 | 82 | 271 | 4.0 | 7.0 | 0.00 | 0.06 | 0.00 | 81 | 1011.5 |
| 20260902062102 | 82 | 266 | 4.0 | 7.0 | 0.00 | 0.06 | 0.00 | 81 | 1011.5 |
| 20260902062005 | 82 | 276 | 3.0 | 7.0 | 0.00 | 0.06 | 0.00 | 81 | 1011.5 |
| 20260902061903 | 82 | 266 | 3.0 | 7.0 | 0.00 | 0.06 | 0.00 | 81 | 1011.4 |
| 20260902061802 | 82 | 266 | 4.0 | 7.0 | 0.00 | 0.06 | 0.00 | 81 | 1011.4 |
| 20260902061702 | 82 | 292 | 5.0 | 7.0 | 0.00 | 0.06 | 0.00 | 81 | 1011.4 |
| 20260902061602 | 82 | 290 | 5.0 | 7.0 | 0.00 | 0.06 | 0.00 | 81 | 1011.4 |
| 20260902061502 | 82 | 259 | 4.0 | 7.0 | 0.00 | 0.06 | 0.00 | 81 | 1011.4 |
| 20260902061402 | 82 | 286 | 4.0 | 7.0 | 0.00 | 0.06 | 0.00 | 81 | 1011.4 |
| 20260902061304 | 82 | 272 | 4.0 | 7.0 | 0.00 | 0.06 | 0.00 | 81 | 1011.3 |
| 20260902061202 | 82 | 262 | 4.0 | 7.0 | 0.00 | 0.06 | 0.00 | 81 | 1011.3 |
| 20260902061103 | 82 | 265 | 3.0 | 7.0 | 0.00 | 0.06 | 0.00 | 81 | 1011.3 |
| 20260902061005 | 82 | 313 | 4.0 | 7.0 | 0.00 | 0.06 | 0.00 | 81 | 1011.2 |
| 20260902060903 | 82 | 276 | 4.0 | 7.0 | 0.00 | 0.06 | 0.00 | 81 | 1011.3 |
| 20260902060801 | 82 | 296 | 5.0 | 9.0 | 0.00 | 0.06 | 0.00 | 81 | 1011.2 |
| 20260902060701 | 82 | 292 | 5.0 | 9.0 | 0.00 | 0.06 | 0.00 | 81 | 1011.3 |
| 20260902060602 | 82 | 262 | 5.0 | 9.0 | 0.00 | 0.06 | 0.00 | 81 | 1011.3 |
| 20260902060502 | 82 | 283 | 5.0 | 9.0 | 0.00 | 0.06 | 0.00 | 81 | 1011.2 |
| 20260902060402 | 82 | 275 | 4.0 | 9.0 | 0.00 | 0.06 | 0.00 | 81 | 1011.1 |
| 20260902060302 | 82 | 259 | 4.0 | 9.0 | 0.00 | 0.06 | 0.00 | 81 | 1011.2 |
| 20260902060203 | 82 | 262 | 4.0 | 9.0 | 0.00 | 0.06 | 0.00 | 81 | 1011.2 |
| 20260902060105 | 82 | 288 | 4.0 | 9.0 | 0.00 | 0.06 | 0.00 | 81 | 1011.2 |
| 20260902060002 | 82 | 271 | 5.0 | 9.0 | 0.00 | 0.06 | 0.00 | 81 | 1011.2 |
| 20260902055903 | 82 | 269 | 5.0 | 9.0 | 0.00 | 0.06 | 0.00 | 81 | 1011.2 |
| 20260902055802 | 82 | 262 | 5.0 | 9.0 | 0.00 | 0.06 | 0.00 | 81 | 1011.1 |
| 20260902055703 | 82 | 272 | 5.0 | 10.0 | 0.00 | 0.06 | 0.00 | 81 | 1011.1 |
| 20260902055603 | 82 | 275 | 5.0 | 10.0 | 0.00 | 0.06 | 0.00 | 81 | 1011.1 |
| 20260902055502 | 82 | 247 | 5.0 | 10.0 | 0.00 | 0.06 | 0.00 | 81 | 1011.2 |
| 20260902055403 | 82 | 285 | 5.0 | 10.0 | 0.00 | 0.06 | 0.00 | 82 | 1011.0 |
| 20260902055306 | 82 | 275 | 6.0 | 10.0 | 0.00 | 0.06 | 0.00 | 81 | 1011.1 |
| 20260902055203 | 82 | 290 | 6.0 | 10.0 | 0.00 | 0.06 | 0.00 | 82 | 1011.1 |
| 20260902055100 | 82 | 317 | 5.0 | 10.0 | 0.00 | 0.06 | 0.00 | 82 | 1011.1 |
| 20260902055000 | 81 | 254 | 6.0 | 10.0 | 0.00 | 0.06 | 0.00 | 82 | 1011.1 |
| 20260902054858 | 81 | 230 | 7.0 | 10.0 | 0.00 | 0.06 | 0.00 | 82 | 1011.1 |
| 20260902054756 | 81 | 259 | 6.0 | 10.0 | 0.00 | 0.06 | 0.00 | 82 | 1011.2 |
| 20260902054653 | 81 | 259 | 5.0 | 10.0 | 0.00 | 0.06 | 0.00 | 82 | 1011.2 |
| 20260902054554 | 81 | 259 | 5.0 | 10.0 | 0.00 | 0.06 | 0.00 | 82 | 1011.2 |
| 20260902054451 | 81 | 276 | 4.0 | 10.0 | 0.00 | 0.06 | 0.00 | 82 | 1011.2 |
| 20260902054349 | 81 | 290 | 4.0 | 10.0 | 0.00 | 0.06 | 0.00 | 82 | 1011.2 |
| 20260902054249 | 81 | 259 | 5.0 | 10.0 | 0.00 | 0.06 | 0.00 | 82 | 1011.2 |
| 20260902054147 | 81 | 268 | 6.0 | 10.0 | 0.00 | 0.06 | 0.00 | 82 | 1011.3 |
| 20260902054044 | 81 | 245 | 5.0 | 9.0 | 0.00 | 0.06 | 0.00 | 82 | 1011.2 |
| 20260902053945 | 81 | 223 | 5.0 | 9.0 | 0.00 | 0.06 | 0.00 | 83 | 1011.3 |
| 20260902053843 | 81 | 262 | 5.0 | 9.0 | 0.00 | 0.06 | 0.00 | 83 | 1011.2 |
| 20260902053741 | 81 | 244 | 4.0 | 9.0 | 0.00 | 0.06 | 0.00 | 83 | 1011.2 |
| 20260902053640 | 81 | 235 | 5.0 | 9.0 | 0.00 | 0.06 | 0.00 | 83 | 1011.2 |
| 20260902053539 | 81 | 282 | 5.0 | 9.0 | 0.00 | 0.06 | 0.00 | 83 | 1011.3 |
| 20260902053435 | 81 | 245 | 4.0 | 9.0 | 0.00 | 0.06 | 0.00 | 83 | 1011.3 |
| 20260902053335 | 81 | 244 | 5.0 | 9.0 | 0.00 | 0.06 | 0.00 | 83 | 1011.2 |
| 20260902053232 | 81 | 250 | 6.0 | 9.0 | 0.00 | 0.06 | 0.00 | 83 | 1011.3 |
| 20260902053134 | 81 | 241 | 6.0 | 9.0 | 0.00 | 0.06 | 0.00 | 83 | 1011.2 |
| 20260902053031 | 81 | 254 | 5.0 | 9.0 | 0.00 | 0.06 | 0.00 | 83 | 1011.3 |
| 20260902052931 | 81 | 237 | 5.0 | 9.0 | 0.00 | 0.06 | 0.00 | 83 | 1011.3 |
| 20260902052833 | 81 | 223 | 5.0 | 9.0 | 0.00 | 0.06 | 0.00 | 83 | 1011.3 |
| 20260902052732 | 81 | 247 | 4.0 | 9.0 | 0.00 | 0.06 | 0.00 | 83 | 1011.3 |
| 20260902052631 | 81 | 245 | 4.0 | 10.0 | 0.00 | 0.06 | 0.00 | 83 | 1011.3 |
| 20260902052531 | 81 | 264 | 5.0 | 10.0 | 0.00 | 0.06 | 0.00 | 83 | 1011.3 |
| 20260902052432 | 81 | 258 | 5.0 | 10.0 | 0.00 | 0.06 | 0.00 | 83 | 1011.3 |
| 20260902052332 | 81 | 250 | 4.0 | 10.0 | 0.00 | 0.06 | 0.00 | 83 | 1011.3 |
| 20260902052230 | 81 | 264 | 5.0 | 10.0 | 0.00 | 0.06 | 0.00 | 83 | 1011.3 |
| 20260902052133 | 81 | 252 | 5.0 | 10.0 | 0.00 | 0.06 | 0.00 | 83 | 1011.2 |
| 20260902052032 | 81 | 292 | 4.0 | 11.0 | 0.00 | 0.06 | 0.00 | 83 | 1011.2 |
| 20260902051932 | 81 | 281 | 6.0 | 11.0 | 0.00 | 0.06 | 0.00 | 84 | 1011.1 |
| 20260902051832 | 81 | 283 | 6.0 | 11.0 | 0.00 | 0.06 | 0.00 | 84 | 1011.2 |
| 20260902051731 | 81 | 243 | 6.0 | 11.0 | 0.00 | 0.06 | 0.00 | 84 | 1011.2 |
| 20260902051632 | 81 | 217 | 6.0 | 11.0 | 0.00 | 0.06 | 0.00 | 84 | 1011.1 |
| 20260902051531 | 81 | 272 | 5.0 | 11.0 | 0.00 | 0.06 | 0.00 | 84 | 1011.1 |
| 20260902051431 | 81 | 295 | 5.0 | 11.0 | 0.00 | 0.06 | 0.00 | 84 | 1011.1 |
| 20260902051332 | 81 | 210 | 6.0 | 11.0 | 0.00 | 0.06 | 0.00 | 84 | 1011.1 |
| 20260902051231 | 81 | 268 | 7.0 | 11.0 | 0.00 | 0.06 | 0.00 | 84 | 1011.1 |
| 20260902051132 | 81 | 261 | 8.0 | 11.0 | 0.00 | 0.06 | 0.00 | 84 | 1011.1 |
| 20260902051033 | 81 | 261 | 6.0 | 10.0 | 0.00 | 0.06 | 0.00 | 84 | 1011.2 |
| 20260902050931 | 81 | 271 | 6.0 | 10.0 | 0.00 | 0.06 | 0.00 | 84 | 1011.3 |
| 20260902050831 | 81 | 251 | 7.0 | 10.0 | 0.00 | 0.06 | 0.00 | 84 | 1011.3 |
| 20260902050731 | 81 | 248 | 6.0 | 10.0 | 0.00 | 0.06 | 0.00 | 84 | 1011.3 |
| 20260902050631 | 81 | 217 | 6.0 | 10.0 | 0.00 | 0.06 | 0.00 | 84 | 1011.4 |
| 20260902050531 | 81 | 227 | 6.0 | 10.0 | 0.00 | 0.06 | 0.00 | 84 | 1011.4 |
| 20260902050432 | 81 | 243 | 6.0 | 10.0 | 0.00 | 0.06 | 0.00 | 84 | 1011.5 |
| 20260902050331 | 81 | 264 | 6.0 | 10.0 | 0.00 | 0.06 | 0.00 | 84 | 1011.4 |
| 20260902050232 | 81 | 258 | 6.0 | 10.0 | 0.00 | 0.06 | 0.00 | 84 | 1011.5 |
| 20260902050131 | 81 | 250 | 6.0 | 10.0 | 0.00 | 0.06 | 0.00 | 84 | 1011.5 |
| 20260902050032 | 81 | 259 | 6.0 | 10.0 | 0.00 | 0.06 | 0.00 | 84 | 1011.4 |
| 20260902045931 | 81 | 251 | 6.0 | 10.0 | 0.00 | 0.06 | 0.06 | 84 | 1011.4 |
| 20260902045831 | 81 | 252 | 6.0 | 10.0 | 0.00 | 0.06 | 0.06 | 84 | 1011.4 |
| 20260902045732 | 81 | 221 | 6.0 | 10.0 | 0.00 | 0.06 | 0.06 | 84 | 1011.4 |
| 20260902045632 | 81 | 257 | 7.0 | 10.0 | 0.00 | 0.06 | 0.06 | 84 | 1011.4 |
| 20260902045531 | 81 | 250 | 6.0 | 10.0 | 0.00 | 0.06 | 0.06 | 84 | 1011.3 |
| 20260902045432 | 81 | 264 | 6.0 | 10.0 | 0.00 | 0.06 | 0.06 | 84 | 1011.3 |
| 20260902045332 | 81 | 264 | 6.0 | 10.0 | 0.00 | 0.06 | 0.06 | 84 | 1011.4 |
| 20260902045231 | 81 | 261 | 6.0 | 10.0 | 0.00 | 0.06 | 0.06 | 84 | 1011.4 |
| 20260902045131 | 81 | 227 | 6.0 | 10.0 | 0.00 | 0.06 | 0.06 | 84 | 1011.4 |
| 20260902045032 | 81 | 255 | 6.0 | 10.0 | 0.00 | 0.06 | 0.06 | 84 | 1011.4 |
| 20260902044931 | 81 | 231 | 5.0 | 9.0 | 0.00 | 0.06 | 0.06 | 84 | 1011.3 |
| 20260902044830 | 81 | 252 | 5.0 | 9.0 | 0.00 | 0.06 | 0.06 | 84 | 1011.4 |
| 20260902044732 | 81 | 0 | 5.0 | 9.0 | 0.00 | 0.06 | 0.06 | 84 | 1011.4 |
| 20260902044630 | 81 | 0 | 4.0 | 9.0 | 0.00 | 0.06 | 0.06 | 84 | 1011.4 |
| 20260902044530 | 81 | 0 | 4.0 | 9.0 | 0.00 | 0.06 | 0.06 | 84 | 1011.3 |
| 20260902044430 | 81 | 0 | 4.0 | 9.0 | 0.00 | 0.06 | 0.06 | 84 | 1011.4 |
| 20260902044332 | 81 | 0 | 5.0 | 9.0 | 0.00 | 0.06 | 0.06 | 84 | 1011.4 |
| 20260902044231 | 81 | 0 | 5.0 | 9.0 | 0.00 | 0.06 | 0.06 | 85 | 1011.4 |
| 20260902044132 | 81 | 0 | 5.0 | 7.0 | 0.00 | 0.06 | 0.06 | 85 | 1011.4 |
| 20260902044032 | 81 | 0 | 4.0 | 7.0 | 0.00 | 0.06 | 0.06 | 85 | 1011.4 |
| 20260902043930 | 81 | 0 | 4.0 | 7.0 | 0.00 | 0.06 | 0.06 | 85 | 1011.4 |
| 20260902043830 | 81 | 0 | 5.0 | 7.0 | 0.00 | 0.06 | 0.06 | 85 | 1011.4 |
| 20260902043729 | 81 | 0 | 5.0 | 7.0 | 0.00 | 0.06 | 0.06 | 85 | 1011.4 |
| 20260902043630 | 81 | 0 | 5.0 | 7.0 | 0.00 | 0.06 | 0.06 | 85 | 1011.4 |
| 20260902043531 | 81 | 0 | 5.0 | 7.0 | 0.00 | 0.06 | 0.06 | 85 | 1011.4 |
| 20260902043430 | 81 | 0 | 5.0 | 7.0 | 0.00 | 0.06 | 0.06 | 85 | 1011.4 |
| 20260902043330 | 81 | 0 | 5.0 | 7.0 | 0.00 | 0.06 | 0.06 | 85 | 1011.4 |
| 20260902043230 | 81 | 0 | 4.0 | 6.0 | 0.00 | 0.06 | 0.06 | 85 | 1011.4 |
| 20260902043129 | 81 | 0 | 4.0 | 6.0 | 0.00 | 0.06 | 0.06 | 85 | 1011.5 |
| 20260902043029 | 81 | 0 | 3.0 | 6.0 | 0.00 | 0.06 | 0.06 | 85 | 1011.5 |
| 20260902042929 | 81 | 0 | 2.0 | 6.0 | 0.00 | 0.06 | 0.06 | 85 | 1011.5 |
| 20260902042830 | 81 | 0 | 3.0 | 7.0 | 0.00 | 0.06 | 0.06 | 85 | 1011.6 |
| 20260902042730 | 81 | 0 | 3.0 | 9.0 | 0.00 | 0.06 | 0.06 | 85 | 1011.5 |
| 20260902042629 | 81 | 0 | 3.0 | 9.0 | 0.00 | 0.06 | 0.06 | 85 | 1011.6 |
| 20260902042530 | 81 | 0 | 4.0 | 9.0 | 0.00 | 0.06 | 0.06 | 85 | 1011.6 |
| 20260902042429 | 81 | 0 | 3.0 | 9.0 | 0.00 | 0.06 | 0.06 | 85 | 1011.5 |
| 20260902042329 | 81 | 0 | 4.0 | 9.0 | 0.00 | 0.06 | 0.06 | 85 | 1011.5 |
| 20260902042231 | 81 | 0 | 4.0 | 9.0 | 0.00 | 0.06 | 0.06 | 86 | 1011.5 |
| 20260902042130 | 81 | 0 | 4.0 | 9.0 | 0.00 | 0.06 | 0.06 | 86 | 1011.6 |
| 20260902042030 | 80 | 0 | 4.0 | 9.0 | 0.00 | 0.06 | 0.06 | 86 | 1011.5 |
| 20260902041929 | 81 | 0 | 5.0 | 9.0 | 0.00 | 0.06 | 0.06 | 86 | 1011.6 |
| 20260902041829 | 80 | 0 | 5.0 | 9.0 | 0.00 | 0.06 | 0.06 | 86 | 1011.5 |
| 20260902041730 | 80 | 0 | 4.0 | 7.0 | 0.00 | 0.06 | 0.06 | 86 | 1011.5 |
| 20260902041631 | 80 | 0 | 4.0 | 7.0 | 0.00 | 0.06 | 0.06 | 86 | 1011.5 |
| 20260902041530 | 80 | 0 | 5.0 | 7.0 | 0.00 | 0.06 | 0.06 | 86 | 1011.5 |
| 20260902041430 | 80 | 0 | 5.0 | 7.0 | 0.00 | 0.06 | 0.06 | 86 | 1011.6 |
| 20260902041329 | 80 | 0 | 4.0 | 7.0 | 0.00 | 0.06 | 0.06 | 86 | 1011.5 |
| 20260902041229 | 80 | 0 | 5.0 | 7.0 | 0.00 | 0.06 | 0.06 | 86 | 1011.5 |
| 20260902041131 | 80 | 0 | 4.0 | 9.0 | 0.00 | 0.06 | 0.06 | 86 | 1011.6 |
| 20260902041029 | 80 | 0 | 4.0 | 9.0 | 0.00 | 0.06 | 0.06 | 86 | 1011.6 |
| 20260902040929 | 80 | 0 | 4.0 | 9.0 | 0.00 | 0.06 | 0.06 | 86 | 1011.6 |
| 20260902040829 | 80 | 0 | 4.0 | 9.0 | 0.00 | 0.06 | 0.06 | 86 | 1011.7 |
| 20260902040729 | 80 | 0 | 4.0 | 9.0 | 0.00 | 0.06 | 0.06 | 87 | 1011.7 |
| 20260902040631 | 80 | 0 | 4.0 | 9.0 | 0.00 | 0.06 | 0.06 | 87 | 1011.7 |
| 20260902040529 | 80 | 0 | 5.0 | 9.0 | 0.00 | 0.06 | 0.06 | 87 | 1011.6 |
| 20260902040431 | 80 | 0 | 5.0 | 9.0 | 0.00 | 0.06 | 0.06 | 87 | 1011.6 |
| 20260902040330 | 80 | 0 | 5.0 | 9.0 | 0.00 | 0.06 | 0.06 | 87 | 1011.6 |
| 20260902040229 | 80 | 0 | 5.0 | 9.0 | 0.00 | 0.06 | 0.06 | 87 | 1011.6 |
| 20260902040129 | 80 | 0 | 5.0 | 7.0 | 0.00 | 0.06 | 0.06 | 87 | 1011.5 |
| 20260902040030 | 80 | 0 | 5.0 | 7.0 | 0.00 | 0.06 | 0.06 | 87 | 1011.6 |
| 20260902035931 | 80 | 0 | 4.0 | 7.0 | 0.00 | 0.06 | 0.06 | 87 | 1011.6 |
| 20260902035830 | 80 | 0 | 4.0 | 7.0 | 0.00 | 0.06 | 0.06 | 87 | 1011.6 |
| 20260902035730 | 80 | 0 | 4.0 | 7.0 | 0.00 | 0.06 | 0.06 | 87 | 1011.5 |
| 20260902035629 | 80 | 0 | 4.0 | 7.0 | 0.00 | 0.06 | 0.06 | 87 | 1011.6 |
| 20260902035529 | 80 | 0 | 4.0 | 7.0 | 0.00 | 0.06 | 0.06 | 88 | 1011.5 |
| 20260902035429 | 80 | 0 | 4.0 | 7.0 | 0.00 | 0.06 | 0.06 | 88 | 1011.5 |
| 20260902035328 | 80 | 0 | 4.0 | 7.0 | 0.00 | 0.06 | 0.06 | 88 | 1011.6 |
| 20260902035228 | 80 | 0 | 4.0 | 7.0 | 0.00 | 0.06 | 0.06 | 88 | 1011.6 |
| 20260902035129 | 80 | 0 | 3.0 | 5.0 | 0.00 | 0.06 | 0.06 | 88 | 1011.6 |
| 20260902035030 | 80 | 0 | 3.0 | 5.0 | 0.00 | 0.06 | 0.06 | 88 | 1011.7 |
| 20260902034929 | 80 | 0 | 3.0 | 5.0 | 0.00 | 0.06 | 0.06 | 88 | 1011.7 |
| 20260902034829 | 80 | 0 | 2.0 | 5.0 | 0.00 | 0.06 | 0.06 | 88 | 1011.7 |
| 20260902034730 | 80 | 0 | 2.0 | 4.0 | 0.00 | 0.06 | 0.06 | 88 | 1011.7 |
| 20260902034628 | 80 | 0 | 3.0 | 5.0 | 0.00 | 0.06 | 0.06 | 88 | 1011.7 |
| 20260902034528 | 80 | 0 | 2.0 | 5.0 | 0.00 | 0.06 | 0.06 | 88 | 1011.7 |
| 20260902034428 | 80 | 0 | 3.0 | 5.0 | 0.00 | 0.06 | 0.06 | 88 | 1011.8 |
| 20260902034329 | 80 | 0 | 3.0 | 5.0 | 0.00 | 0.06 | 0.06 | 88 | 1011.7 |
| 20260902034228 | 80 | 0 | 3.0 | 5.0 | 0.00 | 0.06 | 0.06 | 88 | 1011.7 |
| 20260902034128 | 80 | 0 | 3.0 | 5.0 | 0.00 | 0.06 | 0.06 | 88 | 1011.7 |
| 20260902034029 | 80 | 0 | 2.0 | 6.0 | 0.00 | 0.06 | 0.06 | 88 | 1011.6 |
| 20260902033928 | 80 | 0 | 2.0 | 6.0 | 0.00 | 0.06 | 0.06 | 88 | 1011.6 |
| 20260902033829 | 80 | 0 | 3.0 | 6.0 | 0.00 | 0.06 | 0.06 | 88 | 1011.6 |
| 20260902033728 | 80 | 0 | 3.0 | 6.0 | 0.00 | 0.06 | 0.06 | 88 | 1011.4 |
| 20260902033629 | 80 | 0 | 2.0 | 6.0 | 0.00 | 0.06 | 0.06 | 88 | 1011.5 |
| 20260902033530 | 80 | 0 | 3.0 | 6.0 | 0.00 | 0.06 | 0.06 | 88 | 1011.4 |
| 20260902033428 | 80 | 0 | 3.0 | 6.0 | 0.00 | 0.06 | 0.06 | 88 | 1011.5 |
| 20260902033329 | 80 | 0 | 3.0 | 6.0 | 0.00 | 0.06 | 0.06 | 88 | 1011.5 |
| 20260902033228 | 80 | 0 | 4.0 | 6.0 | 0.00 | 0.06 | 0.06 | 89 | 1011.5 |
| 20260902033130 | 80 | 0 | 3.0 | 6.0 | 0.00 | 0.06 | 0.06 | 89 | 1011.5 |
| 20260902033029 | 80 | 0 | 3.0 | 5.0 | 0.00 | 0.06 | 0.06 | 89 | 1011.5 |
| 20260902032928 | 80 | 0 | 3.0 | 5.0 | 0.00 | 0.06 | 0.06 | 89 | 1011.6 |
| 20260902032828 | 80 | 0 | 2.0 | 5.0 | 0.00 | 0.06 | 0.06 | 89 | 1011.6 |
| 20260902032728 | 80 | 0 | 3.0 | 5.0 | 0.00 | 0.06 | 0.06 | 89 | 1011.6 |
| 20260902032627 | 80 | 0 | 4.0 | 5.0 | 0.00 | 0.06 | 0.06 | 89 | 1011.6 |
| 20260902032528 | 80 | 0 | 3.0 | 5.0 | 0.00 | 0.06 | 0.06 | 89 | 1011.6 |
| 20260902032429 | 80 | 0 | 3.0 | 5.0 | 0.00 | 0.06 | 0.06 | 89 | 1011.7 |
| 20260902032328 | 80 | 0 | 3.0 | 5.0 | 0.00 | 0.06 | 0.06 | 89 | 1011.7 |
| 20260902032230 | 80 | 0 | 4.0 | 5.0 | 0.00 | 0.06 | 0.06 | 89 | 1011.7 |
| 20260902032128 | 80 | 0 | 3.0 | 5.0 | 0.00 | 0.06 | 0.06 | 89 | 1011.7 |
| 20260902032028 | 80 | 0 | 3.0 | 5.0 | 0.00 | 0.06 | 0.06 | 89 | 1011.7 |
| 20260902031929 | 80 | 0 | 3.0 | 5.0 | 0.00 | 0.06 | 0.06 | 89 | 1011.7 |
| 20260902031829 | 80 | 0 | 2.0 | 5.0 | 0.00 | 0.06 | 0.06 | 89 | 1011.8 |
| 20260902031727 | 80 | 0 | 3.0 | 5.0 | 0.00 | 0.06 | 0.06 | 89 | 1011.8 |
| 20260902031629 | 80 | 0 | 3.0 | 5.0 | 0.00 | 0.06 | 0.06 | 89 | 1011.8 |
| 20260902031528 | 80 | 0 | 3.0 | 5.0 | 0.00 | 0.06 | 0.06 | 89 | 1011.7 |
| 20260902031428 | 80 | 0 | 3.0 | 5.0 | 0.00 | 0.06 | 0.06 | 89 | 1011.8 |
| 20260902031327 | 80 | 0 | 2.0 | 4.0 | 0.00 | 0.06 | 0.06 | 89 | 1011.7 |
| 20260902031229 | 80 | 0 | 2.0 | 4.0 | 0.00 | 0.06 | 0.06 | 89 | 1011.7 |
| 20260902031128 | 80 | 0 | 2.0 | 4.0 | 0.00 | 0.06 | 0.06 | 89 | 1011.7 |
| 20260902031027 | 80 | 0 | 2.0 | 5.0 | 0.00 | 0.06 | 0.06 | 89 | 1011.6 |
| 20260902030927 | 80 | 0 | 2.0 | 5.0 | 0.00 | 0.06 | 0.06 | 89 | 1011.5 |
| 20260902030827 | 80 | 0 | 2.0 | 5.0 | 0.00 | 0.06 | 0.06 | 89 | 1011.7 |
| 20260902030729 | 80 | 0 | 2.0 | 5.0 | 0.00 | 0.06 | 0.06 | 89 | 1011.6 |
| 20260902030628 | 80 | 0 | 2.0 | 5.0 | 0.00 | 0.06 | 0.06 | 89 | 1011.6 |
| 20260902030529 | 80 | 0 | 3.0 | 5.0 | 0.00 | 0.06 | 0.06 | 89 | 1011.6 |
| 20260902030427 | 80 | 0 | 3.0 | 5.0 | 0.00 | 0.06 | 0.06 | 89 | 1011.6 |
| 20260902030327 | 80 | 0 | 3.0 | 6.0 | 0.00 | 0.06 | 0.06 | 89 | 1011.5 |
| 20260902030229 | 80 | 0 | 4.0 | 6.0 | 0.00 | 0.06 | 0.06 | 89 | 1011.5 |
| 20260902030129 | 80 | 0 | 3.0 | 6.0 | 0.00 | 0.06 | 0.06 | 89 | 1011.6 |
| 20260902030029 | 80 | 0 | 2.0 | 6.0 | 0.00 | 0.06 | 0.06 | 89 | 1011.5 |
| 20260902025927 | 80 | 0 | 2.0 | 6.0 | 0.00 | 0.06 | 0.06 | 89 | 1011.5 |
| 20260902025829 | 80 | 0 | 2.0 | 6.0 | 0.00 | 0.06 | 0.06 | 89 | 1011.5 |
| 20260902025727 | 80 | 0 | 3.0 | 6.0 | 0.00 | 0.06 | 0.06 | 89 | 1011.5 |
| 20260902025627 | 80 | 0 | 3.0 | 6.0 | 0.00 | 0.06 | 0.06 | 89 | 1011.4 |
| 20260902025528 | 80 | 0 | 4.0 | 6.0 | 0.00 | 0.06 | 0.06 | 89 | 1011.4 |
| 20260902025429 | 80 | 0 | 4.0 | 6.0 | 0.00 | 0.06 | 0.06 | 89 | 1011.4 |
| 20260902025327 | 80 | 0 | 3.0 | 5.0 | 0.00 | 0.06 | 0.06 | 89 | 1011.4 |
| 20260902025227 | 80 | 0 | 3.0 | 3.0 | 0.00 | 0.06 | 0.06 | 90 | 1011.3 |
| 20260902025128 | 80 | 0 | 1.0 | 3.0 | 0.00 | 0.06 | 0.06 | 90 | 1011.4 |
| 20260902025029 | 80 | 0 | 1.0 | 3.0 | 0.00 | 0.06 | 0.06 | 90 | 1011.4 |
| 20260902024928 | 80 | 0 | 1.0 | 3.0 | 0.00 | 0.06 | 0.06 | 90 | 1011.4 |
| 20260902024829 | 80 | 0 | 1.0 | 3.0 | 0.00 | 0.06 | 0.06 | 90 | 1011.4 |
| 20260902024728 | 80 | 0 | 2.0 | 4.0 | 0.00 | 0.06 | 0.06 | 89 | 1011.3 |
| 20260902024627 | 80 | 0 | 2.0 | 4.0 | 0.00 | 0.06 | 0.06 | 89 | 1011.2 |
| 20260902024529 | 80 | 0 | 2.0 | 4.0 | 0.00 | 0.06 | 0.06 | 89 | 1011.2 |
| 20260902024427 | 80 | 0 | 1.0 | 4.0 | 0.00 | 0.06 | 0.06 | 89 | 1011.2 |
| 20260902024328 | 80 | 0 | 2.0 | 4.0 | 0.00 | 0.06 | 0.06 | 89 | 1011.1 |
| 20260902024227 | 80 | 0 | 2.0 | 5.0 | 0.00 | 0.06 | 0.06 | 89 | 1011.1 |
| 20260902024128 | 80 | 0 | 2.0 | 5.0 | 0.00 | 0.06 | 0.06 | 89 | 1011.1 |
| 20260902024027 | 80 | 0 | 2.0 | 5.0 | 0.00 | 0.06 | 0.06 | 89 | 1011.1 |
| 20260902023926 | 80 | 0 | 2.0 | 5.0 | 0.00 | 0.06 | 0.06 | 89 | 1011.1 |
| 20260902023828 | 80 | 0 | 3.0 | 5.0 | 0.00 | 0.06 | 0.06 | 89 | 1011.0 |
| 20260902023728 | 80 | 0 | 3.0 | 5.0 | 0.00 | 0.06 | 0.06 | 89 | 1011.1 |
| 20260902023626 | 80 | 0 | 2.0 | 5.0 | 0.00 | 0.06 | 0.06 | 89 | 1011.0 |
| 20260902023526 | 80 | 0 | 3.0 | 5.0 | 0.00 | 0.06 | 0.06 | 89 | 1011.0 |
| 20260902023429 | 80 | 0 | 3.0 | 5.0 | 0.00 | 0.06 | 0.06 | 89 | 1011.0 |
| 20260902023327 | 80 | 0 | 3.0 | 5.0 | 0.00 | 0.06 | 0.06 | 89 | 1011.0 |
| 20260902023229 | 80 | 0 | 3.0 | 4.0 | 0.00 | 0.06 | 0.06 | 89 | 1010.9 |
| 20260902023127 | 80 | 0 | 3.0 | 4.0 | 0.00 | 0.06 | 0.06 | 90 | 1010.8 |
| 20260902023027 | 80 | 0 | 2.0 | 4.0 | 0.00 | 0.06 | 0.06 | 90 | 1010.8 |
| 20260902022926 | 80 | 0 | 2.0 | 4.0 | 0.00 | 0.06 | 0.06 | 90 | 1010.8 |
| 20260902022826 | 80 | 0 | 2.0 | 4.0 | 0.00 | 0.06 | 0.06 | 90 | 1010.7 |
| 20260902022727 | 80 | 0 | 2.0 | 4.0 | 0.00 | 0.06 | 0.06 | 90 | 1010.8 |
| 20260902022627 | 80 | 0 | 3.0 | 4.0 | 0.00 | 0.06 | 0.06 | 90 | 1010.8 |
| 20260902022527 | 80 | 0 | 3.0 | 4.0 | 0.00 | 0.06 | 0.06 | 90 | 1010.8 |
| 20260902022426 | 80 | 0 | 3.0 | 4.0 | 0.00 | 0.06 | 0.06 | 90 | 1010.8 |
| 20260902022327 | 80 | 0 | 2.0 | 4.0 | 0.00 | 0.06 | 0.06 | 90 | 1010.9 |
| 20260902022227 | 80 | 0 | 2.0 | 4.0 | 0.00 | 0.06 | 0.06 | 90 | 1010.8 |
| 20260902022126 | 80 | 0 | 3.0 | 4.0 | 0.00 | 0.06 | 0.06 | 90 | 1010.7 |
| 20260902022028 | 80 | 0 | 3.0 | 4.0 | 0.00 | 0.06 | 0.06 | 90 | 1010.8 |
| 20260902021927 | 79 | 0 | 2.0 | 4.0 | 0.00 | 0.06 | 0.06 | 90 | 1010.8 |
| 20260902021826 | 79 | 0 | 2.0 | 4.0 | 0.00 | 0.06 | 0.06 | 90 | 1010.8 |
| 20260902021727 | 79 | 0 | 2.0 | 4.0 | 0.00 | 0.06 | 0.06 | 90 | 1010.7 |
| 20260902021628 | 79 | 0 | 2.0 | 4.0 | 0.00 | 0.06 | 0.06 | 90 | 1010.7 |
| 20260902021526 | 79 | 0 | 2.0 | 4.0 | 0.00 | 0.06 | 0.06 | 90 | 1010.6 |
| 20260902021426 | 79 | 0 | 2.0 | 3.0 | 0.00 | 0.06 | 0.06 | 90 | 1010.7 |
| 20260902021328 | 79 | 0 | 2.0 | 3.0 | 0.00 | 0.06 | 0.06 | 90 | 1010.7 |
| 20260902021227 | 79 | 0 | 1.0 | 3.0 | 0.00 | 0.06 | 0.06 | 90 | 1010.6 |
| 20260902021126 | 79 | 0 | 2.0 | 4.0 | 0.00 | 0.06 | 0.06 | 90 | 1010.6 |
| 20260902021029 | 79 | 0 | 2.0 | 4.0 | 0.00 | 0.06 | 0.06 | 90 | 1010.6 |
| 20260902020926 | 79 | 0 | 2.0 | 4.0 | 0.00 | 0.06 | 0.06 | 90 | 1010.5 |
| 20260902020827 | 79 | 0 | 2.0 | 4.0 | 0.00 | 0.06 | 0.06 | 90 | 1010.5 |
| 20260902020726 | 79 | 0 | 2.0 | 4.0 | 0.00 | 0.06 | 0.06 | 90 | 1010.6 |
| 20260902020629 | 79 | 0 | 2.0 | 4.0 | 0.00 | 0.06 | 0.06 | 90 | 1010.6 |
| 20260902020526 | 79 | 0 | 2.0 | 4.0 | 0.00 | 0.06 | 0.06 | 90 | 1010.5 |
| 20260902020426 | 79 | 0 | 2.0 | 4.0 | 0.00 | 0.06 | 0.06 | 90 | 1010.5 |
| 20260902020327 | 79 | 0 | 2.0 | 4.0 | 0.00 | 0.06 | 0.06 | 90 | 1010.5 |
| 20260902020227 | 79 | 0 | 3.0 | 5.0 | 0.00 | 0.06 | 0.06 | 90 | 1010.5 |
| 20260902020126 | 79 | 0 | 3.0 | 5.0 | 0.00 | 0.06 | 0.06 | 90 | 1010.4 |
| 20260902020027 | 79 | 0 | 2.0 | 5.0 | 0.00 | 0.06 | 0.06 | 90 | 1010.5 |
| 20260902015929 | 79 | 0 | 2.0 | 5.0 | 0.00 | 0.06 | 0.06 | 90 | 1010.4 |
| 20260902015827 | 79 | 0 | 2.0 | 5.0 | 0.00 | 0.06 | 0.06 | 90 | 1010.4 |
| 20260902015726 | 79 | 0 | 3.0 | 5.0 | 0.00 | 0.06 | 0.06 | 90 | 1010.3 |
| 20260902015627 | 79 | 0 | 3.0 | 5.0 | 0.00 | 0.06 | 0.06 | 90 | 1010.3 |
| 20260902015525 | 79 | 0 | 3.0 | 5.0 | 0.00 | 0.06 | 0.06 | 90 | 1010.3 |
| 20260902015427 | 79 | 0 | 3.0 | 5.0 | 0.00 | 0.06 | 0.06 | 90 | 1010.4 |
| 20260902015327 | 79 | 0 | 3.0 | 5.0 | 0.00 | 0.06 | 0.06 | 90 | 1010.4 |
| 20260902015227 | 79 | 0 | 3.0 | 4.0 | 0.00 | 0.06 | 0.06 | 90 | 1010.4 |
| 20260902015125 | 79 | 0 | 2.0 | 4.0 | 0.00 | 0.06 | 0.06 | 90 | 1010.4 |
| 20260902015026 | 79 | 0 | 2.0 | 4.0 | 0.00 | 0.06 | 0.06 | 90 | 1010.4 |
| 20260902014927 | 79 | 0 | 3.0 | 4.0 | 0.00 | 0.06 | 0.06 | 90 | 1010.4 |
| 20260902014826 | 79 | 0 | 3.0 | 4.0 | 0.00 | 0.06 | 0.06 | 90 | 1010.4 |
| 20260902014727 | 79 | 0 | 3.0 | 4.0 | 0.00 | 0.06 | 0.06 | 91 | 1010.4 |
| 20260902014626 | 79 | 0 | 2.0 | 4.0 | 0.00 | 0.06 | 0.06 | 91 | 1010.4 |
| 20260902014526 | 79 | 0 | 2.0 | 4.0 | 0.00 | 0.06 | 0.06 | 91 | 1010.4 |
| 20260902014425 | 79 | 0 | 2.0 | 4.0 | 0.00 | 0.06 | 0.06 | 91 | 1010.4 |
| 20260902014325 | 79 | 0 | 2.0 | 4.0 | 0.00 | 0.06 | 0.06 | 91 | 1010.5 |
| 20260902014227 | 79 | 0 | 2.0 | 4.0 | 0.00 | 0.06 | 0.06 | 91 | 1010.4 |
| 20260902014126 | 79 | 0 | 2.0 | 4.0 | 0.00 | 0.06 | 0.06 | 91 | 1010.4 |
| 20260902014025 | 79 | 0 | 2.0 | 4.0 | 0.00 | 0.06 | 0.06 | 91 | 1010.4 |
| 20260902013926 | 79 | 0 | 2.0 | 4.0 | 0.00 | 0.06 | 0.06 | 91 | 1010.3 |
| 20260902013827 | 79 | 0 | 2.0 | 4.0 | 0.00 | 0.06 | 0.06 | 91 | 1010.3 |
| 20260902013727 | 79 | 0 | 2.0 | 4.0 | 0.00 | 0.06 | 0.06 | 91 | 1010.3 |
| 20260902013627 | 79 | 0 | 2.0 | 4.0 | 0.00 | 0.06 | 0.06 | 91 | 1010.3 |
| 20260902013527 | 79 | 0 | 2.0 | 3.0 | 0.00 | 0.06 | 0.06 | 91 | 1010.3 |
| 20260902013426 | 79 | 0 | 2.0 | 3.0 | 0.00 | 0.06 | 0.06 | 91 | 1010.2 |
| 20260902013326 | 79 | 0 | 2.0 | 3.0 | 0.00 | 0.06 | 0.06 | 91 | 1010.3 |
| 20260902013227 | 79 | 0 | 2.0 | 3.0 | 0.00 | 0.06 | 0.06 | 91 | 1010.2 |
| 20260902013126 | 79 | 0 | 2.0 | 3.0 | 0.00 | 0.06 | 0.06 | 91 | 1010.2 |
| 20260902013026 | 79 | 0 | 2.0 | 4.0 | 0.00 | 0.06 | 0.06 | 91 | 1010.2 |
| 20260902012926 | 79 | 0 | 2.0 | 4.0 | 0.00 | 0.06 | 0.06 | 91 | 1010.3 |
| 20260902012826 | 79 | 0 | 2.0 | 4.0 | 0.00 | 0.06 | 0.06 | 91 | 1010.3 |
| 20260902012726 | 79 | 0 | 2.0 | 4.0 | 0.00 | 0.06 | 0.06 | 91 | 1010.2 |
| 20260902012626 | 79 | 0 | 2.0 | 5.0 | 0.00 | 0.06 | 0.06 | 91 | 1010.3 |
| 20260902012527 | 79 | 0 | 2.0 | 5.0 | 0.00 | 0.06 | 0.06 | 91 | 1010.3 |
| 20260902012425 | 79 | 0 | 2.0 | 5.0 | 0.00 | 0.06 | 0.06 | 91 | 1010.3 |
| 20260902012325 | 79 | 0 | 2.0 | 5.0 | 0.00 | 0.06 | 0.06 | 91 | 1010.2 |
| 20260902012225 | 79 | 0 | 2.0 | 5.0 | 0.00 | 0.06 | 0.06 | 91 | 1010.2 |
| 20260902012127 | 79 | 0 | 2.0 | 5.0 | 0.00 | 0.06 | 0.06 | 91 | 1010.3 |
| 20260902012025 | 79 | 0 | 2.0 | 5.0 | 0.00 | 0.06 | 0.06 | 91 | 1010.2 |
| 20260902011925 | 79 | 0 | 3.0 | 5.0 | 0.00 | 0.06 | 0.06 | 91 | 1010.3 |
| 20260902011826 | 79 | 0 | 4.0 | 5.0 | 0.00 | 0.06 | 0.06 | 91 | 1010.2 |
| 20260902011726 | 79 | 0 | 3.0 | 5.0 | 0.00 | 0.06 | 0.06 | 91 | 1010.2 |
| 20260902011626 | 79 | 0 | 3.0 | 4.0 | 0.00 | 0.06 | 0.06 | 91 | 1010.2 |
| 20260902011524 | 79 | 0 | 2.0 | 4.0 | 0.00 | 0.06 | 0.06 | 91 | 1010.2 |
| 20260902011426 | 79 | 0 | 2.0 | 4.0 | 0.00 | 0.06 | 0.06 | 91 | 1010.1 |
| 20260902011326 | 79 | 0 | 2.0 | 4.0 | 0.00 | 0.06 | 0.06 | 91 | 1010.2 |
| 20260902011226 | 79 | 0 | 2.0 | 3.0 | 0.00 | 0.06 | 0.06 | 91 | 1010.2 |
| 20260902011127 | 79 | 0 | 2.0 | 3.0 | 0.00 | 0.06 | 0.06 | 91 | 1010.2 |
| 20260902011025 | 79 | 0 | 2.0 | 3.0 | 0.00 | 0.06 | 0.06 | 91 | 1010.2 |
| 20260902010925 | 79 | 0 | 2.0 | 3.0 | 0.00 | 0.06 | 0.06 | 91 | 1010.2 |
| 20260902010826 | 79 | 0 | 2.0 | 3.0 | 0.00 | 0.06 | 0.06 | 91 | 1010.1 |
| 20260902010726 | 79 | 0 | 2.0 | 4.0 | 0.00 | 0.06 | 0.06 | 91 | 1010.1 |
| 20260902010625 | 79 | 0 | 2.0 | 4.0 | 0.00 | 0.06 | 0.06 | 91 | 1010.1 |
| 20260902010524 | 79 | 0 | 2.0 | 4.0 | 0.00 | 0.06 | 0.06 | 91 | 1010.1 |
| 20260902010426 | 79 | 0 | 2.0 | 4.0 | 0.00 | 0.06 | 0.06 | 91 | 1010.2 |
| 20260902010325 | 79 | 0 | 2.0 | 4.0 | 0.00 | 0.06 | 0.06 | 92 | 1010.1 |
| 20260902010224 | 79 | 0 | 1.0 | 4.0 | 0.00 | 0.06 | 0.06 | 92 | 1010.1 |
| 20260902010124 | 79 | 0 | 2.0 | 4.0 | 0.00 | 0.06 | 0.06 | 92 | 1010.1 |
| 20260902010025 | 79 | 0 | 2.0 | 4.0 | 0.00 | 0.06 | 0.06 | 91 | 1010.2 |
| 20260902005924 | 79 | 0 | 2.0 | 4.0 | 0.00 | 0.06 | 0.06 | 92 | 1010.2 |
| 20260902005824 | 79 | 282 | 3.0 | 4.0 | 0.00 | 0.06 | 0.06 | 92 | 1010.2 |
| 20260902005725 | 79 | 286 | 2.0 | 4.0 | 0.00 | 0.06 | 0.06 | 92 | 1010.2 |
| 20260902005624 | 79 | 288 | 2.0 | 4.0 | 0.00 | 0.06 | 0.06 | 92 | 1010.2 |
| 20260902005526 | 79 | 289 | 2.0 | 4.0 | 0.00 | 0.06 | 0.06 | 92 | 1010.1 |
| 20260902005425 | 79 | 292 | 2.0 | 4.0 | 0.00 | 0.06 | 0.06 | 92 | 1010.2 |
| 20260902005325 | 79 | 292 | 2.0 | 4.0 | 0.00 | 0.06 | 0.06 | 92 | 1010.1 |
| 20260902005224 | 79 | 293 | 2.0 | 4.0 | 0.00 | 0.06 | 0.06 | 92 | 1010.1 |
| 20260902005124 | 79 | 293 | 2.0 | 4.0 | 0.00 | 0.06 | 0.06 | 92 | 1010.1 |
| 20260902005026 | 79 | 306 | 1.0 | 4.0 | 0.00 | 0.06 | 0.06 | 92 | 1010.1 |
| 20260902004924 | 79 | 306 | 2.0 | 4.0 | 0.00 | 0.06 | 0.06 | 92 | 1010.2 |
| 20260902004824 | 79 | 306 | 2.0 | 4.0 | 0.00 | 0.06 | 0.06 | 92 | 1010.2 |
| 20260902004724 | 79 | 309 | 2.0 | 4.0 | 0.00 | 0.06 | 0.06 | 92 | 1010.1 |
| 20260902004626 | 79 | 310 | 2.0 | 4.0 | 0.00 | 0.06 | 0.06 | 92 | 1010.2 |
| 20260902004525 | 79 | 310 | 2.0 | 4.0 | 0.00 | 0.06 | 0.06 | 92 | 1010.2 |
| 20260902004424 | 79 | 312 | 2.0 | 4.0 | 0.00 | 0.06 | 0.06 | 92 | 1010.3 |
| 20260902004325 | 79 | 310 | 2.0 | 4.0 | 0.00 | 0.06 | 0.06 | 92 | 1010.3 |
| 20260902004224 | 79 | 289 | 2.0 | 4.0 | 0.00 | 0.06 | 0.06 | 92 | 1010.4 |
| 20260902004125 | 79 | 312 | 2.0 | 4.0 | 0.00 | 0.06 | 0.06 | 92 | 1010.3 |
| 20260902004025 | 79 | 312 | 2.0 | 4.0 | 0.00 | 0.06 | 0.06 | 92 | 1010.4 |
| 20260902003924 | 79 | 306 | 2.0 | 4.0 | 0.00 | 0.06 | 0.06 | 92 | 1010.4 |
| 20260902003824 | 79 | 312 | 2.0 | 4.0 | 0.00 | 0.06 | 0.06 | 92 | 1010.4 |
| 20260902003724 | 79 | 292 | 2.0 | 4.0 | 0.00 | 0.06 | 0.06 | 92 | 1010.4 |
| 20260902003627 | 79 | 295 | 2.0 | 4.0 | 0.00 | 0.06 | 0.06 | 92 | 1010.4 |
| 20260902003525 | 79 | 295 | 2.0 | 4.0 | 0.00 | 0.06 | 0.06 | 92 | 1010.3 |
| 20260902003426 | 79 | 296 | 2.0 | 4.0 | 0.00 | 0.06 | 0.06 | 92 | 1010.4 |
| 20260902003325 | 79 | 293 | 2.0 | 5.0 | 0.00 | 0.06 | 0.06 | 91 | 1010.4 |
| 20260902003225 | 79 | 292 | 2.0 | 5.0 | 0.00 | 0.06 | 0.06 | 91 | 1010.4 |
| 20260902003124 | 79 | 293 | 2.0 | 5.0 | 0.00 | 0.06 | 0.06 | 91 | 1010.3 |
| 20260902003025 | 79 | 293 | 2.0 | 5.0 | 0.00 | 0.06 | 0.06 | 91 | 1010.3 |
| 20260902002925 | 79 | 286 | 2.0 | 5.0 | 0.00 | 0.06 | 0.06 | 91 | 1010.4 |
| 20260902002824 | 79 | 286 | 2.0 | 5.0 | 0.00 | 0.06 | 0.06 | 91 | 1010.4 |
| 20260902002724 | 79 | 286 | 2.0 | 5.0 | 0.00 | 0.06 | 0.06 | 91 | 1010.3 |
| 20260902002626 | 79 | 288 | 2.0 | 5.0 | 0.00 | 0.06 | 0.06 | 91 | 1010.3 |
| 20260902002525 | 79 | 288 | 3.0 | 6.0 | 0.00 | 0.06 | 0.06 | 91 | 1010.4 |
| 20260902002423 | 79 | 289 | 3.0 | 6.0 | 0.00 | 0.06 | 0.06 | 91 | 1010.4 |
| 20260902002324 | 79 | 293 | 3.0 | 6.0 | 0.00 | 0.06 | 0.06 | 91 | 1010.4 |
| 20260902002224 | 79 | 295 | 3.0 | 6.0 | 0.00 | 0.06 | 0.06 | 91 | 1010.4 |
| 20260902002124 | 79 | 298 | 3.0 | 6.0 | 0.00 | 0.06 | 0.06 | 91 | 1010.3 |
| 20260902002024 | 79 | 298 | 2.0 | 6.0 | 0.00 | 0.06 | 0.06 | 91 | 1010.5 |
| 20260902001924 | 79 | 296 | 2.0 | 6.0 | 0.00 | 0.06 | 0.06 | 91 | 1010.5 |
| 20260902001825 | 79 | 298 | 3.0 | 6.0 | 0.00 | 0.06 | 0.06 | 91 | 1010.5 |
| 20260902001723 | 79 | 300 | 3.0 | 6.0 | 0.00 | 0.06 | 0.06 | 91 | 1010.5 |
| 20260902001623 | 79 | 300 | 3.0 | 6.0 | 0.00 | 0.06 | 0.06 | 91 | 1010.6 |
| 20260902001524 | 79 | 290 | 3.0 | 5.0 | 0.00 | 0.06 | 0.06 | 91 | 1010.5 |
| 20260902001423 | 79 | 292 | 3.0 | 5.0 | 0.00 | 0.06 | 0.06 | 91 | 1010.5 |
| 20260902001323 | 79 | 292 | 3.0 | 5.0 | 0.00 | 0.06 | 0.06 | 91 | 1010.5 |
| 20260902001225 | 79 | 292 | 4.0 | 5.0 | 0.00 | 0.06 | 0.06 | 91 | 1010.5 |
| 20260902001124 | 79 | 310 | 3.0 | 5.0 | 0.00 | 0.06 | 0.06 | 91 | 1010.5 |
| 20260902001023 | 79 | 283 | 3.0 | 5.0 | 0.00 | 0.06 | 0.06 | 91 | 1010.4 |
| 20260902000923 | 79 | 288 | 3.0 | 5.0 | 0.00 | 0.06 | 0.06 | 91 | 1010.5 |
| 20260902000825 | 79 | 305 | 3.0 | 5.0 | 0.00 | 0.06 | 0.06 | 91 | 1010.5 |
| 20260902000724 | 79 | 309 | 3.0 | 5.0 | 0.00 | 0.06 | 0.06 | 91 | 1010.5 |
| 20260902000625 | 79 | 299 | 4.0 | 5.0 | 0.00 | 0.06 | 0.06 | 91 | 1010.5 |
| 20260902000525 | 79 | 302 | 3.0 | 5.0 | 0.00 | 0.06 | 0.06 | 91 | 1010.4 |
| 20260902000424 | 79 | 309 | 2.0 | 5.0 | 0.00 | 0.06 | 0.06 | 91 | 1010.4 |
| 20260902000325 | 79 | 307 | 2.0 | 5.0 | 0.00 | 0.06 | 0.06 | 91 | 1010.5 |
| 20260902000226 | 79 | 309 | 3.0 | 5.0 | 0.00 | 0.06 | 0.06 | 91 | 1010.4 |
| 20260902000125 | 79 | 309 | 3.0 | 5.0 | 0.00 | 0.06 | 0.06 | 91 | 1010.4 |
| 20260902000024 | 79 | 302 | 4.0 | 5.0 | 0.00 | 0.06 | 0.06 | 90 | 1010.4 |
| 20260901235923 | 79 | 302 | 3.0 | 5.0 | 0.00 | 0.06 | 0.06 | 90 | 1010.4 |
| 20260901235825 | 79 | 269 | 3.0 | 5.0 | 0.00 | 0.06 | 0.06 | 90 | 1010.4 |
| 20260901235723 | 79 | 279 | 3.0 | 5.0 | 0.00 | 0.06 | 0.06 | 90 | 1010.3 |
| 20260901235623 | 79 | 298 | 3.0 | 5.0 | 0.00 | 0.06 | 0.06 | 90 | 1010.3 |
| 20260901235523 | 79 | 298 | 3.0 | 5.0 | 0.00 | 0.06 | 0.06 | 90 | 1010.3 |
| 20260901235423 | 79 | 279 | 3.0 | 5.0 | 0.00 | 0.06 | 0.06 | 90 | 1010.3 |
| 20260901235323 | 79 | 278 | 4.0 | 5.0 | 0.00 | 0.06 | 0.06 | 90 | 1010.4 |
| 20260901235223 | 80 | 276 | 3.0 | 5.0 | 0.00 | 0.06 | 0.06 | 90 | 1010.4 |
| 20260901235124 | 80 | 302 | 3.0 | 5.0 | 0.00 | 0.06 | 0.06 | 90 | 1010.4 |
| 20260901235023 | 80 | 299 | 2.0 | 5.0 | 0.00 | 0.06 | 0.06 | 90 | 1010.4 |
| 20260901234923 | 80 | 274 | 2.0 | 5.0 | 0.00 | 0.06 | 0.06 | 90 | 1010.4 |
| 20260901234824 | 80 | 274 | 2.0 | 5.0 | 0.00 | 0.06 | 0.06 | 90 | 1010.4 |
| 20260901234724 | 80 | 285 | 2.0 | 5.0 | 0.00 | 0.06 | 0.06 | 90 | 1010.4 |
| 20260901234623 | 80 | 289 | 3.0 | 6.0 | 0.00 | 0.06 | 0.06 | 90 | 1010.4 |
| 20260901234523 | 80 | 309 | 4.0 | 6.0 | 0.00 | 0.06 | 0.06 | 89 | 1010.3 |
| 20260901234424 | 80 | 281 | 3.0 | 6.0 | 0.00 | 0.06 | 0.06 | 89 | 1010.4 |
| 20260901234323 | 80 | 285 | 2.0 | 6.0 | 0.00 | 0.06 | 0.06 | 89 | 1010.3 |
| 20260901234223 | 80 | 295 | 3.0 | 6.0 | 0.00 | 0.06 | 0.06 | 89 | 1010.4 |
| 20260901234124 | 80 | 282 | 3.0 | 6.0 | 0.00 | 0.06 | 0.06 | 89 | 1010.4 |
| 20260901234024 | 80 | 290 | 3.0 | 6.0 | 0.00 | 0.06 | 0.06 | 89 | 1010.4 |
| 20260901233922 | 80 | 283 | 3.0 | 7.0 | 0.00 | 0.06 | 0.06 | 88 | 1010.4 |
| 20260901233824 | 80 | 282 | 4.0 | 7.0 | 0.00 | 0.06 | 0.06 | 88 | 1010.4 |
| 20260901233725 | 80 | 296 | 4.0 | 10.0 | 0.00 | 0.06 | 0.06 | 88 | 1010.4 |
| 20260901233624 | 80 | 290 | 3.0 | 10.0 | 0.00 | 0.06 | 0.06 | 88 | 1010.4 |
| 20260901233525 | 80 | 281 | 2.0 | 10.0 | 0.00 | 0.06 | 0.06 | 88 | 1010.4 |
| 20260901233422 | 80 | 286 | 2.0 | 10.0 | 0.00 | 0.06 | 0.06 | 88 | 1010.5 |
| 20260901233324 | 81 | 286 | 3.0 | 10.0 | 0.00 | 0.06 | 0.06 | 88 | 1010.5 |
| 20260901233223 | 81 | 286 | 4.0 | 10.0 | 0.00 | 0.06 | 0.06 | 88 | 1010.5 |
| 20260901233123 | 81 | 299 | 4.0 | 10.0 | 0.00 | 0.06 | 0.06 | 88 | 1010.5 |
| 20260901233024 | 81 | 282 | 4.0 | 10.0 | 0.00 | 0.06 | 0.06 | 88 | 1010.4 |
| 20260901232923 | 81 | 285 | 5.0 | 10.0 | 0.00 | 0.06 | 0.06 | 87 | 1010.5 |
| 20260901232822 | 81 | 289 | 5.0 | 10.0 | 0.00 | 0.06 | 0.06 | 88 | 1010.5 |
| 20260901232723 | 81 | 289 | 5.0 | 10.0 | 0.00 | 0.06 | 0.06 | 88 | 1010.5 |
| 20260901232623 | 81 | 283 | 4.0 | 9.0 | 0.00 | 0.06 | 0.06 | 89 | 1010.5 |
| 20260901232524 | 81 | 295 | 3.0 | 9.0 | 0.00 | 0.06 | 0.06 | 89 | 1010.5 |
| 20260901232423 | 81 | 295 | 3.0 | 9.0 | 0.00 | 0.06 | 0.06 | 89 | 1010.5 |
| 20260901232323 | 81 | 295 | 3.0 | 9.0 | 0.00 | 0.06 | 0.06 | 89 | 1010.5 |
| 20260901232223 | 81 | 292 | 4.0 | 9.0 | 0.00 | 0.06 | 0.06 | 89 | 1010.5 |
| 20260901232123 | 81 | 292 | 5.0 | 9.0 | 0.00 | 0.06 | 0.06 | 89 | 1010.6 |
| 20260901232024 | 81 | 289 | 6.0 | 9.0 | 0.00 | 0.06 | 0.06 | 89 | 1010.6 |
| 20260901231923 | 81 | 296 | 5.0 | 9.0 | 0.00 | 0.06 | 0.06 | 90 | 1010.6 |
| 20260901231822 | 81 | 283 | 3.0 | 6.0 | 0.00 | 0.06 | 0.06 | 90 | 1010.7 |
| 20260901231722 | 81 | 275 | 3.0 | 6.0 | 0.00 | 0.06 | 0.06 | 90 | 1010.6 |
| 20260901231624 | 81 | 290 | 2.0 | 6.0 | 0.00 | 0.06 | 0.06 | 91 | 1010.7 |
| 20260901231522 | 81 | 292 | 2.0 | 6.0 | 0.00 | 0.06 | 0.06 | 91 | 1010.6 |
| 20260901231423 | 81 | 289 | 3.0 | 6.0 | 0.00 | 0.06 | 0.06 | 90 | 1010.7 |
| 20260901231322 | 81 | 288 | 4.0 | 6.0 | 0.00 | 0.06 | 0.06 | 90 | 1010.7 |
| 20260901231222 | 81 | 0 | 4.0 | 6.0 | 0.00 | 0.06 | 0.06 | 91 | 1010.8 |
| 20260901231123 | 81 | 296 | 4.0 | 6.0 | 0.01 | 0.06 | 0.06 | 91 | 1010.8 |
| 20260901231022 | 81 | 276 | 3.0 | 5.0 | 0.01 | 0.06 | 0.06 | 91 | 1010.8 |
| 20260901230924 | 80 | 285 | 2.0 | 7.0 | 0.01 | 0.06 | 0.06 | 91 | 1010.8 |
| 20260901230822 | 81 | 300 | 3.0 | 7.0 | 0.01 | 0.06 | 0.06 | 91 | 1010.8 |
| 20260901230722 | 81 | 292 | 3.0 | 7.0 | 0.01 | 0.06 | 0.06 | 91 | 1010.8 |
| 20260901230622 | 81 | 293 | 3.0 | 7.0 | 0.01 | 0.06 | 0.06 | 91 | 1010.8 |
| 20260901230522 | 81 | 296 | 3.0 | 7.0 | 0.01 | 0.06 | 0.06 | 91 | 1010.9 |
| 20260901230422 | 80 | 299 | 2.0 | 7.0 | 0.01 | 0.06 | 0.06 | 91 | 1010.9 |
| 20260901230323 | 80 | 303 | 3.0 | 7.0 | 0.01 | 0.06 | 0.06 | 91 | 1010.9 |
| 20260901230223 | 80 | 295 | 4.0 | 7.0 | 0.01 | 0.06 | 0.06 | 91 | 1010.9 |
| 20260901230122 | 80 | 285 | 4.0 | 7.0 | 0.01 | 0.06 | 0.06 | 91 | 1010.9 |
| 20260901230022 | 80 | 282 | 3.0 | 7.0 | 0.01 | 0.05 | 0.06 | 91 | 1011.0 |
| 20260901225923 | 80 | 285 | 4.0 | 7.0 | 0.01 | 0.05 | 0.06 | 91 | 1010.9 |
| 20260901225822 | 80 | 279 | 4.0 | 7.0 | 0.01 | 0.05 | 0.06 | 91 | 1010.9 |
| 20260901225722 | 80 | 283 | 4.0 | 7.0 | 0.01 | 0.05 | 0.06 | 91 | 1010.9 |
| 20260901225623 | 80 | 292 | 4.0 | 7.0 | 0.01 | 0.05 | 0.06 | 91 | 1010.9 |
| 20260901225523 | 80 | 281 | 4.0 | 7.0 | 0.01 | 0.05 | 0.06 | 91 | 1011.0 |
| 20260901225422 | 80 | 281 | 3.0 | 7.0 | 0.01 | 0.05 | 0.06 | 91 | 1011.0 |
| 20260901225321 | 80 | 289 | 2.0 | 7.0 | 0.01 | 0.05 | 0.06 | 91 | 1010.9 |
| 20260901225222 | 80 | 292 | 3.0 | 7.0 | 0.01 | 0.05 | 0.06 | 91 | 1011.0 |
| 20260901225122 | 80 | 288 | 3.0 | 10.0 | 0.01 | 0.05 | 0.06 | 91 | 1011.0 |
| 20260901225022 | 80 | 310 | 4.0 | 10.0 | 0.01 | 0.05 | 0.06 | 91 | 1011.1 |
| 20260901224921 | 80 | 299 | 4.0 | 10.0 | 0.01 | 0.05 | 0.06 | 91 | 1011.1 |
| 20260901224823 | 80 | 283 | 4.0 | 10.0 | 0.01 | 0.05 | 0.06 | 91 | 1011.1 |
| 20260901224723 | 80 | 283 | 4.0 | 10.0 | 0.01 | 0.05 | 0.06 | 91 | 1011.2 |
| 20260901224622 | 80 | 283 | 4.0 | 10.0 | 0.01 | 0.05 | 0.06 | 91 | 1011.2 |
| 20260901224523 | 80 | 283 | 4.0 | 10.0 | 0.01 | 0.05 | 0.06 | 91 | 1011.2 |
| 20260901224422 | 80 | 306 | 4.0 | 10.0 | 0.01 | 0.05 | 0.06 | 91 | 1011.2 |
| 20260901224322 | 80 | 0 | 4.0 | 10.0 | 0.01 | 0.05 | 0.06 | 91 | 1011.3 |
| 20260901224221 | 80 | 302 | 5.0 | 10.0 | 0.01 | 0.05 | 0.06 | 91 | 1011.3 |
| 20260901224123 | 80 | 298 | 6.0 | 10.0 | 0.01 | 0.05 | 0.06 | 91 | 1011.3 |
| 20260901224023 | 80 | 295 | 5.0 | 10.0 | 0.01 | 0.05 | 0.06 | 91 | 1011.3 |
| 20260901223922 | 80 | 288 | 5.0 | 9.0 | 0.01 | 0.05 | 0.06 | 91 | 1011.3 |
| 20260901223821 | 80 | 285 | 5.0 | 10.0 | 0.01 | 0.05 | 0.06 | 91 | 1011.3 |
| 20260901223722 | 80 | 8 | 6.0 | 10.0 | 0.01 | 0.05 | 0.06 | 90 | 1011.4 |
| 20260901223623 | 80 | 303 | 6.0 | 11.0 | 0.01 | 0.05 | 0.06 | 90 | 1011.3 |
| 20260901223521 | 80 | 296 | 5.0 | 11.0 | 0.01 | 0.05 | 0.06 | 91 | 1011.4 |
| 20260901223423 | 80 | 293 | 6.0 | 11.0 | 0.01 | 0.05 | 0.06 | 90 | 1011.3 |
| 20260901223321 | 80 | 16 | 6.0 | 11.0 | 0.01 | 0.05 | 0.06 | 90 | 1011.3 |
| 20260901223223 | 80 | 4 | 4.0 | 11.0 | 0.01 | 0.05 | 0.06 | 91 | 1011.3 |